[[{"header":{"parameterUnit":"m.s-1","parameterCategory":1,"la1":31.0,"la2":29.5877,"lo1":-88.7671,"lo2":-86.6584,"dy":0.0162,"dx":0.0185,"nx":115,"ny":88,"refTime":"2023-06-23T12:00:00:Z","depth":0,"parameterNumber":2,"parameterNumberName":"U-component_of_WINDS"},"data":[0.0,0.0,0.0,0.0,0.0,0.0,0.0,0.0,0.0,0.0,0.0,0.0,0.0,0.0,0.0,0.0,0.0,0.0,0.0,0.0,0.0,0.0,0.0,0.0,0.0,0.0,0.0,0.0,0.0,0.0,0.0,0.0,0.0,0.0,0.0,0.0,0.0,0.0,0.0,0.0,0.0,0.0,0.0,0.0,0.0,0.0,0.0,0.0,0.0,0.0,0.0,0.0,0.0,0.0,0.0,0.0,0.0,0.0,0.0,0.0,0.0,0.0,0.0,0.0,0.0,0.0,0.0,0.0,0.0,0.0,0.0,0.0,0.0,0.0,0.0,0.0,0.0,0.0,0.0,0.0,0.0,0.0,0.0,0.0,0.0,0.0,0.0,0.0,0.0,0.0,0.0,0.0,0.0,0.0,0.0,0.0,0.0,0.0,0.0,0.0,0.0,0.0,0.0,0.0,0.0,0.0,0.0,0.0,0.0,0.0,0.0,0.0,0.0,0.0,0.0,0.0,0.0,0.0,0.0,0.0,0.0,0.0,0.0,0.0,0.0,0.0,0.0,0.0,0.0,0.0,0.0,0.0,0.0,0.0,0.0,0.0,0.0,0.0,0.0,0.0,0.0,0.0,0.0,0.0,0.0,0.0,0.0,0.0,0.0,0.0,0.0,0.0,0.0,0.0,0.0,0.0,0.0,0.0,0.0,0.0,0.0,0.0,0.0,0.0,0.0,0.0,0.0,0.0,0.0,0.0,0.0,0.0,0.0,0.0,0.0,0.0,0.0,0.0,0.0,0.0,0.0,0.0,0.0,0.0,0.0,0.0,0.0,0.0,0.0,0.0,0.0,0.0,0.0,0.0,0.0,0.0,0.0,0.0,0.0,0.0,0.0,0.0,0.0,0.0,0.0,0.0,0.0,0.0,0.0,0.0,0.0,0.0,0.0,0.0,0.0,0.0,0.0,0.0,0.0,0.0,0.0,0.0,0.0,0.0,0.0,0.0,0.0,0.0,0.0,0.0,0.0,0.0,0.0,0.0,0.0,0.0,0.0,0.0,0.0,0.0,0.0,0.0,0.0,0.0,0.0,0.0,0.0,0.0,0.0,0.0,0.0,0.0,0.0,0.0,0.0,0.0,0.0,0.0,0.0,0.0,0.0,0.0,0.0,0.0,0.0,0.0,0.0,0.0,0.0,0.0,0.0,0.0,0.0,0.0,0.0,0.0,0.0,0.0,0.0,0.0,0.0,0.0,0.0,0.0,0.0,0.0,0.0,0.0,0.0,0.0,0.0,0.0,0.0,0.0,0.0,0.0,0.0,0.0,0.0,0.0,0.0,0.0,0.0,0.0,0.0,0.0,0.0,0.0,0.0,0.0,0.0,0.0,0.0,0.0,0.0,0.0,0.0,0.0,0.0,0.0,0.0,0.0,0.0,0.0,0.0,0.0,0.0,0.0,0.0,0.0,0.0,0.0,0.0,0.0,0.0,0.0,0.0,0.0,0.0,0.0,0.0,0.0,0.0,0.0,0.0,0.0,0.0,0.0,0.0,0.0,0.0,0.0,0.0,0.0,0.0,0.0,0.0,0.0,0.0,0.0,0.0,0.0,0.0,0.0,0.0,0.0,0.0,0.0,0.0,0.0,0.0,0.0,0.0,0.0,0.0,0.0,0.0,0.0,0.0,0.0,0.0,0.0,0.0,0.0,0.0,0.0,0.0,0.0,0.0,0.0,0.0,0.0,0.0,0.0,0.0,0.0,0.0,0.0,0.0,0.0,0.0,0.0,0.0,0.0,0.0,0.0,0.0,0.0,0.0,0.0,0.0,0.0,0.0,0.0,0.0,0.0,0.0,0.0,0.0,0.0,0.0,0.0,0.0,0.0,0.0,0.0,0.0,0.0,0.0,0.0,0.0,0.0,0.0,0.0,0.0,0.0,0.0,0.0,0.0,0.0,0.0,0.0,0.0,0.0,0.0,0.0,0.0,0.0,0.0,0.0,0.0,0.0,0.0,0.0,0.0,0.0,0.0,0.0,0.0,0.0,0.0,0.0,0.0,0.0,0.0,0.0,0.0,0.0,0.0,0.0,0.0,0.0,0.0,0.0,0.0,0.0,0.0,0.0,0.0,0.0,0.0,0.0,0.0,0.0,0.0,0.0,0.0,0.0,0.0,0.0,0.0,0.0,0.0,0.0,0.0,0.0,0.0,0.0,0.0,0.0,0.0,0.0,0.0,0.0,0.0,0.0,0.0,0.0,0.0,0.0,0.0,0.0,0.0,0.0,0.0,0.0,0.0,0.0,0.0,0.0,0.0,0.0,0.0,0.0,0.0,0.0,0.0,0.0,0.0,0.0,0.0,0.0,0.0,0.0,0.0,0.0,0.0,0.0,0.0,0.0,0.0,0.0,0.0,0.0,0.0,0.0,0.0,0.0,0.0,0.0,0.0,0.0,0.0,0.0,0.0,0.0,0.0,0.0,0.0,0.0,0.0,0.0,0.0,0.0,0.0,0.0,0.0,0.0,0.0,0.0,0.0,0.0,0.0,0.0,0.0,0.0,0.0,0.0,0.0,0.0,0.0,0.0,0.0,0.0,0.0,0.0,0.0,0.0,0.0,0.0,0.0,0.0,0.0,0.0,0.0,0.0,0.0,0.0,0.0,0.0,0.0,0.0,0.0,0.0,0.0,0.0,0.0,0.0,0.0,0.0,0.0,0.0,0.0,0.0,0.0,0.0,0.0,0.0,0.0,0.0,0.0,0.0,0.0,0.0,0.0,0.0,0.0,0.0,0.0,0.0,0.0,0.0,0.0,0.0,0.0,0.0,0.0,0.0,0.0,0.0,0.0,0.0,0.0,0.0,0.0,0.0,0.0,0.0,0.0,0.0,0.0,0.0,0.0,0.0,0.0,0.0,0.0,0.0,0.0,0.0,0.0,0.0,0.0,0.0,0.0,0.0,0.0,0.0,0.0,0.0,0.0,0.0,0.0,0.0,0.0,0.0,0.0,0.0,0.0,0.0,0.0,0.0,0.0,0.0,0.0,0.0,0.0,0.0,0.0,0.0,0.0,0.0,0.0,0.0,0.0,0.0,0.0,0.0,0.0,0.0,0.0,0.0,0.0,0.0,0.0,0.0,0.0,0.0,0.0,0.0,0.0,0.0,0.0,0.0,0.0,0.0,0.0,0.0,0.0,0.0,0.0,0.0,0.0,0.0,0.0,0.0,0.0,0.0,0.0,0.0,0.0,0.0,0.0,0.0,0.0,0.0,0.0,0.0,0.0,0.0,0.0,0.0,0.0,0.0,0.0,0.0,0.0,0.0,0.0,0.0,0.0,0.0,0.0,0.0,0.0,0.0,0.0,0.0,0.0,0.0,0.0,0.0,0.0,0.0,0.0,0.0,0.0,0.0,0.0,0.0,0.0,0.0,0.0,0.0,0.0,0.0,0.0,0.0,0.0,0.0,0.0,0.0,0.0,0.0,0.0,0.0,0.0,0.0,0.0,0.0,0.0,0.0,0.0,0.0,0.0,0.0,0.0,0.0,0.0,0.0,0.0,0.0,0.0,0.0,0.0,0.0,0.0,0.0,0.0,0.0,0.0,0.0,0.0,0.0,0.0,0.0,0.0,0.0,0.0,0.0,0.0,0.0,0.0,0.0,0.0,0.0,0.0,0.0,0.0,0.0,0.0,0.0,0.0,0.0,0.0,0.0,0.0,0.0,0.0,0.0,0.0,0.0,0.0,0.0,0.0,0.0,0.0,0.0,0.0,0.0,0.0,0.0,0.0,0.0,0.0,0.0,0.0,0.0,0.0,0.0,0.0,0.0,0.0,0.0,0.0,0.0,0.0,0.0,0.0,0.0,0.0,0.0,0.0,0.0,0.0,0.0,0.0,0.0,0.0,0.0,0.0,0.0,0.0,0.0,0.0,0.0,0.0,0.0,0.0,0.0,0.0,0.0,0.0,0.0,0.0,0.0,0.0,0.0,0.0,0.0,0.0,0.0,0.0,0.0,0.0,0.0,0.0,0.0,0.0,0.0,0.0,0.0,0.0,0.0,0.0,0.0,0.0,0.0,0.0,0.0,0.0,0.0,0.0,0.0,0.0,0.0,0.0,0.0,0.0,0.0,0.0,0.0,0.0,0.0,0.0,0.0,0.0,0.0,0.0,0.0,0.0,0.0,0.0,0.0,0.0,0.0,0.0,0.0,0.0,0.0,0.0,0.0,0.0,0.0,0.0,0.0,0.0,0.0,0.0,0.0,0.0,0.0,0.0,0.0,0.0,0.0,-2.4623,0.0,0.0,0.0,0.0,0.0,0.0,0.0,0.0,0.0,0.0,0.0,0.0,0.0,0.0,0.0,0.0,0.0,0.0,0.0,0.0,0.0,0.0,0.0,0.0,0.0,0.0,0.0,0.0,0.0,0.0,0.0,0.0,0.0,0.0,0.0,0.0,0.0,0.0,0.0,0.0,0.0,0.0,0.0,0.0,0.0,0.0,0.0,0.0,0.0,0.0,0.0,0.0,0.0,0.0,0.0,0.0,0.0,0.0,0.0,0.0,0.0,0.0,0.0,0.0,0.0,0.0,0.0,0.0,0.0,0.0,0.0,0.0,0.0,0.0,0.0,0.0,0.0,0.0,0.0,0.0,0.0,0.0,0.0,0.0,0.0,0.0,0.0,0.0,0.0,0.0,0.0,0.0,0.0,0.0,0.0,0.0,0.0,0.0,0.0,0.0,0.0,0.0,0.0,0.0,0.0,0.0,0.0,0.0,0.0,0.0,-2.9529,-2.9218,-2.8407,-2.7383,-2.6172,0.0,0.0,0.0,0.0,0.0,0.0,0.0,0.0,0.0,0.0,0.0,0.0,0.0,0.0,0.0,0.0,0.0,0.0,0.0,0.0,0.0,0.0,0.0,0.0,0.0,0.0,0.0,0.0,0.0,0.0,0.0,0.0,0.0,0.0,0.0,0.0,0.0,0.0,0.0,0.0,0.0,0.0,0.0,0.0,0.0,0.0,0.0,0.0,0.0,0.0,0.0,0.0,0.0,0.0,0.0,0.0,0.0,0.0,0.0,0.0,0.0,0.0,0.0,0.0,0.0,0.0,0.0,0.0,0.0,0.0,0.0,0.0,0.0,0.0,0.0,0.0,0.0,0.0,0.0,0.0,0.0,0.0,0.0,0.0,0.0,0.0,0.0,0.0,0.0,0.0,0.0,0.0,0.0,0.0,0.0,0.0,0.0,0.0,0.0,0.0,0.0,0.0,0.0,0.0,0.0,0.0,0.0,0.0,0.0,0.0,0.0,0.0,-3.0042,-2.8721,-2.6935,0.0,0.0,0.0,0.0,0.0,0.0,0.0,0.0,0.0,0.0,0.0,0.0,0.0,0.0,0.0,0.0,0.0,0.0,0.0,0.0,0.0,0.0,0.0,0.0,0.0,0.0,0.0,0.0,0.0,0.0,0.0,0.0,0.0,0.0,0.0,0.0,0.0,0.0,0.0,0.0,0.0,0.0,0.0,0.0,0.0,0.0,0.0,0.0,0.0,0.0,0.0,0.0,0.0,0.0,0.0,0.0,0.0,0.0,0.0,0.0,0.0,0.0,0.0,0.0,0.0,0.0,0.0,0.0,0.0,0.0,0.0,0.0,0.0,0.0,0.0,0.0,0.0,0.0,0.0,0.0,0.0,0.0,0.0,0.0,0.0,0.0,0.0,0.0,0.0,0.0,0.0,0.0,0.0,0.0,0.0,0.0,0.0,0.0,0.0,0.0,0.0,0.0,0.0,0.0,0.0,0.0,0.0,0.0,0.0,0.0,-3.3109,-3.3276,-3.193,0.0,-2.6045,0.0,0.0,0.0,0.0,0.0,0.0,0.0,0.0,0.0,0.0,0.0,0.0,0.0,0.0,0.0,0.0,0.0,0.0,0.0,0.0,0.0,0.0,0.0,0.0,0.0,0.0,0.0,0.0,0.0,0.0,0.0,0.0,0.0,0.0,0.0,0.0,0.0,0.0,0.0,0.0,0.0,0.0,0.0,0.0,0.0,0.0,0.0,0.0,0.0,0.0,0.0,0.0,0.0,0.0,0.0,0.0,0.0,0.0,0.0,0.0,0.0,0.0,0.0,0.0,0.0,0.0,0.0,0.0,0.0,0.0,0.0,0.0,0.0,0.0,0.0,0.0,0.0,0.0,0.0,0.0,0.0,0.0,0.0,0.0,0.0,0.0,0.0,0.0,0.0,0.0,0.0,0.0,0.0,0.0,0.0,0.0,0.0,0.0,0.0,0.0,0.0,0.0,0.0,0.0,0.0,0.0,0.0,0.0,0.0,0.0,-3.4547,-3.4833,-3.3418,-3.1133,0.0,0.0,0.0,0.0,0.0,0.0,0.0,0.0,0.0,0.0,0.0,0.0,0.0,0.0,0.0,0.0,0.0,0.0,0.0,0.0,0.0,0.0,0.0,0.0,0.0,0.0,0.0,0.0,0.0,0.0,0.0,0.0,0.0,0.0,0.0,0.0,0.0,0.0,0.0,0.0,0.0,0.0,0.0,0.0,0.0,0.0,0.0,0.0,0.0,0.0,0.0,0.0,0.0,0.0,0.0,0.0,0.0,0.0,0.0,0.0,0.0,0.0,0.0,0.0,0.0,0.0,0.0,0.0,0.0,0.0,0.0,0.0,0.0,0.0,0.0,0.0,0.0,0.0,0.0,0.0,0.0,0.0,0.0,0.0,0.0,0.0,0.0,0.0,0.0,0.0,0.0,0.0,0.0,0.0,0.0,0.0,0.0,0.0,0.0,0.0,0.0,0.0,0.0,0.0,0.0,0.0,0.0,0.0,0.0,0.0,-3.5257,-3.5768,-3.5953,-3.4768,-3.2827,-3.0087,0.0,0.0,0.0,0.0,0.0,0.0,0.0,0.0,0.0,0.0,0.0,0.0,0.0,0.0,0.0,0.0,0.0,0.0,0.0,0.0,0.0,0.0,0.0,0.0,0.0,0.0,0.0,0.0,0.0,0.0,0.0,0.0,0.0,0.0,0.0,0.0,0.0,0.0,0.0,0.0,0.0,0.0,0.0,0.0,0.0,0.0,0.0,0.0,0.0,0.0,0.0,0.0,0.0,0.0,0.0,0.0,0.0,0.0,0.0,0.0,0.0,0.0,0.0,0.0,0.0,0.0,0.0,0.0,0.0,0.0,0.0,0.0,0.0,0.0,0.0,0.0,0.0,0.0,0.0,0.0,0.0,0.0,0.0,0.0,0.0,0.0,0.0,0.0,0.0,0.0,0.0,0.0,0.0,0.0,0.0,0.0,0.0,0.0,0.0,0.0,0.0,0.0,0.0,0.0,0.0,0.0,0.0,0.0,-3.559,-3.6375,-3.6765,-3.6825,-3.5974,-3.4347,0.0,0.0,0.0,0.0,0.0,0.0,0.0,0.0,0.0,0.0,0.0,0.0,0.0,0.0,0.0,0.0,0.0,0.0,0.0,0.0,0.0,0.0,0.0,0.0,0.0,0.0,0.0,0.0,0.0,0.0,0.0,0.0,0.0,0.0,0.0,0.0,0.0,0.0,0.0,0.0,0.0,0.0,0.0,0.0,0.0,0.0,0.0,0.0,0.0,0.0,0.0,0.0,0.0,0.0,0.0,0.0,0.0,0.0,0.0,0.0,0.0,0.0,0.0,0.0,0.0,0.0,0.0,0.0,0.0,0.0,0.0,0.0,0.0,0.0,0.0,0.0,0.0,0.0,0.0,0.0,0.0,0.0,0.0,0.0,0.0,0.0,0.0,0.0,0.0,0.0,0.0,0.0,0.0,0.0,0.0,0.0,0.0,0.0,0.0,0.0,0.0,0.0,0.0,0.0,0.0,0.0,0.0,0.0,0.0,-3.6579,-3.7719,-3.8207,-3.8033,-3.6794,-3.5157,0.0,0.0,0.0,0.0,0.0,0.0,0.0,0.0,0.0,0.0,0.0,0.0,0.0,0.0,0.0,0.0,0.0,0.0,0.0,0.0,0.0,0.0,0.0,0.0,0.0,0.0,0.0,0.0,0.0,0.0,0.0,0.0,0.0,0.0,0.0,0.0,0.0,0.0,0.0,0.0,0.0,0.0,0.0,0.0,0.0,0.0,0.0,0.0,0.0,0.0,0.0,0.0,0.0,0.0,0.0,0.0,0.0,0.0,0.0,0.0,0.0,0.0,0.0,0.0,0.0,0.0,0.0,0.0,0.0,0.0,0.0,0.0,0.0,0.0,0.0,0.0,0.0,0.0,0.0,0.0,0.0,0.0,0.0,0.0,0.0,0.0,0.0,0.0,0.0,0.0,0.0,0.0,0.0,0.0,0.0,0.0,0.0,0.0,0.0,0.0,0.0,0.0,0.0,0.0,0.0,0.0,0.0,0.0,0.0,-3.7926,0.0,-3.9473,-3.9147,-3.7455,-3.5873,0.0,0.0,0.0,0.0,0.0,0.0,0.0,0.0,0.0,0.0,0.0,0.0,0.0,0.0,0.0,0.0,0.0,0.0,0.0,0.0,0.0,0.0,0.0,0.0,0.0,0.0,0.0,0.0,0.0,0.0,0.0,0.0,0.0,0.0,0.0,0.0,0.0,0.0,0.0,0.0,0.0,0.0,0.0,0.0,0.0,0.0,0.0,0.0,0.0,0.0,0.0,0.0,0.0,0.0,0.0,0.0,0.0,0.0,0.0,0.0,0.0,0.0,0.0,0.0,0.0,0.0,0.0,0.0,0.0,0.0,0.0,0.0,0.0,0.0,0.0,0.0,0.0,0.0,0.0,0.0,0.0,0.0,0.0,0.0,0.0,0.0,0.0,0.0,0.0,0.0,0.0,0.0,0.0,0.0,0.0,0.0,0.0,0.0,0.0,0.0,0.0,0.0,0.0,0.0,0.0,0.0,0.0,0.0,-3.7187,-3.9535,-4.0313,-4.0494,-4.0164,-3.7967,-3.6456,0.0,0.0,0.0,0.0,0.0,0.0,0.0,0.0,0.0,0.0,0.0,0.0,0.0,0.0,0.0,0.0,0.0,0.0,0.0,0.0,0.0,0.0,0.0,0.0,0.0,0.0,0.0,0.0,0.0,0.0,0.0,0.0,0.0,0.0,0.0,0.0,0.0,0.0,0.0,0.0,0.0,0.0,0.0,0.0,0.0,0.0,0.0,0.0,0.0,0.0,0.0,0.0,0.0,0.0,0.0,0.0,0.0,0.0,0.0,0.0,0.0,0.0,0.0,0.0,0.0,0.0,0.0,0.0,0.0,0.0,0.0,0.0,0.0,0.0,0.0,0.0,0.0,0.0,0.0,0.0,0.0,0.0,0.0,0.0,0.0,0.0,0.0,0.0,0.0,0.0,0.0,0.0,0.0,0.0,0.0,0.0,0.0,0.0,0.0,0.0,0.0,0.0,0.0,0.0,0.0,0.0,0.0,0.0,0.0,-3.8879,-4.011,-4.0632,-4.0292,-3.8174,-3.667,0.0,0.0,0.0,0.0,0.0,0.0,0.0,0.0,0.0,0.0,0.0,0.0,0.0,0.0,0.0,0.0,0.0,0.0,0.0,0.0,0.0,0.0,0.0,0.0,0.0,0.0,0.0,0.0,0.0,0.0,0.0,0.0,0.0,0.0,0.0,0.0,0.0,0.0,0.0,0.0,0.0,0.0,0.0,0.0,0.0,0.0,0.0,0.0,0.0,0.0,0.0,0.0,0.0,0.0,0.0,0.0,0.0,0.0,0.0,0.0,0.0,0.0,0.0,0.0,0.0,0.0,0.0,0.0,0.0,0.0,0.0,0.0,0.0,0.0,0.0,0.0,0.0,0.0,0.0,0.0,0.0,0.0,0.0,0.0,0.0,0.0,0.0,0.0,0.0,0.0,0.0,0.0,0.0,0.0,0.0,0.0,0.0,0.0,0.0,0.0,0.0,0.0,0.0,0.0,0.0,0.0,0.0,0.0,0.0,-3.8086,-3.988,-4.061,-4.0037,-3.8169,-3.6716,-3.5698,0.0,0.0,0.0,0.0,0.0,0.0,0.0,0.0,0.0,0.0,0.0,0.0,0.0,0.0,0.0,0.0,0.0,0.0,0.0,0.0,0.0,0.0,0.0,0.0,0.0,0.0,0.0,0.0,0.0,0.0,0.0,0.0,0.0,0.0,0.0,0.0,0.0,0.0,0.0,0.0,0.0,0.0,0.0,0.0,0.0,0.0,0.0,0.0,0.0,0.0,0.0,0.0,0.0,0.0,0.0,0.0,0.0,0.0,0.0,0.0,0.0,0.0,0.0,0.0,0.0,0.0,0.0,0.0,0.0,0.0,0.0,0.0,0.0,0.0,0.0,0.0,0.0,0.0,0.0,0.0,0.0,0.0,0.0,0.0,0.0,0.0,0.0,0.0,0.0,0.0,0.0,0.0,0.0,0.0,0.0,0.0,0.0,0.0,0.0,0.0,0.0,0.0,0.0,0.0,0.0,0.0,0.0,0.0,-3.7121,-3.9511,-4.0311,-3.9335,-3.7978,-3.6611,0.0,0.0,0.0,0.0,0.0,0.0,0.0,0.0,0.0,0.0,0.0,0.0,0.0,0.0,0.0,0.0,0.0,0.0,0.0,0.0,0.0,0.0,0.0,0.0,0.0,0.0,0.0,0.0,0.0,0.0,0.0,0.0,0.0,0.0,0.0,0.0,0.0,0.0,0.0,0.0,0.0,0.0,0.0,0.0,0.0,0.0,0.0,0.0,0.0,0.0,0.0,0.0,0.0,0.0,0.0,0.0,0.0,0.0,0.0,0.0,0.0,0.0,0.0,0.0,0.0,0.0,0.0,0.0,0.0,0.0,0.0,0.0,0.0,0.0,0.0,0.0,0.0,0.0,0.0,0.0,0.0,0.0,0.0,0.0,0.0,0.0,0.0,0.0,0.0,0.0,0.0,0.0,0.0,0.0,0.0,0.0,0.0,0.0,0.0,0.0,0.0,0.0,0.0,0.0,0.0,0.0,0.0,0.0,0.0,-3.6236,-3.7496,-3.83,-3.8466,-3.7244,-3.6158,0.0,0.0,0.0,0.0,0.0,0.0,0.0,0.0,0.0,0.0,0.0,0.0,0.0,0.0,0.0,0.0,0.0,0.0,0.0,0.0,0.0,0.0,0.0,0.0,0.0,0.0,0.0,0.0,0.0,0.0,0.0,0.0,0.0,0.0,0.0,0.0,0.0,0.0,0.0,0.0,0.0,0.0,0.0,0.0,0.0,0.0,0.0,0.0,0.0,0.0,0.0,0.0,0.0,0.0,0.0,0.0,0.0,0.0,0.0,0.0,0.0,0.0,0.0,0.0,0.0,0.0,0.0,0.0,0.0,0.0,0.0,0.0,0.0,0.0,0.0,0.0,0.0,0.0,0.0,0.0,0.0,0.0,0.0,0.0,0.0,0.0,0.0,0.0,0.0,0.0,0.0,0.0,0.0,0.0,0.0,0.0,0.0,0.0,0.0,0.0,0.0,0.0,0.0,0.0,0.0,0.0,0.0,0.0,-3.6137,-3.5286,-3.5813,-3.6118,-3.6107,-3.596,-3.556,0.0,0.0,0.0,0.0,0.0,0.0,0.0,0.0,0.0,0.0,0.0,0.0,0.0,0.0,0.0,0.0,0.0,0.0,0.0,0.0,0.0,0.0,0.0,0.0,0.0,0.0,0.0,0.0,0.0,0.0,0.0,0.0,0.0,0.0,0.0,0.0,0.0,0.0,0.0,0.0,0.0,0.0,0.0,0.0,0.0,0.0,0.0,0.0,0.0,0.0,0.0,0.0,0.0,0.0,0.0,0.0,0.0,0.0,0.0,0.0,0.0,0.0,0.0,0.0,0.0,0.0,0.0,0.0,0.0,0.0,0.0,0.0,0.0,0.0,0.0,0.0,0.0,0.0,0.0,0.0,0.0,0.0,0.0,0.0,0.0,0.0,0.0,0.0,0.0,0.0,0.0,0.0,0.0,0.0,0.0,0.0,0.0,0.0,0.0,0.0,0.0,0.0,0.0,0.0,0.0,0.0,0.0,0.0,-3.5337,-3.44,-3.4413,-3.4012,-3.3144,-3.4335,-3.4782,0.0,0.0,0.0,0.0,0.0,0.0,0.0,0.0,0.0,0.0,0.0,0.0,0.0,0.0,0.0,0.0,0.0,0.0,0.0,0.0,0.0,0.0,0.0,0.0,0.0,0.0,0.0,0.0,0.0,0.0,0.0,0.0,0.0,0.0,0.0,0.0,0.0,0.0,0.0,0.0,0.0,0.0,0.0,0.0,0.0,0.0,0.0,0.0,0.0,0.0,0.0,0.0,0.0,0.0,0.0,0.0,0.0,0.0,0.0,0.0,0.0,0.0,0.0,0.0,0.0,0.0,0.0,0.0,0.0,0.0,0.0,0.0,0.0,0.0,0.0,0.0,0.0,0.0,0.0,0.0,0.0,0.0,0.0,0.0,0.0,0.0,0.0,0.0,0.0,0.0,0.0,0.0,0.0,0.0,0.0,0.0,0.0,0.0,0.0,0.0,0.0,0.0,0.0,0.0,0.0,0.0,0.0,0.0,-3.5057,-3.3544,-3.3476,-3.3083,-3.2202,-3.2917,-3.3364,0.0,0.0,0.0,0.0,0.0,0.0,0.0,0.0,0.0,0.0,0.0,0.0,0.0,0.0,0.0,0.0,0.0,0.0,0.0,0.0,0.0,0.0,0.0,0.0,0.0,0.0,0.0,0.0,0.0,0.0,0.0,0.0,0.0,0.0,0.0,0.0,0.0,0.0,0.0,0.0,0.0,0.0,0.0,0.0,0.0,0.0,0.0,0.0,-3.4638,0.0,0.0,0.0,0.0,0.0,0.0,0.0,0.0,0.0,0.0,0.0,0.0,0.0,0.0,0.0,0.0,0.0,0.0,0.0,0.0,0.0,0.0,0.0,0.0,0.0,0.0,0.0,0.0,0.0,0.0,0.0,0.0,0.0,0.0,0.0,0.0,0.0,0.0,0.0,0.0,0.0,0.0,0.0,0.0,0.0,0.0,0.0,0.0,0.0,0.0,0.0,0.0,0.0,0.0,0.0,0.0,0.0,0.0,0.0,-3.4579,-3.3289,-3.2861,-3.2206,-3.1401,-3.1914,-3.2521,0.0,0.0,0.0,0.0,0.0,0.0,0.0,0.0,0.0,0.0,0.0,0.0,0.0,0.0,0.0,0.0,0.0,0.0,0.0,0.0,0.0,0.0,0.0,0.0,0.0,0.0,0.0,0.0,0.0,0.0,0.0,0.0,0.0,0.0,0.0,0.0,0.0,0.0,0.0,0.0,0.0,0.0,0.0,0.0,0.0,0.0,0.0,0.0,0.0,0.0,0.0,0.0,0.0,0.0,0.0,0.0,0.0,0.0,0.0,0.0,0.0,0.0,0.0,0.0,0.0,0.0,0.0,0.0,0.0,0.0,0.0,0.0,0.0,0.0,0.0,0.0,0.0,0.0,0.0,0.0,0.0,0.0,0.0,0.0,0.0,0.0,0.0,0.0,0.0,0.0,0.0,0.0,0.0,0.0,0.0,0.0,0.0,0.0,0.0,0.0,0.0,0.0,0.0,0.0,0.0,0.0,0.0,-3.4969,-3.4101,-3.3133,-3.2383,-3.1601,-3.0741,-3.1422,-3.2124,-3.2864,0.0,0.0,0.0,0.0,0.0,0.0,0.0,0.0,0.0,0.0,0.0,0.0,0.0,0.0,0.0,0.0,0.0,0.0,0.0,0.0,0.0,0.0,0.0,0.0,0.0,0.0,0.0,0.0,0.0,0.0,0.0,0.0,0.0,0.0,0.0,0.0,0.0,0.0,-3.9394,-4.0868,0.0,0.0,0.0,0.0,0.0,0.0,0.0,0.0,-3.5499,0.0,0.0,0.0,0.0,0.0,0.0,0.0,0.0,0.0,0.0,0.0,0.0,0.0,0.0,0.0,0.0,0.0,0.0,0.0,0.0,0.0,0.0,0.0,0.0,0.0,0.0,0.0,0.0,0.0,0.0,0.0,0.0,0.0,0.0,0.0,0.0,0.0,0.0,0.0,0.0,0.0,0.0,0.0,0.0,0.0,0.0,0.0,0.0,0.0,0.0,0.0,0.0,0.0,0.0,0.0,0.0,-3.4812,-3.4671,-3.3835,-3.2273,-3.2069,-3.1588,-3.0781,-3.1942,-3.2417,-3.2013,0.0,0.0,0.0,0.0,0.0,0.0,0.0,0.0,0.0,0.0,0.0,0.0,0.0,0.0,0.0,0.0,0.0,0.0,0.0,0.0,0.0,0.0,0.0,0.0,0.0,0.0,0.0,0.0,0.0,0.0,0.0,0.0,0.0,0.0,0.0,0.0,0.0,0.0,0.0,-4.1838,-4.2411,0.0,0.0,0.0,0.0,0.0,0.0,0.0,0.0,-3.6771,0.0,0.0,0.0,0.0,0.0,0.0,0.0,0.0,0.0,0.0,0.0,0.0,0.0,0.0,0.0,0.0,0.0,0.0,0.0,0.0,0.0,0.0,0.0,0.0,0.0,0.0,0.0,0.0,0.0,0.0,0.0,0.0,0.0,0.0,0.0,0.0,0.0,0.0,0.0,0.0,0.0,0.0,0.0,0.0,0.0,0.0,0.0,0.0,0.0,0.0,0.0,0.0,0.0,0.0,0.0,-3.4685,-3.4189,-3.3351,-3.2088,-3.1609,-3.1143,-3.0693,-3.1977,-3.2374,0.0,0.0,0.0,0.0,0.0,0.0,0.0,0.0,0.0,0.0,0.0,0.0,0.0,0.0,0.0,0.0,0.0,0.0,0.0,0.0,0.0,0.0,0.0,0.0,0.0,0.0,0.0,0.0,0.0,0.0,0.0,0.0,0.0,0.0,0.0,0.0,0.0,0.0,0.0,0.0,-4.2762,-4.3461,-4.2723,0.0,0.0,0.0,0.0,0.0,0.0,-3.7838,-3.7336,0.0,0.0,0.0,0.0,0.0,0.0,0.0,0.0,0.0,0.0,0.0,0.0,0.0,0.0,0.0,0.0,0.0,0.0,0.0,0.0,0.0,0.0,0.0,0.0,0.0,0.0,0.0,0.0,0.0,0.0,0.0,0.0,0.0,0.0,0.0,0.0,0.0,0.0,0.0,0.0,0.0,0.0,0.0,0.0,0.0,0.0,0.0,0.0,0.0,0.0,0.0,0.0,0.0,0.0,0.0,-3.4433,-3.3584,-3.2719,-3.1867,-3.1155,-3.0742,-3.0629,-3.1893,-3.226,0.0,0.0,0.0,0.0,0.0,0.0,0.0,0.0,0.0,0.0,0.0,0.0,0.0,0.0,0.0,0.0,0.0,0.0,0.0,0.0,0.0,0.0,0.0,0.0,0.0,0.0,0.0,0.0,0.0,0.0,0.0,0.0,0.0,0.0,0.0,0.0,0.0,0.0,0.0,0.0,0.0,-4.4266,-4.3929,-4.3563,0.0,0.0,0.0,0.0,-3.9157,-3.8469,0.0,0.0,0.0,0.0,0.0,0.0,0.0,0.0,0.0,0.0,0.0,0.0,0.0,0.0,0.0,0.0,0.0,0.0,0.0,0.0,0.0,0.0,0.0,0.0,0.0,0.0,0.0,0.0,0.0,0.0,0.0,0.0,0.0,0.0,0.0,0.0,0.0,0.0,0.0,0.0,0.0,0.0,0.0,0.0,0.0,0.0,0.0,0.0,0.0,0.0,0.0,0.0,0.0,0.0,0.0,0.0,-3.3548,-3.2692,-3.1838,-3.1014,-3.0836,-3.0736,-3.0618,-3.1853,-3.2186,0.0,0.0,0.0,0.0,0.0,0.0,0.0,0.0,0.0,0.0,0.0,0.0,0.0,0.0,0.0,0.0,0.0,0.0,0.0,0.0,0.0,0.0,0.0,0.0,0.0,0.0,0.0,0.0,0.0,0.0,0.0,0.0,0.0,0.0,0.0,0.0,0.0,0.0,0.0,0.0,0.0,-4.4266,-4.3929,-4.3563,-4.3105,0.0,0.0,-4.1525,-4.0948,-4.05,0.0,0.0,0.0,0.0,0.0,0.0,0.0,0.0,0.0,0.0,0.0,0.0,0.0,0.0,0.0,0.0,0.0,0.0,0.0,0.0,0.0,0.0,0.0,0.0,0.0,0.0,0.0,0.0,0.0,0.0,0.0,0.0,0.0,0.0,0.0,0.0,0.0,0.0,0.0,0.0,0.0,0.0,0.0,0.0,0.0,0.0,0.0,0.0,0.0,0.0,0.0,0.0,0.0,0.0,0.0,-3.4094,-3.335,-3.2518,-3.1659,-3.0836,-3.0799,-3.071,-3.0541,-3.1768,-3.2107,0.0,0.0,0.0,0.0,0.0,0.0,0.0,0.0,0.0,0.0,0.0,0.0,0.0,0.0,0.0,0.0,0.0,0.0,0.0,0.0,0.0,0.0,0.0,0.0,0.0,0.0,0.0,0.0,0.0,0.0,0.0,0.0,0.0,0.0,0.0,0.0,0.0,0.0,0.0,0.0,0.0,0.0,-4.4005,-4.3649,0.0,0.0,0.0,-4.1831,-4.1391,0.0,0.0,0.0,0.0,0.0,0.0,0.0,0.0,0.0,0.0,0.0,0.0,0.0,0.0,0.0,0.0,0.0,0.0,0.0,0.0,0.0,0.0,0.0,0.0,0.0,0.0,0.0,0.0,0.0,0.0,0.0,0.0,0.0,0.0,0.0,0.0,0.0,0.0,0.0,0.0,0.0,0.0,0.0,0.0,0.0,0.0,0.0,0.0,0.0,0.0,0.0,0.0,0.0,0.0,0.0,0.0,0.0,-3.3278,-3.2285,-3.1461,-3.0818,-3.0801,-3.0672,-3.0506,-3.15,0.0,0.0,0.0,0.0,0.0,0.0,0.0,0.0,0.0,0.0,0.0,0.0,0.0,0.0,0.0,0.0,0.0,0.0,0.0,0.0,0.0,0.0,0.0,0.0,0.0,0.0,0.0,-3.4903,0.0,0.0,0.0,0.0,0.0,0.0,0.0,0.0,0.0,0.0,0.0,0.0,0.0,0.0,-4.4371,-4.4296,-4.4011,-4.3705,0.0,0.0,-4.2303,-4.185,-4.1209,-4.0631,0.0,0.0,0.0,0.0,0.0,0.0,0.0,0.0,0.0,0.0,0.0,0.0,0.0,0.0,0.0,0.0,0.0,0.0,0.0,0.0,0.0,0.0,0.0,0.0,0.0,0.0,0.0,0.0,0.0,0.0,0.0,0.0,0.0,0.0,0.0,0.0,0.0,0.0,0.0,0.0,0.0,0.0,0.0,0.0,0.0,0.0,0.0,0.0,0.0,0.0,0.0,0.0,0.0,0.0,-3.3073,-3.316,-3.1679,-3.0875,-3.0796,-3.0739,-3.0611,-3.0433,-3.0844,-3.1186,0.0,0.0,0.0,0.0,0.0,0.0,0.0,0.0,0.0,0.0,0.0,0.0,0.0,0.0,0.0,0.0,0.0,0.0,0.0,0.0,0.0,0.0,0.0,0.0,0.0,0.0,0.0,0.0,0.0,0.0,0.0,0.0,0.0,0.0,0.0,0.0,0.0,0.0,0.0,0.0,0.0,-4.4517,-4.5058,-4.4841,-4.4748,0.0,-4.4132,-4.3248,-4.2847,-4.1834,-4.0953,-4.0517,0.0,0.0,0.0,0.0,0.0,0.0,0.0,0.0,0.0,0.0,0.0,0.0,0.0,0.0,0.0,0.0,0.0,0.0,0.0,0.0,0.0,0.0,0.0,0.0,0.0,0.0,0.0,0.0,0.0,0.0,0.0,0.0,0.0,0.0,0.0,0.0,0.0,0.0,0.0,0.0,0.0,0.0,0.0,0.0,0.0,0.0,0.0,0.0,0.0,0.0,0.0,0.0,0.0,-3.2813,-3.3052,-3.1546,-3.0759,-3.0802,-3.073,-3.0613,-3.0394,-3.0791,-3.0865,0.0,0.0,0.0,0.0,0.0,0.0,0.0,0.0,0.0,0.0,0.0,0.0,0.0,0.0,0.0,0.0,0.0,0.0,0.0,0.0,0.0,0.0,0.0,0.0,0.0,0.0,0.0,0.0,-3.6812,-3.7124,-3.7163,0.0,0.0,0.0,0.0,0.0,0.0,0.0,0.0,0.0,0.0,-4.4364,-4.5055,-4.4812,0.0,0.0,-4.4653,-4.3914,-4.3156,-4.2409,-4.1678,-4.0957,-4.0453,0.0,0.0,0.0,0.0,0.0,0.0,0.0,0.0,0.0,0.0,0.0,0.0,0.0,0.0,0.0,0.0,0.0,0.0,0.0,0.0,0.0,0.0,0.0,0.0,0.0,0.0,0.0,0.0,0.0,0.0,0.0,0.0,0.0,0.0,0.0,0.0,0.0,0.0,0.0,0.0,0.0,0.0,0.0,0.0,0.0,0.0,0.0,0.0,0.0,0.0,0.0,0.0,-3.2661,-3.2916,-3.1445,-3.0697,-3.0773,-3.0464,-3.0292,-3.0329,-3.0274,-3.0227,0.0,0.0,0.0,0.0,0.0,0.0,0.0,0.0,0.0,0.0,0.0,0.0,0.0,0.0,0.0,0.0,0.0,0.0,0.0,0.0,0.0,0.0,0.0,0.0,0.0,0.0,0.0,0.0,-3.7526,-3.7838,-3.7856,0.0,0.0,0.0,0.0,0.0,0.0,0.0,0.0,0.0,0.0,-4.4239,-4.4905,-4.4707,-4.4655,-4.5164,-4.4683,-4.4003,-4.3217,-4.2507,-4.1824,-4.1227,0.0,0.0,0.0,0.0,0.0,0.0,0.0,0.0,0.0,0.0,0.0,0.0,0.0,0.0,0.0,0.0,0.0,0.0,0.0,0.0,0.0,0.0,0.0,0.0,0.0,0.0,0.0,0.0,0.0,0.0,-3.5951,0.0,0.0,0.0,0.0,0.0,0.0,0.0,0.0,0.0,0.0,0.0,0.0,0.0,0.0,0.0,0.0,0.0,0.0,0.0,0.0,0.0,0.0,-3.2463,-3.2775,-3.1362,-3.0637,-3.068,-2.9819,-2.9641,-3.0171,-2.9144,-2.9101,-3.0226,0.0,0.0,0.0,0.0,0.0,0.0,0.0,0.0,0.0,0.0,0.0,0.0,0.0,0.0,0.0,0.0,0.0,0.0,0.0,0.0,0.0,0.0,0.0,0.0,0.0,0.0,-3.84,-3.8392,-3.8378,0.0,0.0,0.0,0.0,0.0,0.0,0.0,0.0,0.0,0.0,-4.3515,-4.4188,-4.4736,-4.4636,-4.4617,-4.5025,-4.4253,-4.3433,-4.3146,-4.2068,-4.1198,0.0,0.0,0.0,0.0,0.0,0.0,0.0,0.0,0.0,0.0,0.0,0.0,0.0,0.0,0.0,0.0,0.0,0.0,0.0,0.0,0.0,0.0,0.0,0.0,0.0,0.0,0.0,-3.8561,-3.7968,0.0,0.0,0.0,0.0,0.0,0.0,0.0,0.0,0.0,0.0,0.0,-3.4003,-3.4565,0.0,0.0,0.0,0.0,0.0,0.0,0.0,0.0,0.0,0.0,0.0,0.0,-3.2403,-3.2647,-3.1268,-3.0549,-3.0557,-3.0259,-3.0122,-3.019,-2.9614,-2.919,-2.8964,0.0,0.0,0.0,0.0,0.0,0.0,0.0,0.0,0.0,0.0,0.0,0.0,0.0,0.0,0.0,0.0,0.0,0.0,0.0,0.0,0.0,0.0,0.0,0.0,0.0,-3.8322,0.0,0.0,0.0,0.0,0.0,0.0,0.0,0.0,0.0,0.0,0.0,-4.2674,-4.3441,-4.368,-4.3959,-4.4651,-4.4474,-4.4445,0.0,0.0,0.0,0.0,0.0,0.0,0.0,0.0,0.0,0.0,0.0,0.0,0.0,0.0,-4.0866,-4.0571,-4.0436,-4.0387,-4.0534,0.0,0.0,0.0,0.0,0.0,0.0,0.0,0.0,0.0,0.0,0.0,0.0,0.0,0.0,-3.8116,0.0,-3.6995,0.0,0.0,0.0,0.0,0.0,0.0,0.0,0.0,-3.3991,-3.3673,-3.3262,-3.3806,-3.407,0.0,-3.4427,-3.4557,0.0,0.0,0.0,0.0,0.0,0.0,0.0,0.0,-3.237,-3.2592,-3.1205,-3.0471,-3.0433,-3.0171,-3.0052,-3.0122,-2.9713,-2.9,-2.7993,-2.824,-2.8204,0.0,0.0,0.0,0.0,0.0,0.0,0.0,0.0,0.0,0.0,0.0,0.0,0.0,0.0,0.0,0.0,0.0,0.0,0.0,0.0,0.0,0.0,0.0,-3.8307,0.0,0.0,0.0,0.0,0.0,0.0,0.0,0.0,0.0,-4.1699,-4.2279,-4.2926,-4.3656,-4.3649,-4.3716,-4.4071,0.0,0.0,0.0,0.0,0.0,0.0,0.0,-4.1818,-4.1267,-4.0965,-4.0728,-4.0697,-4.0485,-4.0404,-4.0455,0.0,0.0,-4.0571,-4.0658,-4.0694,-4.0519,-4.0485,-4.0468,-4.0385,-4.0353,-4.032,0.0,0.0,0.0,0.0,0.0,0.0,0.0,0.0,-3.7652,-3.7294,0.0,-3.7156,0.0,0.0,0.0,0.0,0.0,-3.4312,0.0,0.0,-3.3483,-3.318,-3.319,-3.3229,-3.3268,-3.3243,-3.318,-3.35,-3.4145,-3.441,0.0,0.0,0.0,0.0,0.0,0.0,-3.2333,-3.2546,-3.1149,-3.0402,-3.0386,-2.9579,-2.9411,-2.9882,-2.9325,-2.8448,-2.7362,-2.7583,-2.7801,-2.793,-2.747,0.0,0.0,0.0,0.0,0.0,0.0,0.0,0.0,0.0,0.0,0.0,0.0,0.0,0.0,0.0,0.0,0.0,0.0,0.0,0.0,-3.814,0.0,0.0,0.0,0.0,0.0,0.0,0.0,0.0,0.0,0.0,-4.239,-4.2488,-4.2746,-4.3422,0.0,0.0,0.0,0.0,-4.2786,-4.249,-4.2246,-4.1995,-4.1666,-4.1426,-4.118,-4.1093,0.0,0.0,-4.0697,-4.0583,-4.0485,-4.0485,-4.0389,-4.0372,-4.0436,-4.0965,-4.1221,-4.0622,-4.0419,-4.0402,-4.0136,-4.007,-3.9986,-4.0081,0.0,0.0,0.0,0.0,-3.8899,-3.8516,-3.7959,-3.7795,-3.7386,-3.6849,-3.6799,0.0,0.0,0.0,0.0,0.0,0.0,-3.3635,-3.2681,-3.2427,-3.2065,-3.1535,-3.2154,-3.2443,-3.2459,-3.3,-3.3322,-3.3477,-3.3422,-3.3805,-3.4674,0.0,0.0,0.0,0.0,-3.2352,-3.2425,-3.1082,-3.0305,-3.0254,-3.0004,-2.9531,-2.8798,-2.7823,-2.6999,-2.6405,-2.6792,-2.6854,-2.6507,-2.7094,0.0,0.0,0.0,0.0,0.0,0.0,0.0,0.0,0.0,0.0,0.0,0.0,0.0,0.0,0.0,0.0,0.0,0.0,0.0,-3.7882,-3.7987,-3.8003,0.0,0.0,0.0,0.0,0.0,0.0,0.0,0.0,0.0,-4.2813,-4.2992,-4.3135,0.0,0.0,-4.3105,-4.2975,-4.2783,-4.2548,-4.2369,-4.2181,0.0,-4.1648,-4.1363,-4.1163,-4.1093,-4.0905,-4.0714,-4.0504,-4.0438,-4.0337,-4.0238,-4.0527,-4.0662,-4.0172,-4.0189,-4.029,-4.0088,-3.9986,-3.9918,-3.985,-3.9713,-3.9642,-3.995,-3.9802,-3.975,-3.9272,-3.8517,-3.8266,-3.7704,-3.6929,-3.6644,-3.606,-3.5308,-3.5276,-3.4932,-3.4426,-3.4376,0.0,0.0,0.0,-3.2895,-3.2034,-3.1682,-3.127,-3.0894,-3.1361,-3.1612,-3.1667,-3.2092,-3.2465,-3.2726,-3.2568,-3.3017,-3.3999,0.0,0.0,-3.4674,-3.3129,-3.2406,-3.2469,-3.103,-3.0194,-3.0147,-3.0045,-2.9406,-2.824,-2.7754,-2.7164,-2.6476,-2.6907,-2.69,-2.6461,-2.686,-2.7095,0.0,0.0,0.0,0.0,0.0,0.0,0.0,0.0,0.0,0.0,0.0,-3.0576,-3.1736,0.0,0.0,0.0,-3.6299,-3.7354,-3.7667,-3.7775,0.0,0.0,0.0,0.0,0.0,0.0,0.0,-4.1877,-4.21,-4.2338,-4.2826,-4.2975,-4.3032,-4.3142,-4.305,-4.292,-4.2862,0.0,-4.2364,-4.2246,-4.2055,-4.1797,-4.1515,-4.13,-4.1134,-4.0935,-4.0697,-4.0502,-4.0406,-4.0289,-4.0087,-4.0071,-4.0289,-4.0354,-3.9917,-3.9798,-3.9746,-3.9781,-3.9781,-3.9677,-3.9573,-3.9468,-3.9379,-3.9367,-3.9278,-3.9108,-3.8632,-3.7938,-3.7224,-3.6455,-3.5666,-3.4863,-3.4075,-3.3323,-3.331,-3.323,-3.3111,-3.3114,0.0,-3.3077,-3.2333,-3.2001,-3.1962,-3.1168,-3.0839,-3.0898,-3.0918,-3.0918,-3.0897,-3.0845,-3.1175,-3.1885,-3.1838,-3.2154,-3.2814,-3.3299,-3.392,-3.4604,-3.3183,-3.2439,-3.2469,-3.0918,-3.0094,-3.0045,-2.9746,-2.9083,-2.8024,-2.8452,-2.8124,-2.7048,-2.7437,-2.7507,-2.7126,-2.6791,-2.6788,-2.7094,0.0,0.0,0.0,0.0,0.0,0.0,0.0,0.0,0.0,0.0,0.0,0.0,0.0,0.0,0.0,-3.5828,0.0,-3.7354,-3.7559,0.0,0.0,0.0,-3.9584,-4.1223,-4.136,-4.1683,-4.2498,0.0,0.0,-4.2609,-4.2609,-4.2727,-4.303,-4.2974,-4.2842,-4.2783,-4.2508,-4.2246,-4.2103,-4.1909,-4.1648,-4.1318,-4.1163,-4.1041,-4.0745,-4.0436,-4.0305,-4.0289,-4.0088,-3.9884,-3.9782,-3.9713,-3.9694,-3.9677,-3.959,-3.9501,-3.9625,-3.9625,-3.9573,-3.9309,-3.9272,-3.9094,-3.821,-3.7674,-3.7628,-3.7463,-3.7249,-3.7113,-3.6612,-3.5845,-3.5626,-3.5065,-3.4277,-3.4282,-3.3892,-3.3254,-3.3247,-3.2927,-3.2352,-3.2168,-3.1711,-3.1113,-3.0957,-3.0879,-3.0897,-3.0918,-3.0918,-3.0898,-3.0895,-3.0962,-3.1077,-3.1028,-3.1358,-3.2029,-3.2083,-3.245,-3.3111,-3.2754,-3.2241,-3.1613,-3.0551,-2.9921,-2.9734,-2.8896,-2.827,-2.7853,-2.7141,-2.6525,-2.6063,-2.6503,-2.6591,-2.6327,-2.6635,-2.6742,-2.6509,-2.6965,0.0,0.0,0.0,0.0,0.0,0.0,0.0,0.0,0.0,-3.0665,-3.1148,0.0,-3.2739,0.0,-3.5784,-3.7087,-3.7147,-3.7317,0.0,0.0,-3.9135,-3.9979,-4.0998,-4.1761,-4.2289,-4.2508,-4.2588,-4.2609,-4.2609,-4.2609,-4.2609,-4.2688,-4.2627,-4.2606,-4.2584,-4.2328,-4.2121,-4.2012,-4.1797,-4.156,-4.1255,-4.1012,-4.0728,-4.0453,-4.0238,-4.0138,-3.9952,-3.9833,-3.9696,-3.9577,-3.9575,-3.952,-3.9537,-3.9448,-3.9325,-3.9202,-3.9185,-3.9131,-3.9094,-3.8947,-3.8727,-3.7545,-3.7105,-3.6761,-3.6573,-3.654,-3.6566,-3.6119,-3.5388,-3.5368,-3.4663,-3.3448,-3.3102,-3.2695,-3.2246,-3.2231,-3.2001,-3.1573,-3.1576,-3.1306,-3.0859,-3.0879,-3.0703,-3.0331,-3.0332,-3.0117,-2.9746,-2.9741,-2.9713,-2.9676,-2.9976,-3.0289,-3.0701,-3.1287,-3.1571,-3.1546,-3.1854,-3.1768,-3.126,-3.0324,-2.9753,-2.9494,-2.8869,-2.8436,-2.8205,-2.7459,-2.6897,-2.6658,-2.6784,-2.6714,-2.6519,-2.6655,-2.664,-2.6399,-2.6829,-2.7273,0.0,0.0,0.0,0.0,0.0,0.0,0.0,0.0,0.0,0.0,0.0,-3.2671,-3.4271,-3.5792,-3.6753,-3.6952,-3.7087,-3.7623,-3.8775,-3.939,-4.0157,-4.1345,-4.1967,-4.2317,-4.2335,-4.2341,-4.2346,-4.2346,-4.2364,-4.2328,-4.2346,-4.2282,-4.2282,-4.2364,-4.2121,-4.1866,-4.1797,-4.1604,-4.1363,-4.1088,-4.071,-4.0387,-4.0238,-4.0037,-3.985,-3.9697,-3.9644,-3.954,-3.9473,-3.9365,-3.9255,-3.9272,-3.9148,-3.9023,-3.8914,-3.8805,-3.8766,-3.8821,-3.8672,-3.8464,-3.7049,-3.6962,-3.6294,-3.6005,-3.5986,-3.5924,-3.5524,-3.4846,-3.4739,-3.3719,-3.2049,-3.1249,-3.0917,-3.0915,-3.0915,-3.0915,-3.0896,-3.0876,-3.0877,-3.0878,-3.0879,-3.0449,-2.9609,-2.9609,-2.914,-2.8319,-2.8293,-2.8259,-2.8223,-2.8904,-2.9278,-2.9375,-3.0632,-3.0919,-3.0278,-3.0807,-3.1094,-3.0989,-3.0149,-2.957,-2.9372,-2.9166,-2.8943,-2.8669,-2.8335,-2.8035,-2.7777,-2.7509,-2.7279,-2.707,-2.6759,-2.6572,-2.6502,-2.6783,-2.7257,0.0,-2.8388,0.0,0.0,0.0,0.0,0.0,0.0,0.0,0.0,-3.1765,-3.2966,-3.4816,-3.5776,-3.6426,-3.669,-3.6851,-3.7567,-3.9095,-3.9353,-4.0047,-4.1644,-4.1839,-4.1874,-4.1998,-4.198,-4.1945,-4.1945,-4.1962,-4.1962,-4.1962,-4.1945,-4.1987,-4.2121,-4.1866,-4.1604,-4.156,-4.13,-4.1041,-4.0823,-4.037,-4.0121,-4.0037,-3.9833,-3.9592,-3.9508,-3.9418,-3.9362,-3.9226,-3.9098,-3.8969,-3.8969,-3.8914,-3.8805,-3.8766,-3.8544,-3.8448,-3.8504,-3.8448,-3.8278,-3.6187,-3.6216,-3.6064,-3.6005,-3.6005,-3.5981,-3.5903,-3.5697,-3.5009,-3.3738,-3.2069,-3.125,-3.0918,-3.0918,-3.0918,-3.0918,-3.0879,-3.084,-3.082,-3.082,-3.0878,-3.0448,-2.9628,-2.9608,-2.9157,-2.8333,-2.8289,-2.8257,-2.8193,-2.835,-2.8722,-2.9284,-2.9467,-2.9802,-3.026,0.0,0.0,0.0,-2.9683,-2.9433,-2.9243,-2.898,-2.8718,-2.8458,-2.8164,0.0,-2.7587,-2.7338,-2.7085,-2.6791,-2.6691,0.0,0.0,0.0,0.0,0.0,0.0,0.0,0.0,0.0,0.0,0.0,-3.0076,-3.0212,-3.0418,-3.2033,-3.3263,-3.376,-3.5257,-3.6251,-3.6385,-3.6527,-3.7015,-3.8011,-3.8233,-3.8929,-4.042,-4.0735,-4.1006,-4.1596,-4.1648,-4.1648,-4.1578,-4.171,-4.1631,-4.1561,-4.156,-4.1533,-4.1507,-4.1507,-4.1498,-4.1318,-4.0977,-4.068,-4.0337,-4.0121,-3.9986,-3.9833,-3.9573,-3.9362,-3.9292,-3.9115,-3.8914,-3.8882,-3.8843,-3.886,-3.8805,-3.8805,-3.8694,-3.8504,-3.8448,-3.8391,-3.8391,-3.8221,-3.7934,-3.5988,0.0,-3.6013,-3.6013,0.0,-3.601,-3.6007,-3.5929,-3.5073,-3.3719,-3.2069,-3.125,-3.0918,-3.0918,-3.0918,-3.0918,-3.0898,-3.0818,-3.0796,-3.0796,-3.0874,-3.021,-2.896,-2.8959,-2.8273,-2.7038,-2.7013,-2.6978,-2.693,-2.7317,-2.7667,-2.8001,-2.8319,-2.8656,-2.9009,-2.8817,-2.903,-2.9645,-2.9531,-2.937,-2.9175,-2.8881,-2.8619,-2.8371,-2.8007,0.0,0.0,0.0,0.0,0.0,0.0,0.0,0.0,-2.6189,0.0,-2.7005,-2.7038,-2.7437,-2.8306,-2.842,-2.8688,-2.9318,-2.9778,-3.0103,-3.0316,-3.1665,-3.2705,-3.3288,-3.455,-3.5566,-3.6028,-3.6251,-3.6688,-3.7422,-3.7671,-3.813,-3.8964,-3.9399,-3.9556,-3.9616,-3.9939,-4.0122,-4.0122,-4.0122,-4.0122,-4.014,-4.0033,-4.0023,-4.003,-4.0728,-4.1134,-4.0789,-4.0566,-4.0337,-4.0037,-3.9833,-3.9661,-3.9537,-3.9255,-3.9094,-3.904,-3.8914,-3.8805,-3.8678,-3.8639,-3.8583,-3.8439,-3.8399,-3.8303,-3.8148,-3.8033,-3.7902,-3.7886,-3.7514,-3.707,-3.6009,-3.6011,-3.6011,-3.5914,-3.5778,-3.5776,-3.5579,-3.5286,0.0,0.0,0.0,-3.1191,-3.0918,-3.0918,-3.0916,-3.0913,-3.0894,-3.0825,-3.0799,-3.0801,-3.0708,-2.9832,-2.8327,-2.8153,-2.7233,-2.5744,-2.5693,-2.5652,-2.5619,-2.6254,-2.6624,-2.676,-2.7306,-2.7612,-2.7612,-2.7471,-2.7966,-2.9083,-2.9004,-2.8862,-2.8621,-2.8518,-2.8247,-2.7843,-2.7734,-2.753,-2.7182,-2.7068,-2.6909,-2.6674,-2.6503,-2.6362,-2.6168,-2.6043,-2.6217,-2.6716,-2.6782,-2.7016,-2.7622,-2.7631,-2.7965,-2.8682,-2.9497,-3.006,-3.0401,-3.113,-3.1981,-3.284,-3.3734,-3.4563,-3.5457,-3.5761,-3.6199,-3.6901,-3.7092,-3.7291,-3.7693,-3.803,-3.8178,-3.783,-3.8315,-3.856,-3.8629,-3.8646,-3.8515,-3.8532,-3.8653,-3.847,-3.8488,-3.9427,-4.013,-3.9842,-3.9528,-3.9463,-3.9361,-3.9054,-3.8874,-3.8705,-3.8586,-3.8553,-3.8515,-3.8613,-3.8583,-3.8472,-3.8375,-3.8262,-3.8132,-3.796,-3.7876,-3.7786,-3.7499,-3.7168,-3.6999,-3.6432,-3.5917,-3.6011,-3.6014,-3.6014,-3.5566,-3.4883,-3.4883,-3.4043,-3.2715,-3.3316,-3.2633,-3.1055,-3.0957,-3.0918,-3.0917,-3.0915,-3.0912,-3.0889,-3.0821,-3.0796,-3.0743,-3.0035,-2.9216,-2.8283,-2.7537,-2.6657,-2.5757,-2.5697,-2.5652,-2.561,-2.5665,-2.6028,-2.6618,-2.6738,-2.6991,-2.7405,-2.7349,-2.7317,-2.7363,-2.7289,-2.7095,-2.6798,-2.726,-2.7015,-2.6152,-2.7091,-2.7195,-2.6346,-2.6681,-2.6792,-2.6554,-2.6345,-2.6168,-2.6026,-2.5937,-2.593,-2.5884,-2.5901,-2.6097,-2.6654,-2.6703,-2.7219,-2.8437,-2.9163,-2.9726,-3.0076,-3.0948,-3.1609,-3.1855,-3.265,-3.3517,-3.4442,-3.4604,-3.4979,-3.5701,-3.5864,-3.618,-3.6916,-3.7115,-3.7399,-3.794,-3.8277,-3.8259,-3.8174,-3.8208,-3.8111,-3.8167,-3.7916,-3.8023,-3.7767,-3.8072,-3.8255,-3.8224,-3.7933,-3.7686,-3.7685,-3.74,-3.7294,-3.7091,-3.7383,-3.7524,-3.7507,-3.7745,-3.7882,-3.7927,-3.7831,-3.7806,-3.7822,-3.7801,-3.7499,-3.7302,-3.6762,-3.6209,-3.5727,-3.4787,-3.4326,-3.6015,-3.6015,-3.6015,-3.5507,-3.4667,-3.4199,-3.3281,-3.2168,-3.2519,-3.2031,-3.0975,-3.0917,-3.0918,-3.0918,-3.0915,-3.0891,-3.0843,-3.0816,-3.0537,-3.0088,-2.9679,-2.882,-2.763,-2.7181,-2.6551,-2.574,-2.5707,-2.5663,-2.5604,-2.5544,-2.5665,-2.5964,-2.5908,-2.5925,-2.6072,-2.5989,-2.5834,-2.5668,-2.6395,-2.6663,-2.6407,-2.6524,-2.6301,-2.5691,-2.6149,-2.6104,-2.5463,-2.5589,-2.5524,-2.5196,-2.5079,-2.4891,-2.4648,-2.4955,-2.5058,-2.4911,-2.5266,-2.5615,-2.5821,-2.6174,-2.6807,-2.7822,-2.8542,-2.9163,-2.971,-3.0222,-3.0828,-3.1396,-3.1891,-3.2459,-3.3323,-3.3451,-3.3762,-3.4543,-3.4655,-3.5064,-3.5748,-3.6009,-3.619,-3.6574,-3.6688,-3.6688,-3.6688,-3.6688,-3.6624,-3.6578,-3.6531,-3.6438,-3.6296,-3.6248,-3.6549,-3.7218,-3.7303,-3.7119,-3.69,-3.6711,-3.6571,-3.6482,-3.6459,-3.649,-3.6506,-3.6662,-3.6694,-3.6572,-3.6572,-3.6441,-3.6358,-3.6195,-3.6137,-3.6048,-3.5701,-3.5171,-3.4719,-3.3854,-3.3135,-3.601,-3.601,-3.5795,-3.5091,-3.4056,-3.318,-3.2419,-3.1814,-3.1814,-3.1482,-3.0952,-3.0915,-3.08,-3.0605,-3.0603,-3.046,-3.0255,-3.0228,-2.9854,-2.9263,-2.9032,-2.8232,-2.7056,-2.6824,-2.6367,-2.5757,-2.5671,-2.5644,-2.5576,-2.5518,-2.5434,-2.5351,-2.5228,-2.5088,-2.4964,-2.4813,-2.4657,-2.4535,-2.5541,-2.6007,-2.5816,-2.5737,-2.5493,-2.5083,-2.5199,-2.5056,-2.4648,-2.456,-2.4382,-2.4081,-2.3968,-2.3769,-2.3529,-2.4091,-2.4354,-2.4217,-2.4802,-2.5178,-2.5171,-2.5759,-2.6459,-2.7174,-2.7917,-2.8634,-2.9255,-2.9515,-2.9948,-3.0794,-3.098,-3.138,-3.2065,-3.2286,-3.264,-3.3333,-3.3707,-3.4147,-3.4692,-3.4988,-3.5182,-3.5198,-3.5198,-3.5232,-3.5182,-3.5182,-3.5265,-3.5235,-3.5041,-3.4963,-3.4899,-3.4756,-3.5218,-3.5943,-3.6422,-3.6255,-3.6133,-3.5825,-3.5635,-3.5716,-3.5562,-3.5463,-3.5457,-3.5521,-3.553,-3.5433,-3.5345,-3.532,-3.4998,-3.4898,-3.4945,-3.4918,-3.4605,-3.4066,-3.3689,-3.2883,-3.2123,-3.6009,-3.5888,-3.5185,-3.3853,-3.2346,-3.1467,-3.1038,-3.0982,-3.0985,-3.0968,-3.087,-3.0915,-3.0449,-2.9764,-2.9723,-2.9309,-2.8639,-2.855,-2.8508,-2.8337,-2.7593,-2.7139,-2.6886,-2.622,-2.5779,-2.5695,-2.5644,-2.5568,-2.5518,-2.5441,-2.536,-2.522,-2.5087,-2.4942,-2.4827,-2.4695,-2.4513,-2.4321,-2.4262,-2.4194,-2.4088,-2.4541,-2.4385,-2.3446,-2.4522,-2.4683,-2.3762,-2.409,-2.4193,-2.4,-2.3652,-2.3531,-2.3511,-2.3875,-2.4074,-2.3961,-2.4508,-2.4782,-2.4717,-2.5368,-2.6041,-2.6729,-2.7387,-2.8121,-2.8872,-2.8951,-2.9213,-2.972,-2.9855,-3.0267,-3.094,-3.1157,-3.154,-3.2259,-3.2941,-3.3543,-3.3785,-3.4343,-3.4804,-3.4899,-3.4883,-3.4963,-3.4883,-3.4833,-3.4833,-3.4508,-3.4363,-3.43,-3.4219,-3.4219,-3.4169,-3.4262,-3.4311,-3.4426,-3.4424,-3.4108,-3.413,-3.4078,-3.4234,-3.4413,-3.4478,-3.4675,-3.4919,-3.4617,-3.4737,-3.4691,-3.4696,-3.4736,-3.4426,-3.4106,-3.3582,-3.2907,-3.2058,-3.1544,-3.1323,-3.6018,-3.5918,-3.5062,-3.3693,-3.209,-3.1172,-3.0823,-3.0864,-3.0886,-3.0637,-3.0172,-3.0136,-2.9941,-2.9569,-2.9059,-2.8625,-2.8318,-2.8293,-2.7995,-2.7543,-2.7153,-2.6741,-2.6204,-2.5889,-2.5699,-2.5649,-2.5574,-2.5512,-2.5476,-2.533,-2.5214,-2.5068,-2.4987,-2.4847,-2.4704,-2.4543,-2.4392,-2.4192,-2.3979,-2.3813,-2.3678,-2.3766,-2.3589,-2.3133,-2.3423,-2.335,-2.2807,-2.2845,-2.2737,-2.2504,-2.2281,-2.2101,-2.1935,-2.2417,-2.2844,-2.3158,-2.4092,-2.458,-2.4426,-2.4704,-2.5323,-2.6375,-2.6715,-2.738,-2.8481,-2.8621,-2.8716,-2.8998,-2.9229,-2.9555,-2.9932,-3.0009,-3.0373,-3.1142,-3.1639,-3.2203,-3.3112,-3.355,-3.3892,-3.435,-3.4448,-3.4431,-3.4382,-3.4072,-3.3663,-3.3224,-3.2998,-3.2967,-3.2886,-3.3047,-3.3171,-3.3134,-3.3304,-3.3575,-3.371,-3.3607,-3.345,-3.3393,-3.3408,-3.345,-3.3529,-3.3427,-3.3479,-3.3485,-3.345,-3.3393,-3.3141,-3.3146,-3.2974,-3.2844,-3.2536,-3.1809,-3.119,-3.0925,-3.0866,-3.5642,-3.5467,-3.4454,-3.3146,-3.1741,-3.1099,-3.0847,-3.0831,-3.0637,-3.0191,-2.9589,-2.9121,-2.8886,-2.8787,-2.8218,-2.784,-2.7613,-2.7591,-2.7251,-2.6692,-2.6637,-2.6298,-2.5738,-2.5695,-2.563,-2.5593,-2.5518,-2.5464,-2.5415,-2.5273,-2.5111,-2.4968,-2.4898,-2.4749,-2.454,-2.4371,-2.4211,-2.4019,-2.3816,-2.3602,-2.3394,-2.3223,-2.3028,-2.2842,-2.2615,-2.2354,-2.2084,-2.1853,-2.1615,-2.1388,-2.1246,-2.1023,-2.0777,-2.1321,-2.1967,-2.2669,-2.3526,-2.4092,-2.4162,-2.4135,-2.4716,-2.5909,-2.6108,-2.6687,-2.7865,-2.8201,-2.8299,-2.8381,-2.8605,-2.8905,-2.9121,-2.9152,-2.9497,-3.0083,-3.0368,-3.1085,-3.1983,-3.2531,-3.2967,-3.3239,-3.3304,-3.3433,-3.3255,-3.282,-3.2353,-3.1967,-3.1726,-3.1614,-3.163,-3.1914,-3.2114,-3.2234,-3.25,-3.2882,-3.3245,-3.3309,-3.315,-3.2973,-3.2912,-3.2819,-3.2718,-3.2539,-3.2468,-3.2686,-3.2226,-3.2068,-3.2281,-3.2061,-3.1757,-3.1524,-3.1278,-3.1073,-3.0747,-3.0493,-3.0312,-3.4744,-3.4513,-3.2934,-3.1825,-3.0966,-3.0912,-3.0894,-3.0855,-3.0056,-2.9648,-2.9316,-2.791,-2.7146,-2.716,-2.71,-2.6609,-2.5941,-2.5954,-2.5949,-2.584,-2.5814,-2.5765,-2.5699,-2.5639,-2.5565,-2.5518,-2.5498,-2.5393,-2.5233,-2.5122,-2.5032,-2.4898,-2.4783,-2.461,-2.4407,-2.4229,-2.4019,-2.3816,-2.362,-2.3389,-2.3144,-2.2868,-2.2738,-2.2642,-2.2409,-2.2096,-2.1882,-2.1584,-2.1371,-2.1215,-2.0958,-2.0728,-2.059,-2.1007,-2.1765,-2.2787,-2.2899,-2.319,-2.3691,-2.3696,-2.4192,-2.5377,-2.5631,-2.6186,-2.7405,-2.7745,-2.784,-2.784,-2.7989,-2.825,-2.8684,-2.8842,-2.8936,-2.9108,-2.9722,-3.0212,-3.037,-3.1436,-3.1819,-3.1656,-3.1799,-3.1881,-3.148,-3.1337,-3.1258,-3.1147,-3.113,-3.1049,-3.0887,-3.0964,-3.1158,-3.1472,-3.1694,-3.1995,-3.2801,-3.2935,-3.2812,-3.2633,-3.2468,-3.2398,-3.2247,-3.215,-3.2038,-3.1966,-3.1796,-3.1682,-3.1682,-3.1509,-3.1234,-3.0984,-3.0747,-3.0507,-3.0326,-3.0054,-2.9808,-3.3541,-3.2998,-3.2375,-3.1653,-3.0931,-3.0913,-3.0914,-3.0838,-2.998,-2.9277,-2.8632,-2.7515,-2.671,-2.616,-2.6171,-2.5993,-2.5701,-2.5696,-2.5704,-2.5691,-2.5707,-2.5691,-2.5625,-2.5609,-2.5556,-2.5505,-2.5445,-2.5332,-2.5134,-2.5025,-2.4907,-2.4749,-2.4591,-2.4407,-2.4229,-2.4001,-2.3816,-2.3616,-2.3371,-2.3126,-2.285,-2.2544,-2.2292,-2.213,-2.1998,-2.1823,-2.1601,-2.1324,-2.1087,-2.0892,-2.0711,-2.046,-2.0262,-2.0649,-2.1258,-2.1974,-2.2413,-2.2852,-2.339,-2.3436,-2.3778,-2.4637,-2.5141,-2.5705,-2.655,-2.7134,-2.7437,-2.7539,-2.7554,-2.774,-2.7989,-2.8268,-2.8462,-2.8604,-2.8854,-2.9228,-2.9666,-3.0136,-3.0432,-3.0647,-3.0869,-3.0678,-3.0211,-3.0071,-2.9899,-2.9477,-2.9415,-2.9446,-2.9443,-2.9593,-2.9909,-3.0145,-3.0632,-3.1204,-3.1457,-3.2182,-3.2358,-3.2247,-3.2094,-3.1951,-3.1853,-3.1622,-3.1492,-3.1345,-3.1275,-3.0997,-3.085,-3.0617,-3.0395,-3.0319,-3.0153,-2.9797,-2.9913,-2.9369,-2.9177,-3.2491,-3.1772,-3.1714,-3.1403,-3.0935,-3.0917,-3.0741,-3.041,-2.9551,-2.869,-2.7828,-2.6962,-2.6232,-2.5779,-2.5687,-2.5704,-2.5687,-2.5704,-2.5687,-2.5663,-2.5658,-2.562,-2.5582,-2.5557,-2.5536,-2.5456,-2.5351,-2.522,-2.5057,-2.4888,-2.4764,-2.461,-2.4389,-2.4192,-2.4019,-2.3777,-2.3598,-2.3365,-2.3102,-2.2842,-2.2544,-2.2254,-2.194,-2.1661,-2.154,-2.1448,-2.1293,-2.1055,-2.0794,-2.0561,-2.0426,-2.02,-1.9908,-2.0072,-2.0561,-2.127,-2.1715,-2.2291,-2.2996,-2.3098,-2.333,-2.3973,-2.4411,-2.4995,-2.5842,-2.6404,-2.6748,-2.7041,-2.7181,-2.7233,-2.7321,-2.756,-2.7825,-2.8088,-2.8137,-2.8305,-2.8767,-2.8843,-2.9027,-2.9236,-2.9358,-2.9256,-2.8966,-2.8808,-2.8595,-2.8183,-2.8152,-2.8152,-2.8213,-2.8438,-2.8779,-2.8955,-2.9425,-2.9873,-3.0158,-3.0558,-3.1419,-3.1441,-3.1501,-3.1432,-3.1185,-3.0982,-3.0792,-3.0704,-3.0499,-3.0207,-2.9972,-2.9721,-2.9557,-2.9465,-2.9072,-2.8619,-2.8605,-2.8504,-2.8243,-3.1653,-3.1012,-3.0936,-3.0975,-3.0917,-3.0918,-3.0428,-2.9628,-2.8766,-2.7943,-2.7116,-2.6156,-2.5796,-2.5687,-2.5687,-2.5699,-2.5695,-2.5675,-2.5658,-2.5604,-2.5607,-2.557,-2.5518,-2.5495,-2.544,-2.537,-2.5187,-2.5044,-2.4902,-2.4746,-2.4594,-2.4389,-2.4192,-2.3999,-2.3795,-2.3598,-2.3365,-2.3102,-2.2842,-2.2527,-2.2192,-2.194,-2.1631,-2.1309,-2.1071,-2.0974,-2.1023,-2.0695,-2.041,-2.0224,-2.008,-1.9812,-1.945,-1.9398,-1.9826,-2.0756,-2.0893,-2.1456,-2.2507,-2.2678,-2.2873,-2.3331,-2.3545,-2.4118,-2.5091,-2.5552,-2.5891,-2.6448,-2.663,-2.6683,-2.6683,-2.6736,-2.6997,-2.7458,-2.7575,-2.7604,-2.7619,-2.759,-2.7545,-2.7539,-2.7724,-2.7619,-2.759,-2.7679,-2.7649,-2.7604,-2.7575,-2.7575,-2.756,-2.7664,-2.7853,-2.8166,-2.8438,-2.8645,-2.8755,-2.8893,-2.9881,-3.0585,-3.0717,-3.0761,-3.0366,-3.0046,-2.9711,-2.9566,-2.9276,-2.8943,-2.8738,-2.8474,-2.8271,-2.8138,-2.7704,-2.7538,-2.7495,-2.7421,-2.7074,-3.1131,-3.0918,-3.0918,-3.0918,-3.0918,-3.0917,-3.0408,-2.9528,-2.8683,-2.7819,-2.6956,-2.6077,-2.5694,-2.5683,-2.5658,-2.5634,-2.5629,-2.5593,-2.5582,-2.5582,-2.5557,-2.5531,-2.5488,-2.5448,-2.5331,-2.5182,-2.4993,-2.4855,-2.4764,-2.4575,-2.4389,-2.4192,-2.3981,-2.3795,-2.3598,-2.3342,-2.3077,-2.2842,-2.25,-2.2209,-2.194,-2.1631,-2.1309,-2.099,-2.0712,-2.0512,-2.0323,-2.0254,-2.0135,-1.9945,-1.9726,-1.9413,-1.9064,-1.8927,-1.9398,-2.033,-2.0472,-2.1024,-2.2115,-2.2324,-2.2409,-2.2649,-2.2989,-2.3547,-2.4337,-2.4869,-2.5431,-2.5983,-2.615,-2.615,-2.6165,-2.6165,-2.6365,-2.693,-2.6982,-2.6982,-2.6997,-2.6997,-2.693,-2.6901,-2.6916,-2.6997,-2.6997,-2.6997,-2.6997,-2.6982,-2.6997,-2.6982,-2.6982,-2.6997,-2.7026,-2.7185,-2.7331,-2.7472,-2.7633,-2.7725,-2.8283,-2.8987,-2.9363,-2.9697,-2.9377,-2.8943,-2.8626,-2.821,-2.7938,-2.7694,-2.7491,-2.7287,-2.7027,-2.7019,-2.6835,-2.6742,-2.66,-2.631,-2.5892,-3.0918,-3.0917,-3.0918,-3.0917,-3.0837,-3.0582,-2.9916,-2.9054,-2.8164,-2.7298,-2.649,-2.5921,-2.5648,-2.5654,-2.5585,-2.5556,-2.5538,-2.5498,-2.5483,-2.5517,-2.5503,-2.5445,-2.5425,-2.5313,-2.5182,-2.5012,-2.485,-2.4693,-2.4575,-2.4372,-2.4174,-2.3999,-2.3795,-2.3576,-2.3348,-2.3077,-2.2825,-2.2517,-2.2209,-2.1895,-2.1601,-2.1277,-2.0958,-2.0613,-2.0342,-2.008,-1.9812,-1.9747,-1.9711,-1.9566,-1.9339,-1.9003,-1.863,-1.857,-1.8971,-1.9851,-2.017,-2.0584,-2.1694,-2.1902,-2.1902,-2.1971,-2.2249,-2.2845,-2.3553,-2.4135,-2.4621,-2.5397,-2.5564,-2.5564,-2.5564,-2.5564,-2.5715,-2.6028,-2.6244,-2.6351,-2.6404,-2.6418,-2.6418,-2.6418,-2.6418,-2.6404,-2.6418,-2.6418,-2.6418,-2.6418,-2.6418,-2.6418,-2.6418,-2.6418,-2.6418,-2.6408,-2.6529,-2.6578,-2.6552,-2.668,-2.6719,-2.7256,-2.7768,-2.821,-2.8308,-2.781,-2.7355,-2.6775,-2.638,-2.6295,-2.6109,-2.6004,-2.5815,-2.5867,-2.5882,-2.5502,-2.5189,-2.5048,-2.4702,-3.0917,-3.0914,-3.0916,-3.0837,-3.0679,-2.9988,-2.9125,-2.8164,-2.7348,-2.6532,-2.5855,-2.5667,-2.5586,-2.5579,-2.5525,-2.5499,-2.5478,-2.5401,-2.5378,-2.5378,-2.536,-2.5322,-2.5261,-2.508,-2.4949,-2.4842,-2.4734,-2.4559,-2.4372,-2.4174,-2.3979,-2.3792,-2.3576,-2.3324,-2.3077,-2.2816,-2.2517,-2.2181,-2.1911,-2.1617,-2.1277,-2.0958,-2.0563,-2.0189,-2.0045,-1.9777,-1.9398,-1.9176,-1.9101,-1.9153,-1.8865,-1.8581,-1.8319,-1.8189,-1.8604,-1.9656,-1.9619,-2.021,-2.1063,-2.1375,-2.1375,-2.1375,-2.1442,-2.1835,-2.2861,-2.3162,-2.3689,-2.4664,-2.4894,-2.4948,-2.4948,-2.4948,-2.4991,-2.4991,-2.5495,-2.5825,-2.5839,-2.5839,-2.5839,-2.5839,-2.5839,-2.5839,-2.5825,-2.5839,-2.5839,-2.5825,-2.5825,-2.5825,-2.5825,-2.5825,-2.5839,-2.584,-2.5855,-2.5716,-2.5715,-2.5588,-2.5663,-2.5785,-2.6222,-2.663,-2.7009,-2.6574,-2.6153,-2.5554,-2.5192,-2.504,-2.4869,-2.4869,-2.4779,-2.4669,-2.4426,-2.4001,-2.3875,-2.3876,-2.3733,-3.0915,-3.0914,-3.0914,-3.0541,-2.9968,-2.9672,-2.8686,-2.7345,-2.702,-2.6377,-2.5756,-2.5609,-2.5562,-2.5531,-2.5464,-2.5426,-2.5385,-2.5303,-2.5243,-2.5212,-2.5134,-2.5087,-2.5057,-2.4915,-2.4756,-2.462,-2.453,-2.4375,-2.4191,-2.3959,-2.3774,-2.3594,-2.3319,-2.3077,-2.2799,-2.249,-2.2198,-2.1911,-2.1601,-2.1277,-2.0925,-2.053,-2.0174,-1.9854,-1.9654,-1.9362,-1.8988,-1.8606,-1.8464,-1.8464,-1.84,-1.8189,-1.7909,-1.7774,-1.8229,-1.9048,-1.9237,-1.9582,-2.0532,-2.0822,-2.0822,-2.0822,-2.0809,-2.1125,-2.1863,-2.2366,-2.2948,-2.3675,-2.4085,-2.435,-2.435,-2.435,-2.435,-2.4421,-2.4821,-2.5174,-2.523,-2.523,-2.523,-2.523,-2.523,-2.523,-2.523,-2.523,-2.523,-2.523,-2.5216,-2.5216,-2.5216,-2.5216,-2.5216,-2.5174,-2.5145,-2.4948,-2.4835,-2.4664,-2.4603,-2.454,-2.4762,-2.4958,-2.5222,-2.5199,-2.4878,-2.4589,-2.4469,-2.43,-2.4184,-2.4086,-2.3819,-2.3675,-2.3497,-2.3343,-2.3236,-2.3167,-2.2886,-3.0891,-3.0831,-3.0499,-3.0066,-2.9491,-2.8781,-2.7849,-2.695,-2.65,-2.6087,-2.5632,-2.5544,-2.5524,-2.5441,-2.5385,-2.5331,-2.5303,-2.519,-2.5091,-2.5031,-2.4874,-2.4818,-2.4823,-2.4731,-2.4572,-2.4425,-2.4303,-2.4096,-2.3896,-2.3689,-2.3468,-2.323,-2.2977,-2.2721,-2.2381,-2.2084,-2.1777,-2.1446,-2.1119,-2.0811,-2.0512,-2.012,-1.9767,-1.9457,-1.925,-1.8936,-1.8436,-1.8095,-1.7909,-1.7895,-1.7895,-1.7774,-1.7528,-1.7587,-1.7983,-1.878,-1.89,-1.9346,-2.0027,-2.0245,-2.0258,-2.0258,-2.0258,-2.0553,-2.1068,-2.1519,-2.1957,-2.2819,-2.3193,-2.3451,-2.361,-2.3649,-2.3662,-2.3721,-2.4015,-2.4376,-2.4647,-2.4677,-2.465,-2.4593,-2.4593,-2.4593,-2.4593,-2.4593,-2.4593,-2.4593,-2.465,-2.465,-2.4664,-2.4664,-2.4593,-2.4593,-2.4478,-2.4292,-2.4176,-2.4015,-2.3826,-2.378,-2.3721,-2.3897,-2.4015,-2.4131,-2.4015,-2.3956,-2.378,-2.3662,-2.3556,-2.339,-2.3258,-2.3138,-2.2896,-2.28,-2.2714,-2.2506,-2.2211,-3.0806,-3.0604,-2.9884,-2.9489,-2.9029,-2.7624,-2.6918,-2.6588,-2.5968,-2.5596,-2.5505,-2.5476,-2.5437,-2.5388,-2.5293,-2.5241,-2.5164,-2.5038,-2.4915,-2.4771,-2.4586,-2.4472,-2.4491,-2.4459,-2.432,-2.4173,-2.4018,-2.3774,-2.354,-2.3312,-2.3091,-2.2833,-2.2571,-2.2254,-2.1953,-2.1628,-2.1291,-2.0959,-2.0648,-2.0326,-2.0015,-1.966,-1.9295,-1.9011,-1.8693,-1.8291,-1.7828,-1.7557,-1.7406,-1.7352,-1.7406,-1.731,-1.718,-1.7445,-1.7862,-1.8329,-1.8704,-1.9083,-1.9583,-1.9695,-1.9695,-1.9695,-1.9708,-1.9947,-2.0373,-2.0598,-2.1074,-2.1988,-2.2143,-2.2493,-2.2917,-2.3017,-2.3017,-2.3017,-2.3065,-2.339,-2.3916,-2.4067,-2.4015,-2.4002,-2.4002,-2.4002,-2.4002,-2.4002,-2.4002,-2.3956,-2.3956,-2.3956,-2.3956,-2.3956,-2.3943,-2.3943,-2.3826,-2.3708,-2.3543,-2.339,-2.3198,-2.3078,-2.3017,-2.3138,-2.3378,-2.3497,-2.3437,-2.3318,-2.3185,-2.3125,-2.3017,-2.2836,-2.2714,-2.2592,-2.2408,-2.2395,-2.232,-2.1949,-2.1651,-3.0423,-2.977,-2.9595,-2.873,-2.7523,-2.705,-2.6476,-2.5815,-2.5615,-2.549,-2.5429,-2.5376,-2.5303,-2.5224,-2.5157,-2.5106,-2.5019,-2.487,-2.4707,-2.4409,-2.4211,-2.4022,-2.4001,-2.4019,-2.3959,-2.3756,-2.3602,-2.3376,-2.3116,-2.2857,-2.2634,-2.2412,-2.2124,-2.1882,-2.1568,-2.1213,-2.0942,-2.0599,-2.0273,-1.9874,-1.9551,-1.9199,-1.886,-1.8475,-1.8028,-1.7612,-1.7242,-1.706,-1.6863,-1.665,-1.6778,-1.6863,-1.6751,-1.6928,-1.7384,-1.7881,-1.824,-1.8612,-1.9077,-1.9133,-1.9186,-1.9186,-1.9198,-1.9247,-1.9356,-1.977,-2.0256,-2.0913,-2.135,-2.1776,-2.2274,-2.2371,-2.2359,-2.2359,-2.2359,-2.242,-2.2678,-2.309,-2.3318,-2.3305,-2.3305,-2.3305,-2.3305,-2.3305,-2.3318,-2.3318,-2.3318,-2.3318,-2.3318,-2.3305,-2.3305,-2.3365,-2.3233,-2.3053,-2.2871,-2.2714,-2.2531,-2.2408,-2.2408,-2.2359,-2.2665,-2.2787,-2.2775,-2.2714,-2.2665,-2.2543,-2.2408,-2.2297,-2.2099,-2.1975,-2.1851,-2.1835,-2.1659,-2.1371,-2.1083,-2.9923,-2.9421,-2.8642,-2.7753,-2.6913,-2.6432,-2.5939,-2.5524,-2.5468,-2.5393,-2.5313,-2.5254,-2.5192,-2.5099,-2.5,-2.4893,-2.4712,-2.4526,-2.4302,-2.4058,-2.3821,-2.3592,-2.3369,-2.3369,-2.33,-2.3253,-2.3111,-2.29,-2.2643,-2.2402,-2.2136,-2.1861,-2.1598,-2.1306,-2.1039,-2.0698,-2.0345,-2.0,-1.9675,-1.931,-1.9049,-1.8655,-1.8226,-1.7828,-1.7393,-1.706,-1.671,-1.6607,-1.6306,-1.6057,-1.6088,-1.6262,-1.6291,-1.6638,-1.7087,-1.7387,-1.7926,-1.8207,-1.8513,-1.856,-1.856,-1.856,-1.8572,-1.856,-1.8583,-1.8842,-1.9195,-1.9769,-2.0287,-2.0841,-2.162,-2.1749,-2.1737,-2.1737,-2.1737,-2.1737,-2.1862,-2.2297,-2.2641,-2.2555,-2.2567,-2.2653,-2.2665,-2.2653,-2.2665,-2.2665,-2.2665,-2.2665,-2.2665,-2.2665,-2.2665,-2.2665,-2.2592,-2.2396,-2.2211,-2.2037,-2.1851,-2.1788,-2.1726,-2.1726,-2.18,-2.1975,-2.2099,-2.2037,-2.2037,-2.1851,-2.1726,-2.1612,-2.1486,-2.1348,-2.1285,-2.1192,-2.1001,-2.0797,-2.0495,-2.9418,-2.9162,-2.7569,-2.6812,-2.6587,-2.5855,-2.549,-2.539,-2.5367,-2.5293,-2.519,-2.5157,-2.5063,-2.4966,-2.4804,-2.4636,-2.4371,-2.4062,-2.3821,-2.3613,-2.3374,-2.3117,-2.2873,-2.2652,-2.2548,-2.2729,-2.2591,-2.2341,-2.2079,-2.1866,-2.1598,-2.126,-2.1007,-2.0714,-2.0395,-2.0065,-1.9747,-1.9442,-1.9049,-1.8707,-1.8461,-1.8068,-1.7625,-1.7131,-1.6795,-1.6509,-1.625,-1.6044,-1.5836,-1.5424,-1.5379,-1.5424,-1.5715,-1.6397,-1.6872,-1.6918,-1.7519,-1.7861,-1.7952,-1.7975,-1.7963,-1.7975,-1.7975,-1.7975,-1.7986,-1.8032,-1.8305,-1.8828,-1.9387,-2.0095,-2.0882,-2.1019,-2.1019,-2.1031,-2.1031,-2.1031,-2.1158,-2.1549,-2.1702,-2.1854,-2.1939,-2.2037,-2.2049,-2.2049,-2.2061,-2.2073,-2.2073,-2.2073,-2.2061,-2.2061,-2.2049,-2.1987,-2.1913,-2.1639,-2.1451,-2.1262,-2.1083,-2.1083,-2.1019,-2.1031,-2.1031,-2.1083,-2.1262,-2.14,-2.1411,-2.1221,-2.1083,-2.0955,-2.0892,-2.0764,-2.0658,-2.0616,-2.0422,-2.0216,-1.9901,-2.9085,-2.8343,-2.7332,-2.6473,-2.5764,-2.5507,-2.5385,-2.5313,-2.5244,-2.5168,-2.5031,-2.4987,-2.4893,-2.4783,-2.4626,-2.4337,-2.4001,-2.3674,-2.3374,-2.3141,-2.2873,-2.2634,-2.2341,-2.2046,-2.1816,-2.1761,-2.179,-2.1761,-2.1538,-2.126,-2.1007,-2.073,-2.0429,-2.012,-1.9859,-1.9536,-1.9184,-1.8846,-1.8475,-1.8175,-1.7841,-1.7462,-1.7005,-1.6497,-1.6194,-1.5888,-1.5635,-1.5424,-1.5165,-1.4834,-1.4754,-1.4651,-1.4793,-1.5624,-1.6204,-1.6474,-1.6979,-1.7357,-1.7357,-1.7368,-1.7357,-1.7368,-1.7368,-1.7368,-1.7368,-1.739,-1.7632,-1.8239,-1.8934,-1.9662,-2.0213,-2.0302,-2.0302,-2.0302,-2.0302,-2.0302,-2.0302,-2.0495,-2.0752,-2.0996,-2.121,-2.1348,-2.1348,-2.1348,-2.1348,-2.1348,-2.1348,-2.1348,-2.1348,-2.1348,-2.1348,-2.1285,-2.1158,-2.0944,-2.0677,-2.0484,-2.0302,-2.0291,-2.0302,-2.0302,-2.0302,-2.0291,-2.0355,-2.0495,-2.0635,-2.0635,-2.0506,-2.0302,-2.0237,-2.0172,-2.0129,-2.0031,-1.9987,-1.9801,-1.9222,-2.8262,-2.7395,-2.6547,-2.5893,-2.548,-2.5376,-2.5274,-2.5201,-2.5134,-2.5025,-2.4893,-2.476,-2.4639,-2.453,-2.4339,-2.4018,-2.3624,-2.3283,-2.3,-2.273,-2.2439,-2.2136,-2.182,-2.1491,-2.1213,-2.1007,-2.0959,-2.0991,-2.091,-2.0648,-2.0379,-2.0035,-1.9752,-1.95,-1.9169,-1.8846,-1.8539,-1.8279,-1.7882,-1.7516,-1.7214,-1.6752,-1.6269,-1.5932,-1.5579,-1.5322,-1.5108,-1.488,-1.4605,-1.4373,-1.4197,-1.3999,-1.4169,-1.4637,-1.5351,-1.5741,-1.633,-1.674,-1.674,-1.674,-1.674,-1.6751,-1.674,-1.674,-1.6751,-1.6804,-1.7079,-1.7807,-1.8403,-1.9084,-1.9541,-1.9573,-1.9584,-1.9584,-1.9584,-1.9584,-1.9594,-1.9584,-1.9846,-2.0183,-2.0366,-2.0495,-2.0635,-2.0635,-2.0624,-2.0624,-2.0624,-2.0624,-2.0624,-2.0635,-2.0635,-2.0506,-2.0442,-2.0172,-1.9911,-1.9715,-1.9584,-1.9584,-1.9584,-1.9584,-1.9594,-1.9584,-1.9518,-1.9528,-1.966,-1.9846,-1.9781,-1.9584,-1.9584,-1.9573,-1.9462,-1.9362,-1.9502,-1.9368,-1.8777,-2.7588,-2.6718,-2.5846,-2.5441,-2.5367,-2.5293,-2.5182,-2.5068,-2.4974,-2.487,-2.4707,-2.4543,-2.4355,-2.4154,-2.3899,-2.354,-2.314,-2.2859,-2.2554,-2.2237,-2.1907,-2.1612,-2.1291,-2.0975,-2.0599,-2.0261,-2.0019,-2.0015,-2.0208,-2.0015,-1.9711,-1.9369,-1.9095,-1.8793,-1.8461,-1.8161,-1.7895,-1.7557,-1.7227,-1.685,-1.6411,-1.592,-1.549,-1.5277,-1.5006,-1.4743,-1.4466,-1.4222,-1.4046,-1.3763,-1.3583,-1.3385,-1.342,-1.3866,-1.4384,-1.4915,-1.5685,-1.6022,-1.6114,-1.6114,-1.6114,-1.6114,-1.6114,-1.6114,-1.6175,-1.6297,-1.6644,-1.743,-1.7963,-1.8393,-1.8772,-1.8865,-1.8875,-1.8875,-1.8865,-1.8865,-1.8865,-1.8865,-1.8865,-1.9187,-1.9441,-1.9639,-1.9781,-1.9922,-1.9911,-1.9922,-1.9911,-1.9911,-1.9911,-1.9911,-1.9911,-1.9781,-1.9649,-1.9462,-1.9198,-1.8998,-1.8931,-1.8865,-1.8865,-1.8875,-1.8875,-1.8875,-1.8808,-1.8731,-1.8798,-1.8921,-1.8854,-1.8865,-1.8865,-1.8798,-1.8731,-1.8782,-1.8998,-1.8765,-1.825,-2.7571,-2.6625,-2.5766,-2.5378,-2.5302,-2.5171,-2.5056,-2.4929,-2.4842,-2.4726,-2.4512,-2.4375,-2.4154,-2.3837,-2.3359,-2.2933,-2.2582,-2.2275,-2.1953,-2.1642,-2.1306,-2.0943,-2.0614,-2.0289,-1.9945,-1.9573,-1.9214,-1.9317,-1.9376,-1.9258,-1.9049,-1.8693,-1.833,-1.8028,-1.7747,-1.7434,-1.7144,-1.6837,-1.6466,-1.5988,-1.54,-1.5119,-1.4812,-1.4547,-1.428,-1.3999,-1.3752,-1.3552,-1.3314,-1.3122,-1.29,-1.2889,-1.3042,-1.3383,-1.3662,-1.4185,-1.4811,-1.5526,-1.5468,-1.5526,-1.5536,-1.5526,-1.5526,-1.5536,-1.5615,-1.5929,-1.6409,-1.7233,-1.7439,-1.7635,-1.8045,-1.8134,-1.8144,-1.8144,-1.8134,-1.8144,-1.8144,-1.8134,-1.8134,-1.8134,-1.8452,-1.8721,-1.8998,-1.9131,-1.9198,-1.9208,-1.9208,-1.9198,-1.9187,-1.9187,-1.9187,-1.9065,-1.8854,-1.8664,-1.8529,-1.8337,-1.8202,-1.8144,-1.8144,-1.8144,-1.8134,-1.8134,-1.8066,-1.7988,-1.8056,-1.8114,-1.8114,-1.8114,-1.8134,-1.8134,-1.8056,-1.8271,-1.8496,-1.8154,-1.7725,-2.6754,-2.5927,-2.5505,-2.5274,-2.5179,-2.5056,-2.4915,-2.476,-2.4623,-2.4459,-2.4266,-2.404,-2.3732,-2.3289,-2.2798,-2.2439,-2.2119,-2.1761,-2.1415,-2.1055,-2.0698,-2.0348,-1.9984,-1.9624,-1.9273,-1.8855,-1.8496,-1.8171,-1.8302,-1.8394,-1.8266,-1.7881,-1.7571,-1.7297,-1.7005,-1.671,-1.6411,-1.6107,-1.5668,-1.513,-1.4731,-1.4351,-1.4071,-1.3941,-1.3552,-1.3304,-1.3112,-1.2842,-1.2647,-1.255,-1.2323,-1.2269,-1.2489,-1.2789,-1.3008,-1.3332,-1.3938,-1.4442,-1.4824,-1.4874,-1.4874,-1.4883,-1.4902,-1.4987,-1.5172,-1.5557,-1.6017,-1.6628,-1.6919,-1.7194,-1.7326,-1.7382,-1.7392,-1.7392,-1.7382,-1.7392,-1.7392,-1.7392,-1.7392,-1.7392,-1.7392,-1.7716,-1.7978,-1.8192,-1.8327,-1.8472,-1.8472,-1.8472,-1.8462,-1.8462,-1.8472,-1.8414,-1.8134,-1.792,-1.7716,-1.7588,-1.7451,-1.7382,-1.7382,-1.7382,-1.7382,-1.7314,-1.7314,-1.7235,-1.7235,-1.7295,-1.7364,-1.751,-1.7579,-1.752,-1.7451,-1.7605,-1.7741,-1.7574,-1.7232,-2.59,-2.5331,-2.5271,-2.5168,-2.5024,-2.4915,-2.476,-2.461,-2.4407,-2.4211,-2.3923,-2.361,-2.317,-2.2738,-2.232,-2.1965,-2.1658,-2.126,-2.091,-2.0514,-2.0158,-1.9788,-1.9427,-1.9049,-1.8616,-1.8198,-1.7747,-1.7435,-1.7229,-1.7229,-1.7216,-1.7021,-1.6824,-1.6527,-1.6194,-1.5944,-1.5668,-1.5299,-1.4744,-1.434,-1.4025,-1.3647,-1.342,-1.3228,-1.288,-1.2579,-1.2491,-1.2255,-1.2126,-1.1977,-1.187,-1.1904,-1.2156,-1.2325,-1.2586,-1.2856,-1.3228,-1.3502,-1.3872,-1.4052,-1.4231,-1.4231,-1.4267,-1.4385,-1.4719,-1.5196,-1.5602,-1.6008,-1.6369,-1.654,-1.663,-1.6621,-1.6621,-1.6612,-1.6612,-1.6621,-1.6621,-1.6621,-1.6612,-1.6612,-1.6612,-1.6612,-1.6881,-1.7166,-1.7451,-1.7666,-1.7735,-1.7735,-1.7725,-1.7725,-1.7725,-1.7666,-1.751,-1.7235,-1.7166,-1.6968,-1.683,-1.6691,-1.6691,-1.6691,-1.6682,-1.6612,-1.6612,-1.6542,-1.6473,-1.6542,-1.6603,-1.6811,-1.6959,-1.689,-1.6839,-1.6851,-1.6827,-1.6774,-1.683,-2.5225,-2.5125,-2.5103,-2.5043,-2.4915,-2.4764,-2.4591,-2.4407,-2.4211,-2.3961,-2.3628,-2.3122,-2.2669,-2.2265,-2.1882,-2.1493,-2.1055,-2.0698,-2.0345,-1.998,-1.9639,-1.9221,-1.8808,-1.8383,-1.8002,-1.7544,-1.7076,-1.6667,-1.6306,-1.6139,-1.6213,-1.6312,-1.6008,-1.57,-1.5445,-1.5187,-1.4766,-1.4387,-1.3884,-1.36,-1.3314,-1.3016,-1.2783,-1.2569,-1.2323,-1.2026,-1.1778,-1.1619,-1.1521,-1.1437,-1.1472,-1.1684,-1.187,-1.2061,-1.2228,-1.2474,-1.2594,-1.2789,-1.2903,-1.3268,-1.3511,-1.3563,-1.3606,-1.3735,-1.4122,-1.4466,-1.4853,-1.5299,-1.5636,-1.5764,-1.5886,-1.5912,-1.5842,-1.5842,-1.5842,-1.5842,-1.5842,-1.5842,-1.5833,-1.5903,-1.5833,-1.5833,-1.5842,-1.6114,-1.6603,-1.689,-1.6968,-1.6959,-1.6959,-1.6959,-1.6968,-1.6899,-1.6751,-1.6682,-1.6612,-1.6473,-1.6202,-1.6132,-1.6132,-1.6053,-1.5982,-1.5912,-1.5912,-1.5912,-1.5842,-1.5833,-1.5876,-1.6104,-1.6272,-1.6307,-1.6351,-1.6464,-1.6584,-1.6616,-1.6681,-2.5134,-2.5038,-2.4942,-2.4861,-2.4764,-2.4591,-2.4389,-2.4192,-2.4001,-2.3628,-2.3188,-2.2695,-2.2265,-2.1882,-2.1446,-2.1055,-2.0581,-2.0089,-1.9717,-1.9295,-1.8884,-1.8461,-1.8082,-1.7666,-1.7256,-1.6837,-1.6398,-1.6008,-1.568,-1.5322,-1.504,-1.504,-1.5119,-1.504,-1.4777,-1.4351,-1.3873,-1.3457,-1.3132,-1.289,-1.2647,-1.2304,-1.2058,-1.2026,-1.1628,-1.1427,-1.1226,-1.1074,-1.1046,-1.1072,-1.11,-1.136,-1.1636,-1.1756,-1.1962,-1.2189,-1.2236,-1.2174,-1.2174,-1.2544,-1.285,-1.285,-1.2936,-1.3059,-1.3377,-1.3646,-1.404,-1.441,-1.4722,-1.4887,-1.5046,-1.5062,-1.5062,-1.5062,-1.5062,-1.5133,-1.5133,-1.5125,-1.5125,-1.5196,-1.5125,-1.5062,-1.5062,-1.5133,-1.5621,-1.6044,-1.6114,-1.6193,-1.6272,-1.6193,-1.6193,-1.6193,-1.6053,-1.5982,-1.5912,-1.5771,-1.5638,-1.5568,-1.5568,-1.5488,-1.5338,-1.5284,-1.5284,-1.5213,-1.5279,-1.5289,-1.5371,-1.5445,-1.5688,-1.5986,-1.6164,-1.6345,-1.643,-1.6405,-1.6445,-2.5063,-2.4929,-2.4794,-2.4723,-2.4645,-2.4461,-2.4248,-2.4039,-2.3816,-2.3359,-2.273,-2.2347,-2.1878,-2.1446,-2.1039,-2.0614,-2.0154,-1.9609,-1.9132,-1.8679,-1.8279,-1.7801,-1.7434,-1.7005,-1.6625,-1.6194,-1.58,-1.5412,-1.5051,-1.4651,-1.4316,-1.4165,-1.4154,-1.4107,-1.3978,-1.3515,-1.3025,-1.2686,-1.2403,-1.2264,-1.2017,-1.1678,-1.1477,-1.1411,-1.1183,-1.1017,-1.0926,-1.0902,-1.0901,-1.0903,-1.0971,-1.1096,-1.1284,-1.1473,-1.157,-1.172,-1.1809,-1.1747,-1.174,-1.1926,-1.2236,-1.2236,-1.2236,-1.2367,-1.2593,-1.2741,-1.3123,-1.3559,-1.383,-1.4042,-1.4291,-1.4425,-1.4489,-1.4553,-1.4561,-1.4561,-1.4561,-1.4561,-1.4561,-1.4553,-1.4489,-1.4489,-1.4489,-1.4489,-1.4776,-1.5196,-1.5338,-1.5497,-1.5593,-1.5505,-1.5409,-1.5417,-1.5355,-1.5284,-1.5213,-1.5141,-1.507,-1.4999,-1.4991,-1.4919,-1.4848,-1.4737,-1.4768,-1.4863,-1.4862,-1.4778,-1.5024,-1.532,-1.5546,-1.579,-1.6019,-1.6118,-1.6052,-1.6086,-1.6173,-2.4947,-2.4794,-2.466,-2.4615,-2.4547,-2.4375,-2.4153,-2.3876,-2.362,-2.314,-2.2473,-2.2015,-2.1507,-2.1039,-2.0665,-2.0208,-1.9681,-1.9132,-1.8679,-1.8226,-1.7707,-1.7256,-1.6879,-1.6454,-1.6107,-1.5623,-1.5277,-1.488,-1.4466,-1.414,-1.3705,-1.3314,-1.3218,-1.316,-1.317,-1.2754,-1.2421,-1.2116,-1.1868,-1.1669,-1.1477,-1.1167,-1.1056,-1.0968,-1.0881,-1.0809,-1.0748,-1.0793,-1.0778,-1.0815,-1.0959,-1.1027,-1.1001,-1.1247,-1.1315,-1.124,-1.1185,-1.1185,-1.1122,-1.1435,-1.156,-1.1615,-1.1615,-1.1659,-1.1718,-1.1909,-1.2254,-1.2691,-1.2959,-1.3364,-1.3682,-1.392,-1.3977,-1.3985,-1.3985,-1.3985,-1.3985,-1.3985,-1.3912,-1.3912,-1.3985,-1.4057,-1.3992,-1.3992,-1.4145,-1.4353,-1.4569,-1.4721,-1.4816,-1.4808,-1.4641,-1.4633,-1.4569,-1.4569,-1.4569,-1.4569,-1.4569,-1.4425,-1.4369,-1.4385,-1.4279,-1.426,-1.4309,-1.4559,-1.4531,-1.4464,-1.4842,-1.5309,-1.5357,-1.542,-1.5795,-1.5895,-1.5821,-1.5794,-1.5921,-2.4915,-2.4798,-2.4629,-2.4479,-2.4321,-2.4172,-2.3955,-2.362,-2.3098,-2.2607,-2.2141,-2.1661,-2.1182,-2.0714,-2.0292,-1.9803,-1.9169,-1.8669,-1.8214,-1.7598,-1.7089,-1.6723,-1.6337,-1.5988,-1.5591,-1.5232,-1.4834,-1.4419,-1.3999,-1.3668,-1.3286,-1.29,-1.2403,-1.2255,-1.2255,-1.2076,-1.1828,-1.1477,-1.1276,-1.1124,-1.0947,-1.0825,-1.0743,-1.0759,-1.0762,-1.0707,-1.0666,-1.0666,-1.069,-1.0659,-1.0852,-1.0877,-1.089,-1.1108,-1.1115,-1.1059,-1.0996,-1.0807,-1.0618,-1.0611,-1.0737,-1.0926,-1.1052,-1.1059,-1.1087,-1.1136,-1.1439,-1.1793,-1.2194,-1.2577,-1.287,-1.3158,-1.323,-1.3258,-1.3258,-1.3258,-1.3258,-1.3258,-1.3258,-1.3185,-1.3258,-1.3331,-1.3258,-1.3258,-1.3404,-1.3484,-1.3622,-1.3848,-1.4008,-1.4008,-1.3855,-1.3855,-1.3855,-1.3855,-1.3855,-1.398,-1.3996,-1.3938,-1.388,-1.3895,-1.3793,-1.3844,-1.405,-1.4293,-1.4212,-1.4151,-1.4612,-1.4962,-1.4945,-1.51,-1.542,-1.5665,-1.5621,-1.5584,-1.5629,-2.4865,-2.4723,-2.4512,-2.4302,-2.4078,-2.3978,-2.3728,-2.3277,-2.2634,-2.2141,-2.1764,-2.1276,-2.0795,-2.0326,-1.9889,-1.942,-1.8755,-1.8201,-1.7693,-1.7076,-1.6527,-1.6163,-1.5824,-1.5468,-1.5051,-1.4731,-1.4362,-1.3905,-1.3505,-1.3132,-1.2706,-1.2215,-1.1728,-1.1469,-1.1418,-1.1326,-1.1276,-1.0972,-1.0777,-1.0705,-1.0624,-1.0593,-1.0546,-1.0665,-1.0672,-1.0704,-1.0617,-1.0578,-1.0587,-1.0573,-1.0602,-1.0602,-1.0752,-1.0744,-1.0744,-1.0681,-1.0618,-1.0364,-1.0238,-1.0174,-1.0301,-1.0434,-1.0498,-1.0491,-1.0485,-1.0581,-1.0806,-1.112,-1.1546,-1.184,-1.2212,-1.2494,-1.2725,-1.2673,-1.2746,-1.2746,-1.282,-1.282,-1.2746,-1.2673,-1.2673,-1.2673,-1.2592,-1.2592,-1.2592,-1.2673,-1.2673,-1.2973,-1.3193,-1.32,-1.32,-1.32,-1.328,-1.3353,-1.3411,-1.3505,-1.352,-1.3438,-1.3518,-1.3543,-1.3741,-1.3823,-1.3952,-1.4052,-1.4122,-1.425,-1.443,-1.4559,-1.4622,-1.4747,-1.5004,-1.5191,-1.5311,-1.5318,-1.5235,-2.4723,-2.4564,-2.4375,-2.4135,-2.3917,-2.3753,-2.3399,-2.285,-2.2254,-2.1777,-2.1432,-2.0845,-2.0361,-1.994,-1.9442,-1.8907,-1.8383,-1.776,-1.7214,-1.6655,-1.6051,-1.568,-1.5289,-1.488,-1.4558,-1.4176,-1.3789,-1.3409,-1.2967,-1.2598,-1.2126,-1.1578,-1.1175,-1.0871,-1.0769,-1.074,-1.0756,-1.0589,-1.0449,-1.0431,-1.0423,-1.0346,-1.0419,-1.0581,-1.06,-1.0643,-1.0606,-1.067,-1.0677,-1.064,-1.0534,-1.0351,-1.018,-1.0053,-0.9989,-1.0008,-1.0091,-1.0117,-1.0051,-1.0012,-0.9928,-0.9978,-0.998,-0.9976,-1.0117,-1.0258,-1.0509,-1.0769,-1.1165,-1.1388,-1.1637,-1.2005,-1.2298,-1.2298,-1.2298,-1.2372,-1.2445,-1.2445,-1.2305,-1.2305,-1.2298,-1.2224,-1.215,-1.2077,-1.2077,-1.2077,-1.215,-1.2224,-1.2526,-1.2673,-1.2673,-1.2673,-1.276,-1.2854,-1.2945,-1.303,-1.3072,-1.303,-1.3292,-1.3402,-1.3597,-1.3701,-1.37,-1.3837,-1.4089,-1.4234,-1.4144,-1.4232,-1.4371,-1.4482,-1.4482,-1.4566,-1.465,-1.465,-1.4657,-2.4626,-2.4442,-2.4247,-2.3996,-2.3628,-2.3105,-2.2721,-2.2429,-2.1895,-2.1415,-2.1055,-2.0496,-1.998,-1.953,-1.8997,-1.8422,-1.7814,-1.7214,-1.6667,-1.6095,-1.5567,-1.5187,-1.4789,-1.443,-1.4057,-1.3705,-1.3314,-1.288,-1.2559,-1.2135,-1.1578,-1.1074,-1.0718,-1.0462,-1.0306,-1.0295,-1.0318,-1.0332,-1.0232,-1.0287,-1.0377,-1.0394,-1.0493,-1.0566,-1.0547,-1.0554,-1.0573,-1.0418,-1.0301,-1.0238,-1.0174,-1.0047,-1.0053,-0.9996,-1.0027,-1.0136,-1.0174,-1.0091,-1.0055,-1.003,-0.9932,-0.9773,-0.9796,-0.9965,-1.0074,-1.0232,-1.0436,-1.0623,-1.0805,-1.1108,-1.1253,-1.1503,-1.181,-1.1855,-1.1855,-1.1855,-1.1922,-1.1848,-1.1781,-1.1781,-1.1781,-1.1706,-1.1632,-1.1706,-1.1706,-1.1706,-1.1713,-1.1719,-1.1868,-1.2022,-1.2223,-1.223,-1.2182,-1.2302,-1.2447,-1.2529,-1.2583,-1.2707,-1.2969,-1.3206,-1.3292,-1.3391,-1.3428,-1.3596,-1.3821,-1.3824,-1.3678,-1.3808,-1.3984,-1.3815,-1.373,-1.3815,-1.3899,-1.3984,-1.4068,-2.4528,-2.4302,-2.4096,-2.3771,-2.3224,-2.259,-2.2153,-2.1878,-2.1477,-2.1071,-2.0679,-2.0085,-1.9588,-1.9109,-1.8539,-1.7948,-1.7297,-1.6808,-1.625,-1.5656,-1.504,-1.4697,-1.4337,-1.3905,-1.3563,-1.3218,-1.2832,-1.2452,-1.2076,-1.1528,-1.0972,-1.0769,-1.0411,-1.0194,-1.0068,-1.0038,-1.005,-1.0143,-1.0172,-1.0251,-1.034,-1.0453,-1.0437,-1.0547,-1.0494,-1.0408,-1.0371,-1.0047,-0.9983,-0.9919,-0.9856,-0.9786,-0.9765,-0.975,-0.9782,-0.9862,-0.992,-0.9929,-0.984,-0.9875,-0.9834,-0.981,-0.9803,-0.9979,-1.0025,-1.0146,-1.0152,-1.0263,-1.055,-1.0815,-1.0906,-1.1083,-1.1169,-1.1329,-1.1329,-1.126,-1.1254,-1.1254,-1.118,-1.1186,-1.1186,-1.1186,-1.1186,-1.126,-1.1186,-1.1111,-1.1079,-1.1139,-1.1352,-1.1559,-1.1721,-1.1784,-1.1815,-1.1777,-1.1945,-1.2145,-1.2307,-1.2556,-1.2826,-1.3042,-1.3035,-1.3156,-1.3297,-1.3368,-1.3444,-1.3392,-1.3307,-1.3392,-1.3568,-1.3313,-1.3228,-1.3307,-1.3392,-1.3561,-1.3561,-2.4409,-2.4154,-2.3899,-2.3445,-2.2825,-2.2226,-2.1688,-2.126,-2.1007,-2.0681,-2.0258,-1.9624,-1.9147,-1.8655,-1.8068,-1.7489,-1.6879,-1.638,-1.5812,-1.522,-1.4686,-1.4233,-1.3858,-1.342,-1.3084,-1.2735,-1.2353,-1.1968,-1.1519,-1.1023,-1.0616,-1.0411,-1.0008,-0.9819,-0.9821,-0.9876,-0.9907,-0.9985,-1.0071,-1.0164,-1.0322,-1.0323,-1.0212,-1.0418,-1.0231,-0.9977,-0.9977,-0.9919,-0.9856,-0.9728,-0.96,-0.9396,-0.9397,-0.9431,-0.9481,-0.961,-0.9788,-0.985,-0.9859,-0.9893,-0.9789,-0.9828,-0.9895,-0.9974,-1.0018,-1.0099,-1.0224,-1.023,-1.0495,-1.056,-1.0642,-1.0707,-1.0852,-1.0887,-1.0887,-1.0887,-1.0887,-1.0887,-1.0812,-1.0812,-1.0812,-1.0818,-1.0767,-1.0773,-1.0813,-1.0598,-1.0684,-1.0775,-1.0858,-1.1053,-1.1272,-1.1379,-1.1486,-1.1486,-1.1688,-1.1873,-1.2128,-1.2385,-1.2614,-1.2759,-1.2681,-1.2899,-1.3215,-1.3058,-1.2887,-1.3058,-1.3058,-1.3058,-1.2973,-1.2887,-1.2802,-1.2796,-1.2881,-1.3052,-1.3045,-2.421,-2.3937,-2.3376,-2.291,-2.2544,-2.1895,-2.1306,-2.0797,-2.041,-2.0065,-1.966,-1.9147,-1.8655,-1.8133,-1.7585,-1.7005,-1.6454,-1.5932,-1.5311,-1.4777,-1.4233,-1.38,-1.342,-1.2997,-1.2608,-1.2264,-1.1868,-1.1377,-1.093,-1.0522,-1.0229,-0.9933,-0.9773,-0.9824,-0.9632,-0.9714,-0.9887,-0.9801,-0.994,-1.0014,-1.0056,-1.0121,-1.0072,-1.004,-0.9849,-0.9652,-0.9524,-0.9402,-0.9274,-0.9151,-0.9145,-0.9179,-0.9363,-0.9365,-0.9599,-0.9814,-0.9856,-0.9908,-0.9929,-0.9889,-0.9889,-0.9849,-0.9851,-0.9963,-1.0038,-1.0211,-1.0256,-1.0268,-1.0279,-1.0313,-1.0347,-1.0398,-1.0455,-1.046,-1.0466,-1.0541,-1.0541,-1.0477,-1.0477,-1.0477,-1.0472,-1.0419,-1.0301,-1.0368,-1.0379,-1.0428,-1.0491,-1.0498,-1.0418,-1.0561,-1.0732,-1.0878,-1.1181,-1.1278,-1.1396,-1.1526,-1.1741,-1.1928,-1.2122,-1.2266,-1.2295,-1.2466,-1.2637,-1.2381,-1.2295,-1.2466,-1.2552,-1.2381,-1.2295,-1.2381,-1.246,-1.246,-1.2375,-1.2375,-1.2454,-2.4039,-2.3692,-2.306,-2.2588,-2.2198,-2.1615,-2.1071,-2.0514,-1.998,-1.9457,-1.9072,-1.8669,-1.8226,-1.7652,-1.7131,-1.6552,-1.602,-1.549,-1.4915,-1.4326,-1.3847,-1.343,-1.2997,-1.2569,-1.2166,-1.1778,-1.1267,-1.0769,-1.0355,-1.0249,-1.0037,-0.9785,-0.9881,-0.979,-0.9562,-0.9794,-0.9765,-0.9569,-0.9724,-0.9709,-0.9664,-0.9658,-0.9722,-0.9652,-0.946,-0.9332,-0.9204,-0.9081,-0.9017,-0.9009,-0.906,-0.8964,-0.9091,-0.922,-0.9368,-0.9502,-0.9647,-0.9782,-0.9804,-0.9846,-0.9771,-0.9695,-0.9695,-0.9588,-0.9593,-0.9772,-0.9916,-0.9921,-1.0071,-1.0099,-1.0024,-1.0062,-1.01,-1.0149,-1.0044,-1.0076,-1.0162,-1.0163,-1.0163,-1.0168,-1.0163,-1.0163,-1.0111,-1.0121,-1.0115,-1.0121,-1.0201,-1.0326,-1.0264,-1.0213,-1.0316,-1.0414,-1.0723,-1.0885,-1.0816,-1.098,-1.1203,-1.1466,-1.1693,-1.1866,-1.2032,-1.2037,-1.2043,-1.1952,-1.1952,-1.2037,-1.2043,-1.1866,-1.1957,-1.2123,-1.2123,-1.2037,-1.1952,-1.1866,-1.1946,-2.384,-2.345,-2.2816,-2.2298,-2.1866,-2.137,-2.0828,-2.0258,-1.9624,-1.8997,-1.8422,-1.8135,-1.7707,-1.7201,-1.6655,-1.6064,-1.5546,-1.5085,-1.4512,-1.3894,-1.3399,-1.2987,-1.2559,-1.2126,-1.1719,-1.1217,-1.071,-1.0423,-1.0083,-0.9997,-0.9871,-0.982,-0.9802,-0.9735,-0.9806,-0.9765,-0.955,-0.9427,-0.9396,-0.9268,-0.9204,-0.9268,-0.9332,-0.9268,-0.9081,-0.8952,-0.8958,-0.8894,-0.8894,-0.8909,-0.892,-0.8937,-0.8944,-0.9101,-0.9192,-0.93,-0.9345,-0.9422,-0.9397,-0.9397,-0.9397,-0.9322,-0.9322,-0.9322,-0.9322,-0.9397,-0.9544,-0.962,-0.9765,-0.9841,-0.9765,-0.9769,-0.9807,-0.9844,-0.9754,-0.9746,-0.9867,-0.9887,-0.9892,-0.9892,-0.9892,-0.9887,-0.9897,-0.9907,-0.9866,-0.9866,-0.9935,-1.0035,-1.0124,-1.0174,-1.0209,-1.0224,-1.0388,-1.0409,-1.0423,-1.0687,-1.0945,-1.1047,-1.1251,-1.1516,-1.1602,-1.1516,-1.1521,-1.1693,-1.1693,-1.1607,-1.1693,-1.1521,-1.1693,-1.178,-1.1607,-1.1516,-1.1516,-1.1429,-1.1521,-2.3518,-2.2985,-2.2483,-2.201,-2.1584,-2.1087,-2.0496,-1.9874,-1.9281,-1.8602,-1.7988,-1.7449,-1.7034,-1.6795,-1.617,-1.5668,-1.5198,-1.4686,-1.4118,-1.3515,-1.3064,-1.254,-1.2067,-1.1569,-1.1217,-1.0667,-1.02,-0.9955,-0.9843,-0.9707,-0.9603,-0.965,-0.9761,-0.9643,-0.9328,-0.9283,-0.9319,-0.9139,-0.9017,-0.8888,-0.8765,-0.8823,-0.9017,-0.8952,-0.877,-0.8641,-0.8576,-0.8312,-0.8296,-0.84,-0.8669,-0.878,-0.8857,-0.9,-0.9069,-0.91,-0.9145,-0.9155,-0.9094,-0.9094,-0.9094,-0.9094,-0.9094,-0.9094,-0.917,-0.917,-0.9241,-0.9241,-0.9316,-0.9397,-0.9423,-0.9576,-0.9625,-0.9746,-0.9677,-0.9766,-0.9794,-0.9814,-0.9814,-0.9814,-0.9814,-0.9736,-0.9664,-0.9722,-0.975,-0.9784,-0.979,-0.9961,-0.9976,-1.0024,-1.0062,-1.0062,-1.0058,-1.025,-1.0361,-1.0534,-1.0712,-1.0722,-1.0814,-1.1079,-1.1079,-1.0906,-1.0992,-1.117,-1.117,-1.0992,-1.1079,-1.1257,-1.117,-1.1165,-1.0992,-1.0906,-1.0992,-1.1079,-1.117]},{"header":{"parameterUnit":"m.s-1","parameterCategory":1,"la1":31.0,"la2":29.5877,"lo1":-88.7671,"lo2":-86.6584,"dy":0.0162,"dx":0.0185,"nx":115,"ny":88,"refTime":"2023-06-23T12:00:00:Z","depth":0,"parameterNumber":3,"parameterNumberName":"V-component_of_WINDS"},"data":[0.0,0.0,0.0,0.0,0.0,0.0,0.0,0.0,0.0,0.0,0.0,0.0,0.0,0.0,0.0,0.0,0.0,0.0,0.0,0.0,0.0,0.0,0.0,0.0,0.0,0.0,0.0,0.0,0.0,0.0,0.0,0.0,0.0,0.0,0.0,0.0,0.0,0.0,0.0,0.0,0.0,0.0,0.0,0.0,0.0,0.0,0.0,0.0,0.0,0.0,0.0,0.0,0.0,0.0,0.0,0.0,0.0,0.0,0.0,0.0,0.0,0.0,0.0,0.0,0.0,0.0,0.0,0.0,0.0,0.0,0.0,0.0,0.0,0.0,0.0,0.0,0.0,0.0,0.0,0.0,0.0,0.0,0.0,0.0,0.0,0.0,0.0,0.0,0.0,0.0,0.0,0.0,0.0,0.0,0.0,0.0,0.0,0.0,0.0,0.0,0.0,0.0,0.0,0.0,0.0,0.0,0.0,0.0,0.0,0.0,0.0,0.0,0.0,0.0,0.0,0.0,0.0,0.0,0.0,0.0,0.0,0.0,0.0,0.0,0.0,0.0,0.0,0.0,0.0,0.0,0.0,0.0,0.0,0.0,0.0,0.0,0.0,0.0,0.0,0.0,0.0,0.0,0.0,0.0,0.0,0.0,0.0,0.0,0.0,0.0,0.0,0.0,0.0,0.0,0.0,0.0,0.0,0.0,0.0,0.0,0.0,0.0,0.0,0.0,0.0,0.0,0.0,0.0,0.0,0.0,0.0,0.0,0.0,0.0,0.0,0.0,0.0,0.0,0.0,0.0,0.0,0.0,0.0,0.0,0.0,0.0,0.0,0.0,0.0,0.0,0.0,0.0,0.0,0.0,0.0,0.0,0.0,0.0,0.0,0.0,0.0,0.0,0.0,0.0,0.0,0.0,0.0,0.0,0.0,0.0,0.0,0.0,0.0,0.0,0.0,0.0,0.0,0.0,0.0,0.0,0.0,0.0,0.0,0.0,0.0,0.0,0.0,0.0,0.0,0.0,0.0,0.0,0.0,0.0,0.0,0.0,0.0,0.0,0.0,0.0,0.0,0.0,0.0,0.0,0.0,0.0,0.0,0.0,0.0,0.0,0.0,0.0,0.0,0.0,0.0,0.0,0.0,0.0,0.0,0.0,0.0,0.0,0.0,0.0,0.0,0.0,0.0,0.0,0.0,0.0,0.0,0.0,0.0,0.0,0.0,0.0,0.0,0.0,0.0,0.0,0.0,0.0,0.0,0.0,0.0,0.0,0.0,0.0,0.0,0.0,0.0,0.0,0.0,0.0,0.0,0.0,0.0,0.0,0.0,0.0,0.0,0.0,0.0,0.0,0.0,0.0,0.0,0.0,0.0,0.0,0.0,0.0,0.0,0.0,0.0,0.0,0.0,0.0,0.0,0.0,0.0,0.0,0.0,0.0,0.0,0.0,0.0,0.0,0.0,0.0,0.0,0.0,0.0,0.0,0.0,0.0,0.0,0.0,0.0,0.0,0.0,0.0,0.0,0.0,0.0,0.0,0.0,0.0,0.0,0.0,0.0,0.0,0.0,0.0,0.0,0.0,0.0,0.0,0.0,0.0,0.0,0.0,0.0,0.0,0.0,0.0,0.0,0.0,0.0,0.0,0.0,0.0,0.0,0.0,0.0,0.0,0.0,0.0,0.0,0.0,0.0,0.0,0.0,0.0,0.0,0.0,0.0,0.0,0.0,0.0,0.0,0.0,0.0,0.0,0.0,0.0,0.0,0.0,0.0,0.0,0.0,0.0,0.0,0.0,0.0,0.0,0.0,0.0,0.0,0.0,0.0,0.0,0.0,0.0,0.0,0.0,0.0,0.0,0.0,0.0,0.0,0.0,0.0,0.0,0.0,0.0,0.0,0.0,0.0,0.0,0.0,0.0,0.0,0.0,0.0,0.0,0.0,0.0,0.0,0.0,0.0,0.0,0.0,0.0,0.0,0.0,0.0,0.0,0.0,0.0,0.0,0.0,0.0,0.0,0.0,0.0,0.0,0.0,0.0,0.0,0.0,0.0,0.0,0.0,0.0,0.0,0.0,0.0,0.0,0.0,0.0,0.0,0.0,0.0,0.0,0.0,0.0,0.0,0.0,0.0,0.0,0.0,0.0,0.0,0.0,0.0,0.0,0.0,0.0,0.0,0.0,0.0,0.0,0.0,0.0,0.0,0.0,0.0,0.0,0.0,0.0,0.0,0.0,0.0,0.0,0.0,0.0,0.0,0.0,0.0,0.0,0.0,0.0,0.0,0.0,0.0,0.0,0.0,0.0,0.0,0.0,0.0,0.0,0.0,0.0,0.0,0.0,0.0,0.0,0.0,0.0,0.0,0.0,0.0,0.0,0.0,0.0,0.0,0.0,0.0,0.0,0.0,0.0,0.0,0.0,0.0,0.0,0.0,0.0,0.0,0.0,0.0,0.0,0.0,0.0,0.0,0.0,0.0,0.0,0.0,0.0,0.0,0.0,0.0,0.0,0.0,0.0,0.0,0.0,0.0,0.0,0.0,0.0,0.0,0.0,0.0,0.0,0.0,0.0,0.0,0.0,0.0,0.0,0.0,0.0,0.0,0.0,0.0,0.0,0.0,0.0,0.0,0.0,0.0,0.0,0.0,0.0,0.0,0.0,0.0,0.0,0.0,0.0,0.0,0.0,0.0,0.0,0.0,0.0,0.0,0.0,0.0,0.0,0.0,0.0,0.0,0.0,0.0,0.0,0.0,0.0,0.0,0.0,0.0,0.0,0.0,0.0,0.0,0.0,0.0,0.0,0.0,0.0,0.0,0.0,0.0,0.0,0.0,0.0,0.0,0.0,0.0,0.0,0.0,0.0,0.0,0.0,0.0,0.0,0.0,0.0,0.0,0.0,0.0,0.0,0.0,0.0,0.0,0.0,0.0,0.0,0.0,0.0,0.0,0.0,0.0,0.0,0.0,0.0,0.0,0.0,0.0,0.0,0.0,0.0,0.0,0.0,0.0,0.0,0.0,0.0,0.0,0.0,0.0,0.0,0.0,0.0,0.0,0.0,0.0,0.0,0.0,0.0,0.0,0.0,0.0,0.0,0.0,0.0,0.0,0.0,0.0,0.0,0.0,0.0,0.0,0.0,0.0,0.0,0.0,0.0,0.0,0.0,0.0,0.0,0.0,0.0,0.0,0.0,0.0,0.0,0.0,0.0,0.0,0.0,0.0,0.0,0.0,0.0,0.0,0.0,0.0,0.0,0.0,0.0,0.0,0.0,0.0,0.0,0.0,0.0,0.0,0.0,0.0,0.0,0.0,0.0,0.0,0.0,0.0,0.0,0.0,0.0,0.0,0.0,0.0,0.0,0.0,0.0,0.0,0.0,0.0,0.0,0.0,0.0,0.0,0.0,0.0,0.0,0.0,0.0,0.0,0.0,0.0,0.0,0.0,0.0,0.0,0.0,0.0,0.0,0.0,0.0,0.0,0.0,0.0,0.0,0.0,0.0,0.0,0.0,0.0,0.0,0.0,0.0,0.0,0.0,0.0,0.0,0.0,0.0,0.0,0.0,0.0,0.0,0.0,0.0,0.0,0.0,0.0,0.0,0.0,0.0,0.0,0.0,0.0,0.0,0.0,0.0,0.0,0.0,0.0,0.0,0.0,0.0,0.0,0.0,0.0,0.0,0.0,0.0,0.0,0.0,0.0,0.0,0.0,0.0,0.0,0.0,0.0,0.0,0.0,0.0,0.0,0.0,0.0,0.0,0.0,0.0,0.0,0.0,0.0,0.0,0.0,0.0,0.0,0.0,0.0,0.0,0.0,0.0,0.0,0.0,0.0,0.0,0.0,0.0,0.0,0.0,0.0,0.0,0.0,0.0,0.0,0.0,0.0,0.0,0.0,0.0,0.0,0.0,0.0,0.0,0.0,0.0,0.0,0.0,0.0,0.0,0.0,0.0,0.0,0.0,0.0,0.0,0.0,0.0,0.0,0.0,0.0,0.0,0.0,0.0,0.0,0.0,0.0,0.0,0.0,0.0,0.0,0.0,0.0,0.0,0.0,0.0,0.0,0.0,0.0,0.0,0.0,0.0,0.0,0.0,0.0,0.0,0.0,0.0,0.0,0.0,0.0,0.0,0.0,0.0,0.0,0.0,0.0,0.0,0.0,0.0,0.0,0.0,0.0,0.0,0.0,0.0,0.0,0.0,0.0,0.0,0.0,0.0,0.0,0.0,0.0,0.0,0.0,0.0,0.0,0.0,0.0,0.0,0.0,0.0,0.0,0.0,0.0,-2.0118,0.0,0.0,0.0,0.0,0.0,0.0,0.0,0.0,0.0,0.0,0.0,0.0,0.0,0.0,0.0,0.0,0.0,0.0,0.0,0.0,0.0,0.0,0.0,0.0,0.0,0.0,0.0,0.0,0.0,0.0,0.0,0.0,0.0,0.0,0.0,0.0,0.0,0.0,0.0,0.0,0.0,0.0,0.0,0.0,0.0,0.0,0.0,0.0,0.0,0.0,0.0,0.0,0.0,0.0,0.0,0.0,0.0,0.0,0.0,0.0,0.0,0.0,0.0,0.0,0.0,0.0,0.0,0.0,0.0,0.0,0.0,0.0,0.0,0.0,0.0,0.0,0.0,0.0,0.0,0.0,0.0,0.0,0.0,0.0,0.0,0.0,0.0,0.0,0.0,0.0,0.0,0.0,0.0,0.0,0.0,0.0,0.0,0.0,0.0,0.0,0.0,0.0,0.0,0.0,0.0,0.0,0.0,0.0,0.0,0.0,-1.2611,-1.4409,-1.5909,-1.7613,-1.9367,0.0,0.0,0.0,0.0,0.0,0.0,0.0,0.0,0.0,0.0,0.0,0.0,0.0,0.0,0.0,0.0,0.0,0.0,0.0,0.0,0.0,0.0,0.0,0.0,0.0,0.0,0.0,0.0,0.0,0.0,0.0,0.0,0.0,0.0,0.0,0.0,0.0,0.0,0.0,0.0,0.0,0.0,0.0,0.0,0.0,0.0,0.0,0.0,0.0,0.0,0.0,0.0,0.0,0.0,0.0,0.0,0.0,0.0,0.0,0.0,0.0,0.0,0.0,0.0,0.0,0.0,0.0,0.0,0.0,0.0,0.0,0.0,0.0,0.0,0.0,0.0,0.0,0.0,0.0,0.0,0.0,0.0,0.0,0.0,0.0,0.0,0.0,0.0,0.0,0.0,0.0,0.0,0.0,0.0,0.0,0.0,0.0,0.0,0.0,0.0,0.0,0.0,0.0,0.0,0.0,0.0,0.0,0.0,0.0,0.0,0.0,0.0,-1.4815,-1.6582,-1.8773,0.0,0.0,0.0,0.0,0.0,0.0,0.0,0.0,0.0,0.0,0.0,0.0,0.0,0.0,0.0,0.0,0.0,0.0,0.0,0.0,0.0,0.0,0.0,0.0,0.0,0.0,0.0,0.0,0.0,0.0,0.0,0.0,0.0,0.0,0.0,0.0,0.0,0.0,0.0,0.0,0.0,0.0,0.0,0.0,0.0,0.0,0.0,0.0,0.0,0.0,0.0,0.0,0.0,0.0,0.0,0.0,0.0,0.0,0.0,0.0,0.0,0.0,0.0,0.0,0.0,0.0,0.0,0.0,0.0,0.0,0.0,0.0,0.0,0.0,0.0,0.0,0.0,0.0,0.0,0.0,0.0,0.0,0.0,0.0,0.0,0.0,0.0,0.0,0.0,0.0,0.0,0.0,0.0,0.0,0.0,0.0,0.0,0.0,0.0,0.0,0.0,0.0,0.0,0.0,0.0,0.0,0.0,0.0,0.0,0.0,-1.028,-1.2276,-1.3553,0.0,-1.8578,0.0,0.0,0.0,0.0,0.0,0.0,0.0,0.0,0.0,0.0,0.0,0.0,0.0,0.0,0.0,0.0,0.0,0.0,0.0,0.0,0.0,0.0,0.0,0.0,0.0,0.0,0.0,0.0,0.0,0.0,0.0,0.0,0.0,0.0,0.0,0.0,0.0,0.0,0.0,0.0,0.0,0.0,0.0,0.0,0.0,0.0,0.0,0.0,0.0,0.0,0.0,0.0,0.0,0.0,0.0,0.0,0.0,0.0,0.0,0.0,0.0,0.0,0.0,0.0,0.0,0.0,0.0,0.0,0.0,0.0,0.0,0.0,0.0,0.0,0.0,0.0,0.0,0.0,0.0,0.0,0.0,0.0,0.0,0.0,0.0,0.0,0.0,0.0,0.0,0.0,0.0,0.0,0.0,0.0,0.0,0.0,0.0,0.0,0.0,0.0,0.0,0.0,0.0,0.0,0.0,0.0,0.0,0.0,0.0,0.0,-0.8934,-1.0983,-1.3587,-1.6034,0.0,0.0,0.0,0.0,0.0,0.0,0.0,0.0,0.0,0.0,0.0,0.0,0.0,0.0,0.0,0.0,0.0,0.0,0.0,0.0,0.0,0.0,0.0,0.0,0.0,0.0,0.0,0.0,0.0,0.0,0.0,0.0,0.0,0.0,0.0,0.0,0.0,0.0,0.0,0.0,0.0,0.0,0.0,0.0,0.0,0.0,0.0,0.0,0.0,0.0,0.0,0.0,0.0,0.0,0.0,0.0,0.0,0.0,0.0,0.0,0.0,0.0,0.0,0.0,0.0,0.0,0.0,0.0,0.0,0.0,0.0,0.0,0.0,0.0,0.0,0.0,0.0,0.0,0.0,0.0,0.0,0.0,0.0,0.0,0.0,0.0,0.0,0.0,0.0,0.0,0.0,0.0,0.0,0.0,0.0,0.0,0.0,0.0,0.0,0.0,0.0,0.0,0.0,0.0,0.0,0.0,0.0,0.0,0.0,0.0,-0.6217,-0.7766,-1.0309,-1.3521,-1.5922,-1.7458,0.0,0.0,0.0,0.0,0.0,0.0,0.0,0.0,0.0,0.0,0.0,0.0,0.0,0.0,0.0,0.0,0.0,0.0,0.0,0.0,0.0,0.0,0.0,0.0,0.0,0.0,0.0,0.0,0.0,0.0,0.0,0.0,0.0,0.0,0.0,0.0,0.0,0.0,0.0,0.0,0.0,0.0,0.0,0.0,0.0,0.0,0.0,0.0,0.0,0.0,0.0,0.0,0.0,0.0,0.0,0.0,0.0,0.0,0.0,0.0,0.0,0.0,0.0,0.0,0.0,0.0,0.0,0.0,0.0,0.0,0.0,0.0,0.0,0.0,0.0,0.0,0.0,0.0,0.0,0.0,0.0,0.0,0.0,0.0,0.0,0.0,0.0,0.0,0.0,0.0,0.0,0.0,0.0,0.0,0.0,0.0,0.0,0.0,0.0,0.0,0.0,0.0,0.0,0.0,0.0,0.0,0.0,0.0,-0.4055,-0.487,-0.698,-1.0386,-1.2916,-1.4757,0.0,0.0,0.0,0.0,0.0,0.0,0.0,0.0,0.0,0.0,0.0,0.0,0.0,0.0,0.0,0.0,0.0,0.0,0.0,0.0,0.0,0.0,0.0,0.0,0.0,0.0,0.0,0.0,0.0,0.0,0.0,0.0,0.0,0.0,0.0,0.0,0.0,0.0,0.0,0.0,0.0,0.0,0.0,0.0,0.0,0.0,0.0,0.0,0.0,0.0,0.0,0.0,0.0,0.0,0.0,0.0,0.0,0.0,0.0,0.0,0.0,0.0,0.0,0.0,0.0,0.0,0.0,0.0,0.0,0.0,0.0,0.0,0.0,0.0,0.0,0.0,0.0,0.0,0.0,0.0,0.0,0.0,0.0,0.0,0.0,0.0,0.0,0.0,0.0,0.0,0.0,0.0,0.0,0.0,0.0,0.0,0.0,0.0,0.0,0.0,0.0,0.0,0.0,0.0,0.0,0.0,0.0,0.0,0.0,-0.32,-0.5133,-0.734,-0.9571,-1.1778,-1.376,0.0,0.0,0.0,0.0,0.0,0.0,0.0,0.0,0.0,0.0,0.0,0.0,0.0,0.0,0.0,0.0,0.0,0.0,0.0,0.0,0.0,0.0,0.0,0.0,0.0,0.0,0.0,0.0,0.0,0.0,0.0,0.0,0.0,0.0,0.0,0.0,0.0,0.0,0.0,0.0,0.0,0.0,0.0,0.0,0.0,0.0,0.0,0.0,0.0,0.0,0.0,0.0,0.0,0.0,0.0,0.0,0.0,0.0,0.0,0.0,0.0,0.0,0.0,0.0,0.0,0.0,0.0,0.0,0.0,0.0,0.0,0.0,0.0,0.0,0.0,0.0,0.0,0.0,0.0,0.0,0.0,0.0,0.0,0.0,0.0,0.0,0.0,0.0,0.0,0.0,0.0,0.0,0.0,0.0,0.0,0.0,0.0,0.0,0.0,0.0,0.0,0.0,0.0,0.0,0.0,0.0,0.0,0.0,0.0,-0.2486,0.0,-0.7049,-0.8679,-1.074,-1.2792,0.0,0.0,0.0,0.0,0.0,0.0,0.0,0.0,0.0,0.0,0.0,0.0,0.0,0.0,0.0,0.0,0.0,0.0,0.0,0.0,0.0,0.0,0.0,0.0,0.0,0.0,0.0,0.0,0.0,0.0,0.0,0.0,0.0,0.0,0.0,0.0,0.0,0.0,0.0,0.0,0.0,0.0,0.0,0.0,0.0,0.0,0.0,0.0,0.0,0.0,0.0,0.0,0.0,0.0,0.0,0.0,0.0,0.0,0.0,0.0,0.0,0.0,0.0,0.0,0.0,0.0,0.0,0.0,0.0,0.0,0.0,0.0,0.0,0.0,0.0,0.0,0.0,0.0,0.0,0.0,0.0,0.0,0.0,0.0,0.0,0.0,0.0,0.0,0.0,0.0,0.0,0.0,0.0,0.0,0.0,0.0,0.0,0.0,0.0,0.0,0.0,0.0,0.0,0.0,0.0,0.0,0.0,0.0,-0.1217,-0.2072,-0.397,-0.5871,-0.7716,-0.9907,-1.1933,0.0,0.0,0.0,0.0,0.0,0.0,0.0,0.0,0.0,0.0,0.0,0.0,0.0,0.0,0.0,0.0,0.0,0.0,0.0,0.0,0.0,0.0,0.0,0.0,0.0,0.0,0.0,0.0,0.0,0.0,0.0,0.0,0.0,0.0,0.0,0.0,0.0,0.0,0.0,0.0,0.0,0.0,0.0,0.0,0.0,0.0,0.0,0.0,0.0,0.0,0.0,0.0,0.0,0.0,0.0,0.0,0.0,0.0,0.0,0.0,0.0,0.0,0.0,0.0,0.0,0.0,0.0,0.0,0.0,0.0,0.0,0.0,0.0,0.0,0.0,0.0,0.0,0.0,0.0,0.0,0.0,0.0,0.0,0.0,0.0,0.0,0.0,0.0,0.0,0.0,0.0,0.0,0.0,0.0,0.0,0.0,0.0,0.0,0.0,0.0,0.0,0.0,0.0,0.0,0.0,0.0,0.0,0.0,0.0,-0.1443,-0.3157,-0.4989,-0.7014,-0.9077,-1.1124,0.0,0.0,0.0,0.0,0.0,0.0,0.0,0.0,0.0,0.0,0.0,0.0,0.0,0.0,0.0,0.0,0.0,0.0,0.0,0.0,0.0,0.0,0.0,0.0,0.0,0.0,0.0,0.0,0.0,0.0,0.0,0.0,0.0,0.0,0.0,0.0,0.0,0.0,0.0,0.0,0.0,0.0,0.0,0.0,0.0,0.0,0.0,0.0,0.0,0.0,0.0,0.0,0.0,0.0,0.0,0.0,0.0,0.0,0.0,0.0,0.0,0.0,0.0,0.0,0.0,0.0,0.0,0.0,0.0,0.0,0.0,0.0,0.0,0.0,0.0,0.0,0.0,0.0,0.0,0.0,0.0,0.0,0.0,0.0,0.0,0.0,0.0,0.0,0.0,0.0,0.0,0.0,0.0,0.0,0.0,0.0,0.0,0.0,0.0,0.0,0.0,0.0,0.0,0.0,0.0,0.0,0.0,0.0,0.0,-0.0083,-0.1828,-0.3732,-0.5894,-0.8026,-1.0269,-1.2466,0.0,0.0,0.0,0.0,0.0,0.0,0.0,0.0,0.0,0.0,0.0,0.0,0.0,0.0,0.0,0.0,0.0,0.0,0.0,0.0,0.0,0.0,0.0,0.0,0.0,0.0,0.0,0.0,0.0,0.0,0.0,0.0,0.0,0.0,0.0,0.0,0.0,0.0,0.0,0.0,0.0,0.0,0.0,0.0,0.0,0.0,0.0,0.0,0.0,0.0,0.0,0.0,0.0,0.0,0.0,0.0,0.0,0.0,0.0,0.0,0.0,0.0,0.0,0.0,0.0,0.0,0.0,0.0,0.0,0.0,0.0,0.0,0.0,0.0,0.0,0.0,0.0,0.0,0.0,0.0,0.0,0.0,0.0,0.0,0.0,0.0,0.0,0.0,0.0,0.0,0.0,0.0,0.0,0.0,0.0,0.0,0.0,0.0,0.0,0.0,0.0,0.0,0.0,0.0,0.0,0.0,0.0,0.0,0.1864,-0.0172,-0.2201,-0.4308,-0.6867,-0.9298,0.0,0.0,0.0,0.0,0.0,0.0,0.0,0.0,0.0,0.0,0.0,0.0,0.0,0.0,0.0,0.0,0.0,0.0,0.0,0.0,0.0,0.0,0.0,0.0,0.0,0.0,0.0,0.0,0.0,0.0,0.0,0.0,0.0,0.0,0.0,0.0,0.0,0.0,0.0,0.0,0.0,0.0,0.0,0.0,0.0,0.0,0.0,0.0,0.0,0.0,0.0,0.0,0.0,0.0,0.0,0.0,0.0,0.0,0.0,0.0,0.0,0.0,0.0,0.0,0.0,0.0,0.0,0.0,0.0,0.0,0.0,0.0,0.0,0.0,0.0,0.0,0.0,0.0,0.0,0.0,0.0,0.0,0.0,0.0,0.0,0.0,0.0,0.0,0.0,0.0,0.0,0.0,0.0,0.0,0.0,0.0,0.0,0.0,0.0,0.0,0.0,0.0,0.0,0.0,0.0,0.0,0.0,0.0,0.0,0.2852,0.1801,-0.0251,-0.3365,-0.5816,-0.8348,0.0,0.0,0.0,0.0,0.0,0.0,0.0,0.0,0.0,0.0,0.0,0.0,0.0,0.0,0.0,0.0,0.0,0.0,0.0,0.0,0.0,0.0,0.0,0.0,0.0,0.0,0.0,0.0,0.0,0.0,0.0,0.0,0.0,0.0,0.0,0.0,0.0,0.0,0.0,0.0,0.0,0.0,0.0,0.0,0.0,0.0,0.0,0.0,0.0,0.0,0.0,0.0,0.0,0.0,0.0,0.0,0.0,0.0,0.0,0.0,0.0,0.0,0.0,0.0,0.0,0.0,0.0,0.0,0.0,0.0,0.0,0.0,0.0,0.0,0.0,0.0,0.0,0.0,0.0,0.0,0.0,0.0,0.0,0.0,0.0,0.0,0.0,0.0,0.0,0.0,0.0,0.0,0.0,0.0,0.0,0.0,0.0,0.0,0.0,0.0,0.0,0.0,0.0,0.0,0.0,0.0,0.0,0.0,0.3321,0.3398,0.274,0.1025,-0.1813,-0.4415,-0.7235,0.0,0.0,0.0,0.0,0.0,0.0,0.0,0.0,0.0,0.0,0.0,0.0,0.0,0.0,0.0,0.0,0.0,0.0,0.0,0.0,0.0,0.0,0.0,0.0,0.0,0.0,0.0,0.0,0.0,0.0,0.0,0.0,0.0,0.0,0.0,0.0,0.0,0.0,0.0,0.0,0.0,0.0,0.0,0.0,0.0,0.0,0.0,0.0,0.0,0.0,0.0,0.0,0.0,0.0,0.0,0.0,0.0,0.0,0.0,0.0,0.0,0.0,0.0,0.0,0.0,0.0,0.0,0.0,0.0,0.0,0.0,0.0,0.0,0.0,0.0,0.0,0.0,0.0,0.0,0.0,0.0,0.0,0.0,0.0,0.0,0.0,0.0,0.0,0.0,0.0,0.0,0.0,0.0,0.0,0.0,0.0,0.0,0.0,0.0,0.0,0.0,0.0,0.0,0.0,0.0,0.0,0.0,0.0,0.348,0.3616,0.3086,0.1857,0.0,-0.3079,-0.6211,0.0,0.0,0.0,0.0,0.0,0.0,0.0,0.0,0.0,0.0,0.0,0.0,0.0,0.0,0.0,0.0,0.0,0.0,0.0,0.0,0.0,0.0,0.0,0.0,0.0,0.0,0.0,0.0,0.0,0.0,0.0,0.0,0.0,0.0,0.0,0.0,0.0,0.0,0.0,0.0,0.0,0.0,0.0,0.0,0.0,0.0,0.0,0.0,0.0,0.0,0.0,0.0,0.0,0.0,0.0,0.0,0.0,0.0,0.0,0.0,0.0,0.0,0.0,0.0,0.0,0.0,0.0,0.0,0.0,0.0,0.0,0.0,0.0,0.0,0.0,0.0,0.0,0.0,0.0,0.0,0.0,0.0,0.0,0.0,0.0,0.0,0.0,0.0,0.0,0.0,0.0,0.0,0.0,0.0,0.0,0.0,0.0,0.0,0.0,0.0,0.0,0.0,0.0,0.0,0.0,0.0,0.0,0.0,0.353,0.3896,0.3445,0.2313,0.0562,-0.2446,-0.5583,0.0,0.0,0.0,0.0,0.0,0.0,0.0,0.0,0.0,0.0,0.0,0.0,0.0,0.0,0.0,0.0,0.0,0.0,0.0,0.0,0.0,0.0,0.0,0.0,0.0,0.0,0.0,0.0,0.0,0.0,0.0,0.0,0.0,0.0,0.0,0.0,0.0,0.0,0.0,0.0,0.0,0.0,0.0,0.0,0.0,0.0,0.0,0.0,-2.1226,0.0,0.0,0.0,0.0,0.0,0.0,0.0,0.0,0.0,0.0,0.0,0.0,0.0,0.0,0.0,0.0,0.0,0.0,0.0,0.0,0.0,0.0,0.0,0.0,0.0,0.0,0.0,0.0,0.0,0.0,0.0,0.0,0.0,0.0,0.0,0.0,0.0,0.0,0.0,0.0,0.0,0.0,0.0,0.0,0.0,0.0,0.0,0.0,0.0,0.0,0.0,0.0,0.0,0.0,0.0,0.0,0.0,0.0,0.0,0.3406,0.3719,0.3309,0.2252,0.0548,-0.2232,-0.5296,0.0,0.0,0.0,0.0,0.0,0.0,0.0,0.0,0.0,0.0,0.0,0.0,0.0,0.0,0.0,0.0,0.0,0.0,0.0,0.0,0.0,0.0,0.0,0.0,0.0,0.0,0.0,0.0,0.0,0.0,0.0,0.0,0.0,0.0,0.0,0.0,0.0,0.0,0.0,0.0,0.0,0.0,0.0,0.0,0.0,0.0,0.0,0.0,0.0,0.0,0.0,0.0,0.0,0.0,0.0,0.0,0.0,0.0,0.0,0.0,0.0,0.0,0.0,0.0,0.0,0.0,0.0,0.0,0.0,0.0,0.0,0.0,0.0,0.0,0.0,0.0,0.0,0.0,0.0,0.0,0.0,0.0,0.0,0.0,0.0,0.0,0.0,0.0,0.0,0.0,0.0,0.0,0.0,0.0,0.0,0.0,0.0,0.0,0.0,0.0,0.0,0.0,0.0,0.0,0.0,0.0,0.0,0.2215,0.3058,0.3336,0.2976,0.1933,0.0268,-0.2266,-0.5304,-0.8729,0.0,0.0,0.0,0.0,0.0,0.0,0.0,0.0,0.0,0.0,0.0,0.0,0.0,0.0,0.0,0.0,0.0,0.0,0.0,0.0,0.0,0.0,0.0,0.0,0.0,0.0,0.0,0.0,0.0,0.0,0.0,0.0,0.0,0.0,0.0,0.0,0.0,0.0,-1.2232,-1.2886,0.0,0.0,0.0,0.0,0.0,0.0,0.0,0.0,-2.1541,0.0,0.0,0.0,0.0,0.0,0.0,0.0,0.0,0.0,0.0,0.0,0.0,0.0,0.0,0.0,0.0,0.0,0.0,0.0,0.0,0.0,0.0,0.0,0.0,0.0,0.0,0.0,0.0,0.0,0.0,0.0,0.0,0.0,0.0,0.0,0.0,0.0,0.0,0.0,0.0,0.0,0.0,0.0,0.0,0.0,0.0,0.0,0.0,0.0,0.0,0.0,0.0,0.0,0.0,0.0,0.0,0.0912,0.1969,0.2737,0.3107,0.2524,0.1448,-0.0201,-0.2865,-0.5789,-0.9029,0.0,0.0,0.0,0.0,0.0,0.0,0.0,0.0,0.0,0.0,0.0,0.0,0.0,0.0,0.0,0.0,0.0,0.0,0.0,0.0,0.0,0.0,0.0,0.0,0.0,0.0,0.0,0.0,0.0,0.0,0.0,0.0,0.0,0.0,0.0,0.0,0.0,0.0,0.0,-1.2592,-1.3576,0.0,0.0,0.0,0.0,0.0,0.0,0.0,0.0,-2.2866,0.0,0.0,0.0,0.0,0.0,0.0,0.0,0.0,0.0,0.0,0.0,0.0,0.0,0.0,0.0,0.0,0.0,0.0,0.0,0.0,0.0,0.0,0.0,0.0,0.0,0.0,0.0,0.0,0.0,0.0,0.0,0.0,0.0,0.0,0.0,0.0,0.0,0.0,0.0,0.0,0.0,0.0,0.0,0.0,0.0,0.0,0.0,0.0,0.0,0.0,0.0,0.0,0.0,0.0,0.0,0.0378,0.1418,0.2113,0.2525,0.1795,0.0748,-0.0804,-0.3502,-0.6439,0.0,0.0,0.0,0.0,0.0,0.0,0.0,0.0,0.0,0.0,0.0,0.0,0.0,0.0,0.0,0.0,0.0,0.0,0.0,0.0,0.0,0.0,0.0,0.0,0.0,0.0,0.0,0.0,0.0,0.0,0.0,0.0,0.0,0.0,0.0,0.0,0.0,0.0,0.0,0.0,-1.2565,-1.3495,-1.4502,0.0,0.0,0.0,0.0,0.0,0.0,-2.1846,-2.2768,0.0,0.0,0.0,0.0,0.0,0.0,0.0,0.0,0.0,0.0,0.0,0.0,0.0,0.0,0.0,0.0,0.0,0.0,0.0,0.0,0.0,0.0,0.0,0.0,0.0,0.0,0.0,0.0,0.0,0.0,0.0,0.0,0.0,0.0,0.0,0.0,0.0,0.0,0.0,0.0,0.0,0.0,0.0,0.0,0.0,0.0,0.0,0.0,0.0,0.0,0.0,0.0,0.0,0.0,0.0,-0.015,0.0806,0.15,0.174,0.102,0.0,-0.1471,-0.4199,-0.7078,0.0,0.0,0.0,0.0,0.0,0.0,0.0,0.0,0.0,0.0,0.0,0.0,0.0,0.0,0.0,0.0,0.0,0.0,0.0,0.0,0.0,0.0,0.0,0.0,0.0,0.0,0.0,0.0,0.0,0.0,0.0,0.0,0.0,0.0,0.0,0.0,0.0,0.0,0.0,0.0,0.0,-1.3534,-1.4592,-1.5534,0.0,0.0,0.0,0.0,-2.0711,-2.1765,0.0,0.0,0.0,0.0,0.0,0.0,0.0,0.0,0.0,0.0,0.0,0.0,0.0,0.0,0.0,0.0,0.0,0.0,0.0,0.0,0.0,0.0,0.0,0.0,0.0,0.0,0.0,0.0,0.0,0.0,0.0,0.0,0.0,0.0,0.0,0.0,0.0,0.0,0.0,0.0,0.0,0.0,0.0,0.0,0.0,0.0,0.0,0.0,0.0,0.0,0.0,0.0,0.0,0.0,0.0,0.0,-0.0659,0.0428,0.1042,0.1151,0.0471,-0.0604,-0.2007,-0.476,-0.7579,0.0,0.0,0.0,0.0,0.0,0.0,0.0,0.0,0.0,0.0,0.0,0.0,0.0,0.0,0.0,0.0,0.0,0.0,0.0,0.0,0.0,0.0,0.0,0.0,0.0,0.0,0.0,0.0,0.0,0.0,0.0,0.0,0.0,0.0,0.0,0.0,0.0,0.0,0.0,0.0,0.0,-1.3534,-1.4592,-1.5534,-1.6655,0.0,0.0,-1.9918,-2.0864,-2.1762,0.0,0.0,0.0,0.0,0.0,0.0,0.0,0.0,0.0,0.0,0.0,0.0,0.0,0.0,0.0,0.0,0.0,0.0,0.0,0.0,0.0,0.0,0.0,0.0,0.0,0.0,0.0,0.0,0.0,0.0,0.0,0.0,0.0,0.0,0.0,0.0,0.0,0.0,0.0,0.0,0.0,0.0,0.0,0.0,0.0,0.0,0.0,0.0,0.0,0.0,0.0,0.0,0.0,0.0,0.0,-0.2683,-0.1383,-0.0355,0.0276,0.0471,-0.0336,-0.1408,-0.2739,-0.553,-0.8229,0.0,0.0,0.0,0.0,0.0,0.0,0.0,0.0,0.0,0.0,0.0,0.0,0.0,0.0,0.0,0.0,0.0,0.0,0.0,0.0,0.0,0.0,0.0,0.0,0.0,0.0,0.0,0.0,0.0,0.0,0.0,0.0,0.0,0.0,0.0,0.0,0.0,0.0,0.0,0.0,0.0,0.0,-1.4298,-1.535,0.0,0.0,0.0,-1.9729,-2.0637,0.0,0.0,0.0,0.0,0.0,0.0,0.0,0.0,0.0,0.0,0.0,0.0,0.0,0.0,0.0,0.0,0.0,0.0,0.0,0.0,0.0,0.0,0.0,0.0,0.0,0.0,0.0,0.0,0.0,0.0,0.0,0.0,0.0,0.0,0.0,0.0,0.0,0.0,0.0,0.0,0.0,0.0,0.0,0.0,0.0,0.0,0.0,0.0,0.0,0.0,0.0,0.0,0.0,0.0,0.0,0.0,0.0,-0.2327,-0.1127,-0.048,-0.0336,-0.1076,-0.2078,-0.3476,-0.6123,0.0,0.0,0.0,0.0,0.0,0.0,0.0,0.0,0.0,0.0,0.0,0.0,0.0,0.0,0.0,0.0,0.0,0.0,0.0,0.0,0.0,0.0,0.0,0.0,0.0,0.0,0.0,-1.3224,0.0,0.0,0.0,0.0,0.0,0.0,0.0,0.0,0.0,0.0,0.0,0.0,0.0,0.0,-1.346,-1.4286,-1.5262,-1.6341,0.0,0.0,-1.9502,-2.0412,-2.1338,-2.2176,0.0,0.0,0.0,0.0,0.0,0.0,0.0,0.0,0.0,0.0,0.0,0.0,0.0,0.0,0.0,0.0,0.0,0.0,0.0,0.0,0.0,0.0,0.0,0.0,0.0,0.0,0.0,0.0,0.0,0.0,0.0,0.0,0.0,0.0,0.0,0.0,0.0,0.0,0.0,0.0,0.0,0.0,0.0,0.0,0.0,0.0,0.0,0.0,0.0,0.0,0.0,0.0,0.0,0.0,-0.4648,-0.3266,-0.1938,-0.1213,-0.121,-0.1611,-0.2611,-0.4209,-0.6415,-0.8722,0.0,0.0,0.0,0.0,0.0,0.0,0.0,0.0,0.0,0.0,0.0,0.0,0.0,0.0,0.0,0.0,0.0,0.0,0.0,0.0,0.0,0.0,0.0,0.0,0.0,0.0,0.0,0.0,0.0,0.0,0.0,0.0,0.0,0.0,0.0,0.0,0.0,0.0,0.0,0.0,0.0,-1.3716,-1.4532,-1.555,-1.6731,0.0,-1.8847,-1.9595,-2.0322,-2.0972,-2.166,-2.2344,0.0,0.0,0.0,0.0,0.0,0.0,0.0,0.0,0.0,0.0,0.0,0.0,0.0,0.0,0.0,0.0,0.0,0.0,0.0,0.0,0.0,0.0,0.0,0.0,0.0,0.0,0.0,0.0,0.0,0.0,0.0,0.0,0.0,0.0,0.0,0.0,0.0,0.0,0.0,0.0,0.0,0.0,0.0,0.0,0.0,0.0,0.0,0.0,0.0,0.0,0.0,0.0,0.0,-0.5565,-0.4058,-0.2691,-0.1949,-0.1884,-0.2351,-0.3218,-0.461,-0.6756,-0.8851,0.0,0.0,0.0,0.0,0.0,0.0,0.0,0.0,0.0,0.0,0.0,0.0,0.0,0.0,0.0,0.0,0.0,0.0,0.0,0.0,0.0,0.0,0.0,0.0,0.0,0.0,0.0,0.0,-1.3126,-1.3238,-1.3069,0.0,0.0,0.0,0.0,0.0,0.0,0.0,0.0,0.0,0.0,-1.4201,-1.4857,-1.5869,0.0,0.0,-1.9069,-1.9782,-2.0124,-2.0914,-2.1581,-2.1777,-2.2539,0.0,0.0,0.0,0.0,0.0,0.0,0.0,0.0,0.0,0.0,0.0,0.0,0.0,0.0,0.0,0.0,0.0,0.0,0.0,0.0,0.0,0.0,0.0,0.0,0.0,0.0,0.0,0.0,0.0,0.0,0.0,0.0,0.0,0.0,0.0,0.0,0.0,0.0,0.0,0.0,0.0,0.0,0.0,0.0,0.0,0.0,0.0,0.0,0.0,0.0,0.0,0.0,-0.6497,-0.4919,-0.3513,-0.2753,-0.2557,-0.2933,-0.3786,-0.5143,-0.692,-0.8739,0.0,0.0,0.0,0.0,0.0,0.0,0.0,0.0,0.0,0.0,0.0,0.0,0.0,0.0,0.0,0.0,0.0,0.0,0.0,0.0,0.0,0.0,0.0,0.0,0.0,0.0,0.0,0.0,-1.3566,-1.3678,-1.3685,0.0,0.0,0.0,0.0,0.0,0.0,0.0,0.0,0.0,0.0,-1.4588,-1.5243,-1.6162,-1.7141,-1.8247,-1.9197,-1.9822,-2.0038,-2.0847,-2.1425,-2.1347,0.0,0.0,0.0,0.0,0.0,0.0,0.0,0.0,0.0,0.0,0.0,0.0,0.0,0.0,0.0,0.0,0.0,0.0,0.0,0.0,0.0,0.0,0.0,0.0,0.0,0.0,0.0,0.0,0.0,0.0,-1.371,0.0,0.0,0.0,0.0,0.0,0.0,0.0,0.0,0.0,0.0,0.0,0.0,0.0,0.0,0.0,0.0,0.0,0.0,0.0,0.0,0.0,0.0,-0.742,-0.6001,-0.4477,-0.3694,-0.3496,-0.3463,-0.4232,-0.5796,-0.6863,-0.8413,-1.0482,0.0,0.0,0.0,0.0,0.0,0.0,0.0,0.0,0.0,0.0,0.0,0.0,0.0,0.0,0.0,0.0,0.0,0.0,0.0,0.0,0.0,0.0,0.0,0.0,0.0,0.0,-1.4357,-1.4545,-1.4636,0.0,0.0,0.0,0.0,0.0,0.0,0.0,0.0,0.0,0.0,-1.4034,-1.4678,-1.5732,-1.6357,-1.7239,-1.8535,-1.9012,-1.9565,-2.0005,-2.0632,-2.1105,0.0,0.0,0.0,0.0,0.0,0.0,0.0,0.0,0.0,0.0,0.0,0.0,0.0,0.0,0.0,0.0,0.0,0.0,0.0,0.0,0.0,0.0,0.0,0.0,0.0,0.0,0.0,-1.309,-1.3074,0.0,0.0,0.0,0.0,0.0,0.0,0.0,0.0,0.0,0.0,0.0,-0.4477,-0.4551,0.0,0.0,0.0,0.0,0.0,0.0,0.0,0.0,0.0,0.0,0.0,0.0,-0.7929,-0.6568,-0.5092,-0.4225,-0.4023,-0.4185,-0.4838,-0.6005,-0.7247,-0.9134,-1.1629,0.0,0.0,0.0,0.0,0.0,0.0,0.0,0.0,0.0,0.0,0.0,0.0,0.0,0.0,0.0,0.0,0.0,0.0,0.0,0.0,0.0,0.0,0.0,0.0,0.0,-1.4999,0.0,0.0,0.0,0.0,0.0,0.0,0.0,0.0,0.0,0.0,0.0,-1.3969,-1.4325,-1.4721,-1.5351,-1.6031,-1.685,-1.7732,0.0,0.0,0.0,0.0,0.0,0.0,0.0,0.0,0.0,0.0,0.0,0.0,0.0,0.0,-2.3121,-2.2489,-2.253,-2.2618,-2.2353,0.0,0.0,0.0,0.0,0.0,0.0,0.0,0.0,0.0,0.0,0.0,0.0,0.0,0.0,-1.1472,0.0,-1.1399,0.0,0.0,0.0,0.0,0.0,0.0,0.0,0.0,-0.4853,-0.4135,-0.3423,-0.3479,-0.3581,0.0,-0.4838,-0.6249,0.0,0.0,0.0,0.0,0.0,0.0,0.0,0.0,-0.8146,-0.6928,-0.5573,-0.4758,-0.4616,-0.4779,-0.5367,-0.6334,-0.7962,-0.9844,-1.1882,-1.3244,-1.4682,0.0,0.0,0.0,0.0,0.0,0.0,0.0,0.0,0.0,0.0,0.0,0.0,0.0,0.0,0.0,0.0,0.0,0.0,0.0,0.0,0.0,0.0,0.0,-1.509,0.0,0.0,0.0,0.0,0.0,0.0,0.0,0.0,0.0,-1.4358,-1.4352,-1.4571,-1.5032,-1.535,-1.5803,-1.6477,0.0,0.0,0.0,0.0,0.0,0.0,0.0,-2.1307,-2.114,-2.1553,-2.1998,-2.2097,-2.2441,-2.2627,-2.2656,0.0,0.0,-2.2489,-2.2653,-2.279,-2.246,-2.2441,-2.2432,-2.2501,-2.2599,-2.2696,0.0,0.0,0.0,0.0,0.0,0.0,0.0,0.0,-0.9562,-0.9385,0.0,-0.9609,0.0,0.0,0.0,0.0,0.0,-0.6903,0.0,0.0,-0.3741,-0.3049,-0.2466,-0.2469,-0.2472,-0.2543,-0.3634,-0.4559,-0.5408,-0.8103,0.0,0.0,0.0,0.0,0.0,0.0,-0.8212,-0.7141,-0.5984,-0.5292,-0.5153,-0.5349,-0.5917,-0.6967,-0.8896,-1.0354,-1.1264,-1.257,-1.4013,-1.5562,-1.6587,0.0,0.0,0.0,0.0,0.0,0.0,0.0,0.0,0.0,0.0,0.0,0.0,0.0,0.0,0.0,0.0,0.0,0.0,0.0,0.0,-1.5506,0.0,0.0,0.0,0.0,0.0,0.0,0.0,0.0,0.0,0.0,-1.5219,-1.4942,-1.5032,-1.5697,0.0,0.0,0.0,0.0,-1.7613,-1.8365,-1.892,-1.9471,-2.0209,-2.0654,-2.1096,-2.1392,0.0,0.0,-2.2097,-2.2264,-2.2441,-2.2441,-2.2735,-2.2725,-2.253,-2.2824,-2.2967,-2.2517,-2.252,-2.2511,-2.2824,-2.3018,-2.3202,-0.8886,0.0,0.0,0.0,0.0,-0.8713,-0.8275,-0.7982,-0.7518,-0.7267,-0.7163,-0.732,0.0,0.0,0.0,0.0,0.0,0.0,-0.4428,-0.3147,-0.2694,-0.2031,-0.1308,-0.1474,-0.1558,-0.163,-0.238,-0.3209,-0.3962,-0.5593,-0.7417,-0.9372,0.0,0.0,0.0,0.0,-0.8216,-0.7412,-0.6324,-0.5822,-0.5881,-0.6036,-0.675,-0.8122,-0.9175,-1.0162,-1.1073,-1.2281,-1.3462,-1.4542,-1.596,0.0,0.0,0.0,0.0,0.0,0.0,0.0,0.0,0.0,0.0,0.0,0.0,0.0,0.0,0.0,0.0,0.0,0.0,0.0,-1.6177,-1.5929,-1.5839,0.0,0.0,0.0,0.0,0.0,0.0,0.0,0.0,0.0,-1.6434,-1.6074,-1.5913,0.0,0.0,-1.6763,-1.7145,-1.7721,-1.828,-1.8643,-1.9112,0.0,-2.0201,-2.0736,-2.1087,-2.1392,-2.175,-2.2106,-2.2568,-2.2646,-2.2706,-2.2882,-2.3398,-2.3595,-2.331,-2.332,-2.3379,-2.3261,-2.3319,-2.3396,-2.3474,-2.3744,-2.3937,-0.7044,-0.7737,-0.7997,-0.7901,-0.7487,-0.692,-0.6394,-0.5932,-0.5476,-0.5148,-0.4884,-0.5115,-0.5299,-0.5376,-0.5445,0.0,0.0,0.0,-0.295,-0.1889,-0.1522,-0.1092,-0.0539,-0.0616,-0.0759,-0.0898,-0.1541,-0.2199,-0.2863,-0.3999,-0.5525,-0.7537,0.0,0.0,-0.9372,-0.8722,-0.808,-0.7571,-0.6666,-0.628,-0.6408,-0.6868,-0.7673,-0.8836,-0.9624,-1.0495,-1.1307,-1.2404,-1.3412,-1.4218,-1.5508,-1.6604,0.0,0.0,0.0,0.0,0.0,0.0,0.0,0.0,0.0,0.0,0.0,-2.1609,-2.0807,0.0,0.0,0.0,-1.7802,-1.7221,-1.6574,-1.6327,0.0,0.0,0.0,0.0,0.0,0.0,0.0,-1.7561,-1.7331,-1.7213,-1.7412,-1.7145,-1.6951,-1.6777,-1.6958,-1.7232,-1.7426,0.0,-1.8751,-1.892,-1.9387,-1.9936,-2.0473,-2.0817,-2.1186,-2.1651,-2.2097,-2.2451,-2.2744,-2.2911,-2.3144,-2.3251,-2.3614,-2.3889,-2.363,-2.3677,-2.3764,-2.3667,-2.3667,-2.3841,-2.4013,-2.4186,-2.4368,-0.5183,-0.5258,-0.6282,-0.6292,-0.567,-0.5149,-0.4557,-0.3906,-0.351,-0.3131,-0.2769,-0.3134,-0.3346,-0.3553,-0.3334,0.0,-0.2894,-0.2119,-0.1397,-0.0837,-0.0476,-0.0135,0.0,0.0,-0.0135,-0.027,-0.0942,-0.1497,-0.209,-0.3136,-0.4162,-0.5197,-0.7078,-0.8222,-0.8548,-0.8274,-0.7863,-0.7571,-0.6996,-0.6741,-0.6868,-0.7762,-0.8615,-0.9377,-1.0285,-1.1149,-1.1901,-1.2794,-1.364,-1.4423,-1.5157,-1.6016,-1.7012,0.0,0.0,0.0,0.0,0.0,0.0,0.0,0.0,0.0,0.0,0.0,0.0,0.0,0.0,0.0,-1.7961,0.0,-1.7221,-1.6722,0.0,0.0,0.0,-1.7212,-1.7604,-1.7877,-1.8016,-1.8149,0.0,0.0,-1.8087,-1.8087,-1.7807,-1.7167,-1.7254,-1.7527,-1.7721,-1.8373,-1.892,-1.9188,-1.9654,-2.0201,-2.0826,-2.1087,-2.1365,-2.2008,-2.253,-2.2803,-2.2911,-2.3261,-2.3493,-2.3551,-2.3744,-2.3851,-2.3841,-2.4024,-2.4206,-2.3927,-2.3927,-2.4013,-2.4444,-2.454,-2.4786,-0.4353,-0.4043,-0.4287,-0.4517,-0.4656,-0.4146,-0.3687,-0.3294,-0.2882,-0.2529,-0.2322,-0.2247,-0.2221,-0.2107,-0.1888,-0.1654,-0.1413,-0.1123,-0.0692,-0.0204,-0.0135,0.0067,0.0337,0.0135,0.0,-0.0067,-0.0472,-0.0946,-0.1493,-0.2306,-0.3227,-0.4359,-0.5657,-0.675,-0.7568,-0.7637,-0.7517,-0.7371,-0.7194,-0.7391,-0.8037,-0.8628,-0.9254,-0.9932,-1.0555,-1.1191,-1.1809,-1.2712,-1.3549,-1.422,-1.4916,-1.5595,-1.6325,-1.7179,0.0,0.0,0.0,0.0,0.0,0.0,0.0,0.0,0.0,-2.1174,-2.0422,0.0,-1.8997,0.0,-1.8135,-1.7789,-1.7619,-1.7302,0.0,0.0,-1.7835,-1.8009,-1.8361,-1.8375,-1.8388,-1.8373,-1.8187,-1.8087,-1.8087,-1.8087,-1.8087,-1.79,-1.8094,-1.8195,-1.8295,-1.8735,-1.9196,-1.9479,-1.9936,-2.0382,-2.0907,-2.1463,-2.1998,-2.2539,-2.2882,-2.3057,-2.3299,-2.358,-2.3734,-2.378,-2.3897,-2.41,-2.411,-2.4292,-2.4454,-2.4615,-2.4605,-2.469,-2.4786,-2.5052,-2.5391,-0.3367,-0.3002,-0.2893,-0.3039,-0.3197,-0.3119,-0.2843,-0.2397,-0.2086,-0.1741,-0.1387,-0.1228,-0.1142,-0.1126,-0.0985,-0.0838,-0.0758,-0.062,-0.041,-0.0135,0.0,0.0067,0.0265,0.0066,0.0,-0.013,-0.0519,-0.0908,-0.1361,-0.2228,-0.3117,-0.3974,-0.5095,-0.6065,-0.6777,-0.7281,-0.748,-0.7505,-0.7631,-0.8042,-0.8807,-0.9241,-0.9861,-1.0616,-1.1234,-1.1905,-1.2431,-1.3208,-1.3907,-1.4399,-1.508,-1.5614,-1.6019,-1.6846,-1.7711,0.0,0.0,0.0,0.0,0.0,0.0,0.0,0.0,0.0,0.0,0.0,-1.8958,-1.8704,-1.8632,-1.8425,-1.8023,-1.7789,-1.7845,-1.8287,-1.8263,-1.8513,-1.906,-1.9015,-1.8952,-1.896,-1.8851,-1.8743,-1.8743,-1.8751,-1.8735,-1.8743,-1.8936,-1.8936,-1.8751,-1.9196,-1.9745,-1.9936,-2.0292,-2.0736,-2.1275,-2.1989,-2.2618,-2.2882,-2.3232,-2.3474,-2.3617,-2.382,-2.3993,-2.3953,-2.4241,-2.4529,-2.454,-2.47,-2.4861,-2.5031,-2.52,-2.5295,-2.5211,-2.5475,-2.5822,-0.2428,-0.2261,-0.1981,-0.1887,-0.1886,-0.2276,-0.2095,-0.1598,-0.1365,-0.0883,-0.028,-0.0273,-0.027,-0.0405,-0.0405,-0.0405,-0.0404,-0.0404,-0.0337,-0.0269,-0.0135,-0.0066,0.0,-0.0065,-0.0127,-0.0309,-0.0679,-0.111,-0.1479,-0.2402,-0.3206,-0.3867,-0.4989,-0.573,-0.616,-0.7042,-0.7609,-0.787,-0.8149,-0.8619,-0.9402,-0.9901,-1.0534,-1.1365,-1.2174,-1.285,-1.3398,-1.3941,-1.4428,-1.4775,-1.5371,-1.573,-1.5924,-1.6736,-1.7448,0.0,-1.8612,0.0,0.0,0.0,0.0,0.0,0.0,0.0,0.0,-1.9561,-1.9033,-1.8805,-1.9123,-1.9063,-1.8594,-1.8273,-1.8323,-1.8752,-1.8665,-1.8887,-1.953,-1.9621,-1.9637,-1.9696,-1.9687,-1.9671,-1.9671,-1.9679,-1.9679,-1.9679,-1.9671,-1.9579,-1.9196,-1.9745,-2.0292,-2.0382,-2.0817,-2.1365,-2.182,-2.2608,-2.3047,-2.3232,-2.358,-2.3907,-2.3856,-2.4155,-2.4358,-2.4392,-2.4669,-2.4946,-2.4946,-2.5031,-2.52,-2.5295,-2.5633,-2.5812,-2.5728,-2.5812,-2.6063,-0.2134,-0.1977,-0.189,-0.1887,-0.1887,-0.1964,-0.196,-0.1793,-0.1452,-0.0883,-0.028,0.0,0.0135,0.0135,0.0135,0.0135,0.0135,0.0,-0.0067,-0.0067,-0.0202,-0.0199,-0.0194,-0.0323,-0.0445,-0.0618,-0.0803,-0.1172,-0.1663,-0.2231,-0.2892,-0.366,-0.4601,-0.5322,-0.5951,0.0,0.0,0.0,-0.8652,-0.921,-0.9856,-1.0548,-1.124,-1.1934,-1.2613,0.0,-1.383,-1.4231,-1.4706,-1.5235,-1.541,0.0,0.0,0.0,0.0,0.0,0.0,0.0,0.0,0.0,0.0,0.0,-2.0096,-1.9997,-1.9754,-1.9534,-1.9301,-1.9101,-1.9343,-1.9478,-1.9143,-1.8913,-1.886,-1.9055,-1.8958,-1.9092,-1.9823,-1.9758,-1.9779,-2.0175,-2.0201,-2.0201,-2.0167,-2.0119,-2.0192,-2.0158,-2.0382,-2.0482,-2.0357,-2.0357,-2.0464,-2.0826,-2.1445,-2.2087,-2.2706,-2.3047,-2.3319,-2.358,-2.4013,-2.4358,-2.4433,-2.468,-2.5031,-2.5009,-2.5105,-2.5115,-2.52,-2.52,-2.5369,-2.5728,-2.5812,-2.5895,-2.5895,-2.6146,-2.6561,-0.1414,0.0,-0.1258,-0.1258,0.0,-0.1336,-0.1415,-0.1412,-0.1301,-0.0883,-0.028,0.0,0.0135,0.0135,0.0,-0.0135,-0.0135,-0.0403,-0.0538,-0.0538,-0.0539,-0.0527,-0.0506,-0.0569,-0.0679,-0.0826,-0.1002,-0.1355,-0.1824,-0.239,-0.303,-0.3686,-0.4485,-0.5182,-0.5836,-0.6719,-0.7643,-0.8641,-0.8958,-0.9472,-1.0117,-1.087,-1.149,-1.2189,-1.2911,0.0,0.0,0.0,0.0,0.0,0.0,0.0,0.0,-1.6285,0.0,-1.737,-1.7391,-1.7818,-1.8736,-1.8811,-1.9079,-1.9683,-1.9803,-1.9736,-1.9407,-1.9499,-1.9554,-1.9413,-1.9647,-1.9714,-1.9766,-1.9478,-1.9405,-1.9689,-1.9506,-1.9638,-2.0068,-2.0075,-2.0155,-2.0294,-2.035,-2.0333,-2.0333,-2.0333,-2.0333,-2.0342,-2.0508,-2.0613,-2.0727,-2.0864,-2.1186,-2.1802,-2.2255,-2.2706,-2.3232,-2.358,-2.3831,-2.411,-2.4529,-2.4786,-2.4871,-2.5031,-2.52,-2.5359,-2.5454,-2.5538,-2.5684,-2.5779,-2.5957,-2.6218,-2.6385,-2.6539,-2.6528,-2.6513,-2.6564,-0.0707,-0.055,-0.055,-0.0549,-0.0468,-0.0624,-0.0699,-0.0693,0.0,0.0,0.0,-0.0068,0.0,-0.0067,-0.0337,-0.054,-0.0539,-0.0942,-0.1143,-0.1076,-0.0938,-0.0846,-0.0865,-0.0799,-0.0832,-0.0955,-0.1234,-0.1625,-0.2073,-0.2644,-0.321,-0.382,-0.4508,-0.5242,-0.5932,-0.6722,-0.769,-0.8684,-0.9075,-0.9517,-1.0276,-1.0947,-1.1628,-1.2179,-1.308,-1.3726,-1.415,-1.4697,-1.5147,-1.5478,-1.5846,-1.6155,-1.6431,-1.6591,-1.6863,-1.735,-1.7392,-1.7712,-1.8283,-1.8376,-1.8685,-1.9438,-1.9802,-1.9802,-1.9274,-1.9547,-1.9694,-1.9635,-1.9772,-2.0056,-2.0265,-1.9925,-1.986,-2.0245,-2.0139,-2.0142,-2.0466,-2.0541,-2.0514,-2.054,-2.0588,-2.0503,-2.0539,-2.0549,-2.0587,-2.0596,-2.066,-2.0671,-2.1006,-2.1407,-2.1789,-2.2312,-2.2707,-2.313,-2.3418,-2.3815,-2.4291,-2.4303,-2.4819,-2.5157,-2.5251,-2.5316,-2.5538,-2.5706,-2.5884,-2.6052,-2.6207,-2.6456,-2.6644,-2.6704,-2.6871,-2.7128,-2.7129,-2.6713,-2.6456,-0.055,-0.0314,-0.0314,-0.0233,-0.0076,-0.0076,-0.0074,0.0,-0.0509,-0.0498,-0.0068,0.0,-0.0135,-0.027,-0.0405,-0.0607,-0.0741,-0.1076,-0.121,-0.1074,-0.118,-0.1148,-0.0988,-0.1082,-0.1106,-0.1125,-0.1515,-0.1906,-0.2184,-0.2641,-0.3253,-0.3978,-0.4474,-0.5369,-0.6579,-0.72,-0.7833,-0.8497,-0.867,-0.9197,-1.0086,-1.0945,-1.1537,-1.1849,-1.3067,-1.3782,-1.3935,-1.4713,-1.5391,-1.5798,-1.6144,-1.6431,-1.6581,-1.6684,-1.6839,-1.7051,-1.7062,-1.7437,-1.8148,-1.8181,-1.8707,-1.9727,-2.0325,-2.0335,-1.9813,-1.9906,-1.9848,-1.9712,-1.991,-2.0139,-2.0187,-2.018,-2.0195,-2.0508,-2.0498,-2.0574,-2.078,-2.0785,-2.0838,-2.103,-2.1108,-2.1099,-2.1051,-2.107,-2.1125,-2.1265,-2.1234,-2.1403,-2.1695,-2.187,-2.1864,-2.1958,-2.2456,-2.2869,-2.3207,-2.337,-2.3759,-2.3858,-2.4626,-2.5191,-2.518,-2.57,-2.6157,-2.6434,-2.6367,-2.6472,-2.6483,-2.6715,-2.6871,-2.6977,-2.6955,-2.6916,-2.7167,-2.6693,-2.6459,0.0079,0.0157,0.0157,0.0232,0.0303,0.0149,0.0145,0.014,-0.0071,0.0,0.027,0.0202,0.0067,-0.0135,-0.0405,-0.0674,-0.101,-0.1211,-0.1333,-0.1314,-0.1296,-0.1258,-0.1206,-0.1187,-0.1275,-0.1462,-0.1685,-0.202,-0.2465,-0.2854,-0.3322,-0.3996,-0.4685,-0.551,-0.644,-0.6842,-0.7408,-0.8093,-0.864,-0.9311,-1.007,-1.0784,-1.1368,-1.1776,-1.2683,-1.33,-1.3682,-1.4184,-1.4736,-1.529,-1.5519,-1.5781,-1.616,-1.6439,-1.6743,-1.6961,-1.7203,-1.7523,-1.7913,-1.8157,-1.8684,-1.9481,-1.9986,-2.0325,-2.0324,-2.0194,-2.002,-2.0002,-2.0024,-2.0184,-2.042,-2.0398,-2.0487,-2.0858,-2.0823,-2.0861,-2.1163,-2.1105,-2.1105,-2.1222,-2.1182,-2.1182,-2.1182,-2.1182,-2.1252,-2.1332,-2.1411,-2.1571,-2.1809,-2.1888,-2.2069,-2.2473,-2.2747,-2.3082,-2.3395,-2.3727,-2.3977,-2.4147,-2.4708,-2.5079,-2.509,-2.5552,-2.5813,-2.6086,-2.6086,-2.6234,-2.6416,-2.654,-2.6618,-2.6674,-2.678,-2.6866,-2.7004,-2.6809,-2.6832,0.0629,0.0629,0.0625,0.0689,0.0669,0.0507,0.0424,0.0416,0.0347,0.0412,0.054,0.0405,0.0202,-0.0067,-0.0401,-0.0731,-0.1057,-0.1254,-0.1303,-0.1406,-0.1331,-0.1294,-0.1359,-0.1288,-0.144,-0.1801,-0.1908,-0.2244,-0.2745,-0.3077,-0.3574,-0.4242,-0.5018,-0.5677,-0.6282,-0.6707,-0.7187,-0.7854,-0.8732,-0.9466,-0.9974,-1.0595,-1.1217,-1.1696,-1.2358,-1.2905,-1.3383,-1.3825,-1.4291,-1.4829,-1.5049,-1.5362,-1.5796,-1.6326,-1.6738,-1.7036,-1.7528,-1.7877,-1.7954,-1.8374,-1.8873,-1.9383,-1.9821,-2.033,-2.0771,-2.0571,-2.0391,-2.0285,-2.0215,-2.0281,-2.0625,-2.0568,-2.0594,-2.1032,-2.1062,-2.1131,-2.1363,-2.1441,-2.1349,-2.1359,-2.1359,-2.1379,-2.1349,-2.1349,-2.1399,-2.1486,-2.1578,-2.1741,-2.1807,-2.2035,-2.2436,-2.2898,-2.3092,-2.3208,-2.3577,-2.3937,-2.4149,-2.4204,-2.467,-2.4947,-2.5058,-2.5104,-2.5461,-2.5862,-2.5916,-2.6016,-2.6253,-2.6417,-2.6453,-2.6552,-2.6673,-2.6856,-2.6797,-2.6986,-2.6954,0.0707,0.0861,0.0845,0.096,0.1059,0.103,0.1016,0.0947,0.0811,0.0743,0.0741,0.0405,0.0066,-0.026,-0.0454,-0.064,-0.0875,-0.1184,-0.1245,-0.1113,-0.1144,-0.1244,-0.1233,-0.1259,-0.1464,-0.1853,-0.2244,-0.2631,-0.3077,-0.3519,-0.4187,-0.4959,-0.5504,-0.6046,-0.6652,-0.7198,-0.7729,-0.8315,-0.8891,-0.9348,-0.9671,-1.0417,-1.0921,-1.1183,-1.236,-1.2986,-1.3171,-1.3978,-1.4609,-1.4997,-1.5433,-1.5723,-1.5858,-1.664,-1.7172,-1.7329,-1.797,-1.8422,-1.8541,-1.8943,-1.9446,-1.996,-2.0451,-2.0903,-2.1267,-2.1325,-2.1031,-2.0618,-2.0423,-2.0512,-2.0771,-2.0622,-2.0679,-2.115,-2.1392,-2.1576,-2.1523,-2.1774,-2.1959,-2.1807,-2.1797,-2.1741,-2.1797,-2.1766,-2.1766,-2.1878,-2.1997,-2.2168,-2.2328,-2.2542,-2.2723,-2.311,-2.3143,-2.3112,-2.322,-2.3442,-2.3787,-2.3862,-2.4419,-2.4773,-2.505,-2.5541,-2.6194,-2.5849,-2.6177,-2.6141,-2.6264,-2.6534,-2.6776,-2.6647,-2.6712,-2.6648,-2.6544,-2.6822,-2.6871,0.11,0.1176,0.1071,0.1103,0.1121,0.1089,0.1009,0.0943,0.0876,0.0669,0.0461,0.0263,0.0,-0.0258,-0.0444,-0.0687,-0.1113,-0.1235,-0.1345,-0.1383,-0.1364,-0.1401,-0.1545,-0.1583,-0.1797,-0.2188,-0.2575,-0.2963,-0.3411,-0.4125,-0.4787,-0.55,-0.5941,-0.6426,-0.7025,-0.7503,-0.8043,-0.8626,-0.9145,-0.9621,-1.0051,-1.0581,-1.1063,-1.1471,-1.2193,-1.2744,-1.3035,-1.3591,-1.407,-1.4475,-1.4817,-1.5119,-1.5359,-1.6064,-1.6673,-1.7136,-1.8072,-1.8691,-1.8827,-1.9042,-1.9519,-2.033,-2.0592,-2.1009,-2.1756,-2.1862,-2.1737,-2.136,-2.1042,-2.0888,-2.0861,-2.0818,-2.0875,-2.1204,-2.1341,-2.1517,-2.202,-2.2101,-2.2221,-2.2414,-2.2478,-2.2467,-2.2435,-2.2232,-2.1965,-2.1886,-2.1945,-2.2132,-2.2182,-2.2606,-2.3011,-2.3201,-2.3537,-2.3728,-2.3604,-2.3751,-2.397,-2.415,-2.4495,-2.4865,-2.4923,-2.5189,-2.5573,-2.5694,-2.59,-2.5973,-2.6009,-2.613,-2.6346,-2.6478,-2.6701,-2.6691,-2.6875,-2.7121,-2.7188,0.1245,0.1239,0.1128,0.1085,0.1039,0.095,0.0875,0.074,0.0669,0.0527,0.0194,0.0064,-0.0126,-0.0377,-0.0493,-0.079,-0.1145,-0.1205,-0.1369,-0.1574,-0.1513,-0.1608,-0.18,-0.1853,-0.2186,-0.2577,-0.2907,-0.3352,-0.3968,-0.4684,-0.5395,-0.5937,-0.6381,-0.6864,-0.7444,-0.7919,-0.8455,-0.904,-0.9562,-1.0079,-1.06,-1.1015,-1.1418,-1.1828,-1.2215,-1.2647,-1.3074,-1.3457,-1.3836,-1.4291,-1.4466,-1.4789,-1.5165,-1.5777,-1.6478,-1.7395,-1.8298,-1.8907,-1.9133,-1.9198,-1.966,-2.0702,-2.086,-2.1323,-2.2165,-2.2432,-2.2309,-2.2173,-2.1851,-2.1486,-2.1158,-2.1083,-2.1138,-2.1359,-2.1363,-2.1665,-2.2188,-2.2253,-2.2446,-2.2844,-2.2783,-2.2871,-2.2855,-2.2557,-2.2236,-2.197,-2.2009,-2.2034,-2.2148,-2.2659,-2.3119,-2.342,-2.4048,-2.4221,-2.4154,-2.42,-2.4418,-2.4622,-2.4801,-2.4956,-2.4992,-2.5194,-2.5253,-2.5767,-2.5749,-2.5853,-2.6024,-2.6079,-2.6295,-2.6452,-2.6714,-2.7011,-2.7323,-2.7577,-2.7776,0.1213,0.113,0.1006,0.0833,0.0811,0.0607,0.0539,0.0539,0.0393,0.0194,0.0,-0.0122,-0.0355,-0.0652,-0.071,-0.0813,-0.0906,-0.1076,-0.119,-0.1411,-0.1522,-0.1689,-0.1797,-0.2074,-0.2462,-0.2907,-0.3244,-0.3852,-0.4791,-0.534,-0.5837,-0.6381,-0.6815,-0.7348,-0.7871,-0.8461,-0.904,-0.9562,-1.0087,-1.0659,-1.1226,-1.1778,-1.2026,-1.2166,-1.255,-1.3016,-1.3409,-1.3884,-1.428,-1.4581,-1.488,-1.5198,-1.5516,-1.6192,-1.7158,-1.8289,-1.8709,-1.9032,-1.953,-1.9708,-2.021,-2.1199,-2.1412,-2.1875,-2.2792,-2.2871,-2.2848,-2.2848,-2.2665,-2.2371,-2.1812,-2.1537,-2.1411,-2.1441,-2.1694,-2.185,-2.1964,-2.2423,-2.2592,-2.2685,-2.2787,-2.274,-2.2662,-2.256,-2.2503,-2.2423,-2.2514,-2.2559,-2.2648,-2.2808,-2.3267,-2.3824,-2.421,-2.433,-2.4494,-2.4706,-2.4838,-2.504,-2.5253,-2.5312,-2.5535,-2.5688,-2.5828,-2.5886,-2.6094,-2.6233,-2.6233,-2.644,-2.6794,-2.7053,-2.7323,-2.759,-2.7789,-2.8026,-2.8287,0.0952,0.0792,0.0706,0.0691,0.0607,0.054,0.0472,0.0336,0.0196,0.0,-0.0187,-0.048,-0.0699,-0.0799,-0.1028,-0.1078,-0.1066,-0.1178,-0.1403,-0.1628,-0.1685,-0.1909,-0.2242,-0.241,-0.2742,-0.3188,-0.3633,-0.4353,-0.5285,-0.5778,-0.6268,-0.6864,-0.7343,-0.7871,-0.8461,-0.9033,-0.9562,-1.0146,-1.0651,-1.1217,-1.1769,-1.2304,-1.2677,-1.3035,-1.3218,-1.3505,-1.3894,-1.4316,-1.4697,-1.504,-1.5255,-1.5558,-1.5973,-1.6647,-1.7446,-1.8357,-1.8807,-1.9346,-1.9889,-2.0016,-2.0398,-2.1135,-2.1568,-2.2051,-2.2776,-2.3175,-2.333,-2.321,-2.3223,-2.2969,-2.2665,-2.2285,-2.2037,-2.1949,-2.204,-2.2226,-2.2456,-2.2709,-2.2932,-2.3199,-2.3262,-2.3223,-2.2869,-2.2763,-2.2633,-2.2415,-2.2367,-2.2391,-2.2491,-2.281,-2.3263,-2.3658,-2.4366,-2.4932,-2.5022,-2.5143,-2.5394,-2.5535,-2.5758,-2.5873,-2.6025,-2.6183,-2.6308,-2.6302,-2.6476,-2.6591,-2.6582,-2.685,-2.7248,-2.7419,-2.7631,-2.7786,-2.8262,-2.8238,-2.8548,0.078,0.0555,0.0554,0.048,0.0405,0.027,0.0201,0.0133,-0.0064,-0.025,-0.0486,-0.0765,-0.0973,-0.1069,-0.1346,-0.1403,-0.1346,-0.1403,-0.1684,-0.202,-0.2076,-0.2298,-0.2689,-0.2912,-0.3249,-0.3691,-0.4242,-0.4959,-0.5727,-0.6263,-0.681,-0.7348,-0.7925,-0.8508,-0.904,-0.9607,-1.0138,-1.071,-1.1267,-1.1828,-1.2304,-1.2783,-1.3314,-1.38,-1.3988,-1.4129,-1.4362,-1.4743,-1.5108,-1.5424,-1.5603,-1.5925,-1.6411,-1.6917,-1.7638,-1.849,-1.896,-1.9549,-2.0256,-2.0435,-2.0732,-2.1303,-2.1692,-2.2211,-2.2963,-2.336,-2.356,-2.361,-2.3628,-2.3569,-2.3437,-2.3125,-2.2836,-2.2543,-2.2482,-2.2616,-2.2882,-2.2943,-2.3089,-2.3359,-2.3457,-2.3271,-2.304,-2.3018,-2.2847,-2.2518,-2.2494,-2.2494,-2.2543,-2.2824,-2.3304,-2.3552,-2.4364,-2.4956,-2.5194,-2.5415,-2.5785,-2.6034,-2.6083,-2.6258,-2.64,-2.6578,-2.6649,-2.6691,-2.6747,-2.6842,-2.6987,-2.7235,-2.7442,-2.7597,-2.7588,-2.7637,-2.7988,-2.8257,-2.8491,0.0691,0.0474,0.0337,0.027,0.0202,-0.0067,-0.0266,-0.0194,-0.0439,-0.061,-0.0828,-0.0913,-0.1126,-0.1346,-0.1684,-0.1797,-0.1853,-0.1852,-0.2076,-0.2465,-0.2635,-0.28,-0.3077,-0.3413,-0.3802,-0.4245,-0.5124,-0.5782,-0.6209,-0.6804,-0.7402,-0.7925,-0.8508,-0.9093,-0.9614,-1.0138,-1.071,-1.1267,-1.1828,-1.2295,-1.2812,-1.3314,-1.3847,-1.4373,-1.4686,-1.4823,-1.4789,-1.5244,-1.5591,-1.58,-1.6044,-1.6405,-1.6833,-1.7012,-1.7618,-1.8689,-1.9061,-1.9661,-2.0624,-2.0871,-2.1236,-2.1661,-2.186,-2.2392,-2.3296,-2.3517,-2.3725,-2.4129,-2.4189,-2.4131,-2.4131,-2.4073,-2.378,-2.3245,-2.3138,-2.3163,-2.3175,-2.315,-2.3113,-2.321,-2.3263,-2.3175,-2.315,-2.3226,-2.3201,-2.3163,-2.3138,-2.3138,-2.3125,-2.3213,-2.3475,-2.395,-2.4504,-2.5011,-2.5329,-2.5675,-2.609,-2.647,-2.6467,-2.6506,-2.6514,-2.67,-2.6635,-2.6621,-2.6593,-2.6754,-2.6916,-2.7139,-2.7182,-2.7291,-2.7344,-2.7538,-2.7857,-2.8148,-2.8158,0.034,0.0135,0.0135,0.0,-0.0135,-0.027,-0.0332,-0.0451,-0.0688,-0.085,-0.0941,-0.1367,-0.1572,-0.174,-0.2076,-0.2355,-0.2411,-0.2577,-0.2689,-0.2689,-0.2912,-0.3135,-0.3469,-0.3747,-0.4239,-0.4952,-0.5655,-0.6312,-0.681,-0.7396,-0.7925,-0.8508,-0.9086,-0.9614,-1.0138,-1.0761,-1.1318,-1.1828,-1.2344,-1.2822,-1.3314,-1.3847,-1.4373,-1.4834,-1.5187,-1.5457,-1.5736,-1.5824,-1.5944,-1.6151,-1.6479,-1.6876,-1.724,-1.7419,-1.8089,-1.9208,-1.9427,-1.9951,-2.0987,-2.1277,-2.1358,-2.1587,-2.1911,-2.2542,-2.3298,-2.3703,-2.4133,-2.4657,-2.4708,-2.4708,-2.4721,-2.4721,-2.4478,-2.3826,-2.3767,-2.3767,-2.378,-2.378,-2.3826,-2.38,-2.3813,-2.378,-2.378,-2.378,-2.378,-2.3767,-2.378,-2.3767,-2.3767,-2.378,-2.3806,-2.4157,-2.4609,-2.5064,-2.5321,-2.5741,-2.6144,-2.6446,-2.6438,-2.6622,-2.6684,-2.6638,-2.6578,-2.6537,-2.6512,-2.6627,-2.678,-2.6932,-2.7027,-2.7256,-2.7547,-2.7692,-2.7909,-2.7968,-2.801,0.0067,-0.0202,-0.0135,-0.0202,-0.0404,-0.0467,-0.0587,-0.0697,-0.1045,-0.1192,-0.133,-0.1699,-0.1962,-0.2132,-0.2464,-0.2742,-0.291,-0.3244,-0.3355,-0.3246,-0.3357,-0.3633,-0.4027,-0.4463,-0.4952,-0.566,-0.6253,-0.6848,-0.7396,-0.7978,-0.856,-0.9093,-0.9614,-1.019,-1.0702,-1.1318,-1.1819,-1.2353,-1.2822,-1.3351,-1.3894,-1.4419,-1.488,-1.5322,-1.568,-1.6044,-1.6405,-1.6423,-1.6466,-1.6637,-1.696,-1.7337,-1.7679,-1.7855,-1.8481,-1.9508,-1.9908,-2.0405,-2.1505,-2.1712,-2.1712,-2.178,-2.2055,-2.2647,-2.3348,-2.3925,-2.4407,-2.5177,-2.5342,-2.5342,-2.5342,-2.5342,-2.516,-2.4808,-2.458,-2.4465,-2.4408,-2.4421,-2.4421,-2.4421,-2.4421,-2.4408,-2.4421,-2.4421,-2.4421,-2.4421,-2.4421,-2.4421,-2.4421,-2.4421,-2.4421,-2.4518,-2.4847,-2.5222,-2.5418,-2.5765,-2.6257,-2.6321,-2.6351,-2.6537,-2.6746,-2.6506,-2.6416,-2.6311,-2.6266,-2.6295,-2.6453,-2.6693,-2.6849,-2.7258,-2.7513,-2.7467,-2.7489,-2.7697,-2.7798,-0.0202,-0.0472,-0.0337,-0.0404,-0.0536,-0.0851,-0.0953,-0.1045,-0.1373,-0.1623,-0.1808,-0.1964,-0.2238,-0.2519,-0.2852,-0.3074,-0.3241,-0.3796,-0.4076,-0.4076,-0.4187,-0.4408,-0.4853,-0.5445,-0.5932,-0.6367,-0.6918,-0.745,-0.7978,-0.856,-0.9145,-0.9673,-1.019,-1.0753,-1.1318,-1.1877,-1.2353,-1.2871,-1.3362,-1.3905,-1.4419,-1.488,-1.5355,-1.5844,-1.6088,-1.6448,-1.6863,-1.7115,-1.7199,-1.717,-1.7515,-1.7788,-1.8002,-1.8189,-1.8849,-2.0089,-2.0316,-2.102,-2.1907,-2.2231,-2.2231,-2.2231,-2.2301,-2.271,-2.3674,-2.4089,-2.4638,-2.5652,-2.5892,-2.5948,-2.5948,-2.5948,-2.5879,-2.5879,-2.5384,-2.5048,-2.5061,-2.5061,-2.5061,-2.5061,-2.5061,-2.5061,-2.5048,-2.5061,-2.5061,-2.5048,-2.5048,-2.5048,-2.5048,-2.5048,-2.5061,-2.5172,-2.5297,-2.5493,-2.5715,-2.5925,-2.6344,-2.647,-2.6452,-2.6514,-2.6658,-2.6459,-2.6382,-2.6232,-2.6201,-2.6157,-2.6321,-2.6669,-2.6806,-2.7039,-2.7128,-2.701,-2.7225,-2.7587,-2.7787,-0.0405,-0.0472,-0.0472,-0.06,-0.085,-0.0971,-0.119,-0.1433,-0.1653,-0.1902,-0.2084,-0.241,-0.2687,-0.2965,-0.3352,-0.363,-0.3907,-0.4405,-0.4736,-0.4901,-0.5285,-0.5504,-0.5727,-0.6154,-0.6691,-0.7176,-0.7676,-0.8156,-0.8685,-0.9197,-0.9666,-1.0198,-1.0812,-1.1318,-1.1868,-1.2403,-1.288,-1.3362,-1.3894,-1.4419,-1.4926,-1.54,-1.5832,-1.6293,-1.6565,-1.6905,-1.7323,-1.7733,-1.7909,-1.7909,-1.8003,-1.8189,-1.8464,-1.8648,-1.9293,-2.0426,-2.0811,-2.1369,-2.2406,-2.2723,-2.2723,-2.2723,-2.2709,-2.3054,-2.3755,-2.4302,-2.4934,-2.5724,-2.617,-2.6457,-2.6457,-2.6457,-2.6457,-2.6418,-2.6042,-2.5729,-2.5674,-2.5674,-2.5674,-2.5674,-2.5674,-2.5674,-2.5674,-2.5674,-2.5674,-2.5674,-2.566,-2.566,-2.566,-2.566,-2.566,-2.5729,-2.5812,-2.5948,-2.6056,-2.6218,-2.6383,-2.6547,-2.6554,-2.6531,-2.6578,-2.6438,-2.6446,-2.6369,-2.6587,-2.6635,-2.6741,-2.6986,-2.7041,-2.7115,-2.7269,-2.7452,-2.7569,-2.7855,-2.8011,-0.0674,-0.074,-0.0732,-0.0853,-0.1094,-0.1257,-0.152,-0.1825,-0.2086,-0.234,-0.2581,-0.2854,-0.319,-0.3519,-0.3907,-0.4239,-0.4519,-0.5011,-0.5391,-0.5664,-0.6317,-0.6534,-0.6593,-0.6858,-0.7337,-0.7877,-0.8368,-0.889,-0.9413,-0.9873,-1.0387,-1.0956,-1.1519,-1.2017,-1.2598,-1.3074,-1.3542,-1.4061,-1.4582,-1.5051,-1.5457,-1.5932,-1.6367,-1.6765,-1.7031,-1.7352,-1.7882,-1.8254,-1.8464,-1.845,-1.845,-1.8567,-1.8879,-1.9277,-1.9972,-2.1041,-2.1457,-2.2157,-2.2937,-2.3187,-2.3201,-2.3201,-2.3201,-2.354,-2.4024,-2.4538,-2.5037,-2.6021,-2.6446,-2.674,-2.7041,-2.7086,-2.71,-2.7049,-2.6788,-2.6486,-2.6315,-2.6233,-2.6204,-2.6258,-2.6258,-2.6258,-2.6258,-2.6258,-2.6258,-2.6258,-2.6204,-2.6204,-2.6218,-2.6218,-2.6258,-2.6258,-2.6365,-2.651,-2.6616,-2.6788,-2.693,-2.6997,-2.7049,-2.6893,-2.6788,-2.6683,-2.6788,-2.6841,-2.6997,-2.71,-2.7218,-2.7386,-2.7473,-2.7575,-2.7775,-2.7905,-2.805,-2.8168,-2.8301,-0.0941,-0.1136,-0.1044,-0.1159,-0.1394,-0.169,-0.2,-0.2209,-0.2558,-0.2916,-0.3188,-0.3411,-0.3688,-0.4135,-0.446,-0.4849,-0.5234,-0.5723,-0.6154,-0.6637,-0.7224,-0.7599,-0.7605,-0.7771,-0.8196,-0.8679,-0.9099,-0.9666,-1.0174,-1.0685,-1.12,-1.176,-1.2255,-1.2783,-1.3256,-1.3779,-1.4294,-1.4744,-1.5209,-1.5668,-1.6064,-1.6497,-1.6921,-1.7269,-1.7585,-1.7974,-1.8461,-1.8745,-1.8912,-1.8936,-1.8912,-1.8974,-1.9249,-1.9979,-2.0729,-2.1461,-2.2192,-2.2945,-2.3546,-2.3681,-2.3681,-2.3681,-2.3696,-2.3878,-2.4387,-2.4657,-2.5227,-2.6321,-2.6624,-2.7045,-2.7555,-2.7675,-2.7675,-2.7675,-2.761,-2.7386,-2.7033,-2.6846,-2.6788,-2.6774,-2.6774,-2.6774,-2.6774,-2.6774,-2.6774,-2.6841,-2.6841,-2.6841,-2.6841,-2.6841,-2.6826,-2.6826,-2.693,-2.7034,-2.7203,-2.7386,-2.7524,-2.7625,-2.7675,-2.7575,-2.7372,-2.7269,-2.7321,-2.7423,-2.7509,-2.756,-2.7675,-2.7825,-2.7925,-2.8024,-2.8171,-2.8281,-2.844,-2.8604,-2.8732,-0.1262,-0.143,-0.1422,-0.1506,-0.1744,-0.2069,-0.2375,-0.2713,-0.2919,-0.3299,-0.3744,-0.3962,-0.4291,-0.4732,-0.5175,-0.5508,-0.5891,-0.649,-0.7085,-0.799,-0.8396,-0.8922,-0.9033,-0.904,-0.9197,-0.9658,-1.0079,-1.0592,-1.115,-1.1584,-1.1972,-1.2423,-1.2967,-1.3409,-1.3873,-1.4376,-1.4801,-1.5242,-1.5768,-1.6238,-1.6625,-1.706,-1.7434,-1.7841,-1.8266,-1.864,-1.8983,-1.9199,-1.9398,-1.9581,-1.9472,-1.9398,-1.97,-2.0444,-2.1182,-2.1886,-2.2726,-2.3504,-2.3983,-2.4162,-2.412,-2.412,-2.4135,-2.4197,-2.4334,-2.4854,-2.5465,-2.6291,-2.6841,-2.7376,-2.8128,-2.825,-2.8235,-2.8235,-2.8235,-2.8186,-2.8005,-2.764,-2.7423,-2.7408,-2.7408,-2.7408,-2.7408,-2.7408,-2.7423,-2.7423,-2.7423,-2.7423,-2.7423,-2.7408,-2.7408,-2.7357,-2.7444,-2.7595,-2.7745,-2.7925,-2.8073,-2.8171,-2.8171,-2.8235,-2.7989,-2.789,-2.7875,-2.7925,-2.7989,-2.8088,-2.8171,-2.8284,-2.8414,-2.851,-2.8605,-2.8715,-2.8873,-2.9014,-2.9152,-0.1503,-0.1735,-0.1689,-0.1819,-0.2059,-0.2429,-0.2841,-0.319,-0.3466,-0.3852,-0.4349,-0.4567,-0.4897,-0.5449,-0.5887,-0.6322,-0.6853,-0.7557,-0.8249,-0.8935,-0.9444,-0.9953,-1.0466,-1.0466,-1.0618,-1.072,-1.1023,-1.1543,-1.2039,-1.2482,-1.2909,-1.3331,-1.3826,-1.4236,-1.4663,-1.5107,-1.5611,-1.6051,-1.6509,-1.6934,-1.7227,-1.7625,-1.8068,-1.8461,-1.8898,-1.9199,-1.9479,-1.9617,-1.9869,-2.0096,-2.0045,-1.9904,-2.0208,-2.1105,-2.187,-2.2355,-2.3468,-2.4162,-2.4567,-2.463,-2.463,-2.463,-2.4645,-2.463,-2.4661,-2.5004,-2.5472,-2.6115,-2.6801,-2.7532,-2.856,-2.8732,-2.8716,-2.8716,-2.8716,-2.8716,-2.8621,-2.8284,-2.7959,-2.7978,-2.7993,-2.7974,-2.7989,-2.7974,-2.7989,-2.7989,-2.7989,-2.7989,-2.7989,-2.7989,-2.7989,-2.7989,-2.8024,-2.8155,-2.8301,-2.8462,-2.8605,-2.8653,-2.87,-2.87,-2.8668,-2.851,-2.8414,-2.8462,-2.8462,-2.8605,-2.87,-2.8811,-2.8905,-2.8982,-2.9029,-2.9169,-2.9307,-2.9428,-2.9544,-0.1799,-0.2103,-0.1928,-0.211,-0.2443,-0.2889,-0.3299,-0.3738,-0.4018,-0.446,-0.5011,-0.5175,-0.5614,-0.6109,-0.6588,-0.7122,-0.7919,-0.8698,-0.9444,-0.9902,-1.0407,-1.0965,-1.1466,-1.1855,-1.2052,-1.1706,-1.2012,-1.2511,-1.3006,-1.3399,-1.3826,-1.434,-1.4709,-1.5119,-1.5579,-1.6032,-1.6423,-1.6752,-1.7227,-1.7598,-1.7828,-1.8226,-1.8655,-1.9109,-1.9406,-1.9675,-1.9889,-2.008,-2.027,-2.0561,-2.0595,-2.0561,-2.0855,-2.176,-2.2697,-2.276,-2.4112,-2.4925,-2.5052,-2.5084,-2.5068,-2.5084,-2.5084,-2.5084,-2.51,-2.5163,-2.5544,-2.6154,-2.6931,-2.7914,-2.9007,-2.9198,-2.9198,-2.9213,-2.9213,-2.9213,-2.9121,-2.8858,-2.8669,-2.848,-2.8463,-2.8462,-2.8477,-2.8477,-2.8493,-2.8508,-2.8508,-2.8508,-2.8493,-2.8493,-2.8477,-2.8525,-2.8558,-2.8716,-2.8858,-2.8997,-2.9152,-2.9152,-2.9198,-2.9213,-2.9213,-2.9152,-2.8997,-2.892,-2.8936,-2.9075,-2.9152,-2.9243,-2.9289,-2.938,-2.9502,-2.9579,-2.9714,-2.983,-2.9924,-0.2353,-0.2542,-0.2451,-0.2607,-0.2992,-0.3471,-0.3907,-0.4349,-0.4622,-0.512,-0.5664,-0.5941,-0.6322,-0.6815,-0.7295,-0.8084,-0.9033,-0.9806,-1.0407,-1.0914,-1.1466,-1.1972,-1.2511,-1.2986,-1.3369,-1.3532,-1.3484,-1.3532,-1.392,-1.434,-1.4709,-1.513,-1.5534,-1.5932,-1.6225,-1.6612,-1.7047,-1.7421,-1.7841,-1.8175,-1.8475,-1.8808,-1.9221,-1.966,-1.9909,-2.0154,-2.0376,-2.0561,-2.0777,-2.099,-2.1071,-2.1119,-2.1424,-2.2417,-2.3035,-2.3419,-2.459,-2.5492,-2.5492,-2.5508,-2.5492,-2.5508,-2.5508,-2.5508,-2.5508,-2.554,-2.5895,-2.6663,-2.7679,-2.8742,-2.9548,-2.9677,-2.9677,-2.9677,-2.9677,-2.9677,-2.9677,-2.9544,-2.9364,-2.9166,-2.9059,-2.8982,-2.8982,-2.8982,-2.8982,-2.8982,-2.8982,-2.8982,-2.8982,-2.8982,-2.8982,-2.9029,-2.9121,-2.9227,-2.9393,-2.9528,-2.9677,-2.9661,-2.9677,-2.9677,-2.9677,-2.9661,-2.9617,-2.9544,-2.947,-2.947,-2.956,-2.9677,-2.9722,-2.9766,-2.9842,-2.9978,-3.0054,-3.0201,-3.0318,-0.2784,-0.3,-0.2849,-0.3065,-0.3524,-0.3962,-0.4457,-0.4956,-0.5285,-0.5778,-0.6322,-0.675,-0.7182,-0.7676,-0.8262,-0.9099,-1.0028,-1.0795,-1.1342,-1.1832,-1.2374,-1.2909,-1.3437,-1.3956,-1.4376,-1.4709,-1.4744,-1.4698,-1.4846,-1.5209,-1.5567,-1.6008,-1.6355,-1.6655,-1.7034,-1.7421,-1.7747,-1.8042,-1.8436,-1.8784,-1.9035,-1.9442,-1.9823,-2.012,-2.0395,-2.0613,-2.0794,-2.0958,-2.1151,-2.1309,-2.145,-2.1556,-2.2028,-2.2865,-2.3752,-2.3895,-2.5026,-2.5901,-2.5901,-2.5901,-2.5901,-2.5917,-2.5901,-2.5901,-2.5917,-2.5999,-2.6426,-2.7421,-2.8338,-2.9386,-3.0091,-3.014,-3.0156,-3.0156,-3.0156,-3.0156,-3.0172,-3.0156,-2.9984,-2.9782,-2.9633,-2.9544,-2.947,-2.947,-2.9454,-2.9454,-2.9454,-2.9454,-2.9454,-2.947,-2.947,-2.956,-2.9605,-2.9766,-2.9941,-3.007,-3.0156,-3.0156,-3.0156,-3.0156,-3.0172,-3.0156,-3.0199,-3.0215,-3.013,-2.9984,-3.0027,-3.0156,-3.0156,-3.014,-3.0258,-3.0392,-3.0465,-3.0549,-3.0642,-0.3204,-0.3399,-0.3288,-0.3519,-0.4018,-0.446,-0.4952,-0.55,-0.5996,-0.649,-0.7085,-0.7503,-0.8031,-0.8672,-0.9354,-1.0174,-1.1099,-1.171,-1.2246,-1.2774,-1.3294,-1.3768,-1.4294,-1.4755,-1.5242,-1.5688,-1.5996,-1.6064,-1.5788,-1.6064,-1.6466,-1.6837,-1.7118,-1.7449,-1.7828,-1.8161,-1.845,-1.8745,-1.9049,-1.9384,-1.9732,-2.0104,-2.0462,-2.0646,-2.0844,-2.1055,-2.1246,-2.1386,-2.1526,-2.1708,-2.1844,-2.2057,-2.2446,-2.3658,-2.4418,-2.4579,-2.5596,-2.6145,-2.6295,-2.6295,-2.6295,-2.6295,-2.6295,-2.6295,-2.6395,-2.6595,-2.7161,-2.8443,-2.917,-2.9869,-3.0484,-3.0634,-3.0651,-3.0651,-3.0634,-3.0634,-3.0634,-3.0634,-3.0634,-3.041,-3.0225,-3.0097,-3.0027,-2.9957,-2.9941,-2.9957,-2.9941,-2.9941,-2.9941,-2.9941,-2.9941,-3.0027,-3.0113,-3.0258,-3.0426,-3.0551,-3.0593,-3.0634,-3.0634,-3.0651,-3.0651,-3.0651,-3.0692,-3.0716,-3.0675,-3.0576,-3.0617,-3.0634,-3.0634,-3.0675,-3.0716,-3.0799,-3.085,-3.0924,-3.0982,-0.3507,-0.3801,-0.3736,-0.4076,-0.4632,-0.5007,-0.5555,-0.61,-0.6598,-0.709,-0.767,-0.8156,-0.8732,-0.951,-1.0584,-1.1434,-1.207,-1.2667,-1.3256,-1.3721,-1.4236,-1.4732,-1.5254,-1.578,-1.6151,-1.657,-1.6925,-1.6866,-1.6769,-1.6964,-1.7227,-1.7585,-1.7935,-1.8266,-1.8539,-1.886,-1.9124,-1.9369,-1.9711,-2.01,-2.053,-2.0714,-2.0958,-2.1166,-2.1371,-2.1556,-2.1691,-2.1794,-2.194,-2.2056,-2.2231,-2.2666,-2.3409,-2.4269,-2.5163,-2.5723,-2.6313,-2.6624,-2.6657,-2.6624,-2.664,-2.6624,-2.6624,-2.664,-2.6911,-2.7451,-2.8279,-2.9698,-3.0053,-3.0391,-3.0943,-3.1095,-3.1112,-3.1112,-3.1095,-3.1112,-3.1112,-3.1095,-3.1095,-3.1095,-3.0861,-3.0699,-3.0551,-3.0468,-3.0426,-3.0443,-3.0443,-3.0426,-3.041,-3.041,-3.041,-3.051,-3.0617,-3.0757,-3.0838,-3.0975,-3.1055,-3.1112,-3.1112,-3.1112,-3.1095,-3.1095,-3.1134,-3.1157,-3.1117,-3.1061,-3.1061,-3.1061,-3.1095,-3.1095,-3.1117,-3.1173,-3.1244,-3.1286,-3.1329,-0.3998,-0.4106,-0.4268,-0.457,-0.5066,-0.5555,-0.6154,-0.675,-0.7235,-0.7771,-0.8355,-0.8928,-0.9769,-1.0736,-1.1742,-1.2374,-1.2899,-1.3532,-1.4107,-1.4606,-1.5107,-1.5543,-1.6039,-1.6539,-1.6976,-1.7353,-1.7706,-1.8013,-1.7907,-1.7841,-1.8028,-1.8355,-1.8679,-1.8959,-1.9221,-1.9479,-1.9732,-1.998,-2.0326,-2.073,-2.1039,-2.1276,-2.1462,-2.157,-2.1794,-2.1924,-2.2039,-2.2243,-2.2354,-2.2409,-2.2579,-2.3074,-2.3863,-2.4698,-2.5529,-2.6307,-2.6918,-2.7161,-2.7021,-2.6971,-2.6971,-2.6989,-2.7023,-2.7177,-2.7654,-2.8357,-2.9196,-3.0309,-3.0839,-3.1179,-3.1418,-3.1521,-3.1538,-3.1538,-3.1521,-3.1538,-3.1538,-3.1538,-3.1538,-3.1538,-3.1538,-3.1312,-3.114,-3.1038,-3.0958,-3.0895,-3.0895,-3.0895,-3.0878,-3.0878,-3.0895,-3.0952,-3.1095,-3.1196,-3.1312,-3.1406,-3.1483,-3.1521,-3.1521,-3.1521,-3.1521,-3.1559,-3.1559,-3.1579,-3.1579,-3.1524,-3.1487,-3.1428,-3.1389,-3.1445,-3.1483,-3.1598,-3.1679,-3.1705,-3.1737,-0.4509,-0.4581,-0.4798,-0.512,-0.5605,-0.6154,-0.675,-0.7348,-0.7871,-0.8455,-0.9183,-0.9961,-1.099,-1.19,-1.2628,-1.3198,-1.3732,-1.434,-1.4846,-1.5389,-1.582,-1.6312,-1.674,-1.7227,-1.7666,-1.804,-1.8458,-1.8779,-1.8968,-1.8968,-1.8954,-1.9155,-1.9354,-1.9609,-1.9909,-2.0135,-2.0326,-2.0581,-2.0959,-2.126,-2.1493,-2.1735,-2.1899,-2.2015,-2.2198,-2.2347,-2.2419,-2.2571,-2.2685,-2.2764,-2.3172,-2.3746,-2.4515,-2.5411,-2.6239,-2.6954,-2.7578,-2.7683,-2.7522,-2.743,-2.7338,-2.7338,-2.7407,-2.7632,-2.8427,-2.9192,-2.9971,-3.0751,-3.1444,-3.1773,-3.1946,-3.1929,-3.1929,-3.1912,-3.1912,-3.1929,-3.1929,-3.1929,-3.1912,-3.1912,-3.1912,-3.1912,-3.1748,-3.1617,-3.1483,-3.1385,-3.1346,-3.1346,-3.1329,-3.1329,-3.1329,-3.1385,-3.1428,-3.1579,-3.1617,-3.1746,-3.1819,-3.1893,-3.1893,-3.1893,-3.1875,-3.1912,-3.1912,-3.1948,-3.1984,-3.1948,-3.1894,-3.1785,-3.1728,-3.1765,-3.1837,-3.2029,-3.2152,-3.2223,-3.2503,-0.5132,-0.5513,-0.5336,-0.5609,-0.6154,-0.681,-0.7343,-0.7871,-0.8455,-0.9138,-0.9969,-1.1091,-1.199,-1.2725,-1.3409,-1.4025,-1.4606,-1.5107,-1.5611,-1.6107,-1.6552,-1.7005,-1.7462,-1.7908,-1.8319,-1.8731,-1.9132,-1.9515,-1.9869,-1.9929,-1.9844,-1.9788,-2.0035,-2.0277,-2.0496,-2.0712,-2.0991,-2.1229,-2.1584,-2.1764,-2.194,-2.2096,-2.2254,-2.2443,-2.2579,-2.2738,-2.2868,-2.2927,-2.3107,-2.3193,-2.3784,-2.4635,-2.5454,-2.6162,-2.6988,-2.7691,-2.7958,-2.8063,-2.7989,-2.7818,-2.7701,-2.7654,-2.7742,-2.8005,-2.8794,-2.9495,-3.0284,-3.1023,-3.1706,-3.2143,-3.2214,-3.2266,-3.2301,-3.2301,-3.2301,-3.2301,-3.2301,-3.2301,-3.2283,-3.2249,-3.2283,-3.2283,-3.2301,-3.2144,-3.1894,-3.1765,-3.1746,-3.1728,-3.1728,-3.1728,-3.1746,-3.1783,-3.1839,-3.1875,-3.1912,-3.1984,-3.2144,-3.2179,-3.2179,-3.2197,-3.2232,-3.2266,-3.2266,-3.2266,-3.2301,-3.2283,-3.2371,-3.2477,-3.2458,-3.2178,-3.2265,-3.2842,-3.3263,-3.3509,-3.3825,-0.5285,-0.5723,-0.6046,-0.6372,-0.681,-0.7343,-0.7925,-0.8508,-0.9033,-0.9969,-1.0998,-1.194,-1.2725,-1.3409,-1.4061,-1.4674,-1.5299,-1.5908,-1.6398,-1.6921,-1.738,-1.7828,-1.824,-1.8616,-1.8997,-1.9369,-1.9717,-2.0035,-2.0342,-2.0613,-2.0795,-2.0795,-2.0714,-2.0795,-2.1007,-2.1276,-2.1568,-2.1853,-2.2073,-2.2215,-2.2354,-2.2544,-2.2677,-2.2738,-2.2944,-2.3045,-2.3144,-2.3217,-2.3554,-2.4016,-2.4497,-2.5365,-2.629,-2.6877,-2.7512,-2.8201,-2.8309,-2.8335,-2.8335,-2.8174,-2.8035,-2.8035,-2.806,-2.8326,-2.9018,-2.9432,-3.0282,-3.108,-3.1753,-3.2107,-3.2636,-3.2672,-3.2672,-3.2672,-3.2672,-3.2639,-3.2639,-3.2621,-3.2621,-3.2588,-3.2621,-3.2672,-3.2672,-3.2639,-3.2386,-3.2179,-3.2144,-3.2126,-3.2108,-3.2126,-3.2126,-3.2126,-3.2197,-3.2232,-3.2266,-3.2335,-3.2422,-3.2456,-3.2456,-3.2472,-3.2521,-3.259,-3.259,-3.2623,-3.2765,-3.2976,-3.3153,-3.3312,-3.3263,-3.3143,-3.3512,-3.4076,-3.4446,-3.4783,-3.5066,-0.5614,-0.61,-0.6701,-0.7031,-0.73,-0.783,-0.8408,-0.8988,-0.9562,-1.0584,-1.1959,-1.2579,-1.3341,-1.4061,-1.4663,-1.5254,-1.5888,-1.6527,-1.7076,-1.7571,-1.8042,-1.8514,-1.886,-1.9221,-1.9551,-1.9909,-2.0224,-2.0545,-2.0811,-2.1119,-2.1324,-2.1401,-2.1385,-2.1415,-2.1524,-2.184,-2.2113,-2.2309,-2.249,-2.2588,-2.2721,-2.2919,-2.302,-2.314,-2.3446,-2.3762,-2.3975,-2.4201,-2.4629,-2.5076,-2.5536,-2.6141,-2.6909,-2.7529,-2.7933,-2.8294,-2.851,-2.8536,-2.8518,-2.844,-2.8309,-2.8309,-2.8309,-2.8613,-2.8963,-2.9303,-3.0181,-3.1184,-3.1619,-3.2102,-3.2867,-3.2979,-3.293,-3.288,-3.2898,-3.2898,-3.2898,-3.2898,-3.2898,-3.288,-3.293,-3.293,-3.293,-3.293,-3.2802,-3.2588,-3.2521,-3.2489,-3.2508,-3.2507,-3.2488,-3.2506,-3.2557,-3.259,-3.2623,-3.2657,-3.269,-3.2722,-3.2705,-3.2737,-3.277,-3.2905,-3.3169,-3.3384,-3.3577,-3.3784,-3.4145,-3.4613,-3.4512,-3.425,-3.4747,-3.5368,-3.5633,-3.5918,-3.6114,-0.6105,-0.6701,-0.7246,-0.7467,-0.7622,-0.8156,-0.8791,-0.9465,-1.0087,-1.1099,-1.2393,-1.3228,-1.3967,-1.4663,-1.5152,-1.5788,-1.6441,-1.7076,-1.7571,-1.8068,-1.8577,-1.8997,-1.9332,-1.9696,-1.998,-2.0361,-2.0646,-2.0958,-2.1246,-2.1464,-2.1721,-2.194,-2.1998,-2.201,-2.2027,-2.2315,-2.2525,-2.2668,-2.2799,-2.2902,-2.302,-2.3281,-2.3442,-2.3655,-2.4296,-2.4712,-2.4866,-2.5272,-2.5703,-2.611,-2.6622,-2.7121,-2.7574,-2.8191,-2.8542,-2.8718,-2.8761,-2.8761,-2.8785,-2.8662,-2.8612,-2.8569,-2.8569,-2.8677,-2.8822,-2.9293,-2.9953,-3.083,-3.148,-3.2264,-3.2829,-3.3196,-3.3129,-3.3147,-3.3147,-3.3147,-3.3147,-3.3147,-3.3178,-3.3178,-3.3147,-3.3117,-3.3165,-3.3165,-3.3122,-3.3011,-3.2916,-3.287,-3.2891,-3.2873,-3.2884,-3.2866,-3.2916,-3.2916,-3.2916,-3.2916,-3.2916,-3.2979,-3.3046,-3.3082,-3.3234,-3.3391,-3.371,-3.4092,-3.4443,-3.4704,-3.5393,-3.6065,-3.596,-3.589,-3.6111,-3.6557,-3.6823,-3.6984,-3.7057,-0.6154,-0.6761,-0.7354,-0.7836,-0.8256,-0.8738,-0.9316,-1.0087,-1.1141,-1.2147,-1.2977,-1.38,-1.449,-1.5119,-1.5712,-1.6324,-1.7034,-1.7639,-1.8135,-1.8626,-1.9147,-1.9493,-1.9818,-2.01,-2.041,-2.0679,-2.099,-2.1277,-2.1556,-2.1768,-2.2003,-2.2231,-2.249,-2.2571,-2.2571,-2.2712,-2.2842,-2.302,-2.3119,-2.3193,-2.3342,-2.3892,-2.4272,-2.4307,-2.5201,-2.569,-2.5749,-2.6235,-2.6626,-2.7058,-2.7549,-2.7791,-2.8184,-2.8749,-2.8767,-2.881,-2.8834,-2.8905,-2.8975,-2.8957,-2.891,-2.8839,-2.8791,-2.881,-2.8883,-2.901,-2.9605,-3.0327,-3.1156,-3.1929,-3.2464,-3.319,-3.3372,-3.3444,-3.3444,-3.3444,-3.3444,-3.3444,-3.3444,-3.3473,-3.3444,-3.3415,-3.3444,-3.3444,-3.3386,-3.3375,-3.3298,-3.3226,-3.3201,-3.3201,-3.3244,-3.3244,-3.3244,-3.3244,-3.3244,-3.334,-3.3376,-3.3442,-3.3509,-3.3545,-3.3713,-3.4051,-3.4558,-3.5155,-3.5398,-3.5696,-3.6395,-3.7033,-3.7461,-3.7609,-3.7458,-3.7356,-3.748,-3.7623,-3.7731,-0.6431,-0.7031,-0.767,-0.8309,-0.8883,-0.9204,-0.9829,-1.0854,-1.2098,-1.2977,-1.36,-1.4351,-1.504,-1.5668,-1.625,-1.6808,-1.7489,-1.8121,-1.8644,-1.9132,-1.9609,-1.996,-2.0254,-2.0527,-2.0811,-2.1039,-2.1293,-2.1617,-2.1823,-2.2073,-2.2343,-2.2615,-2.2893,-2.3003,-2.3028,-2.3095,-2.3119,-2.3265,-2.3378,-2.3625,-2.4004,-2.4508,-2.4995,-2.5433,-2.6085,-2.6662,-2.6781,-2.7027,-2.7401,-2.7908,-2.8169,-2.8356,-2.8759,-2.8929,-2.8929,-2.8952,-2.8975,-2.9067,-2.9112,-2.9134,-2.9089,-2.9062,-2.904,-2.9021,-2.9003,-2.9072,-2.9489,-3.0143,-3.0881,-3.1667,-3.2446,-3.3195,-3.3588,-3.3671,-3.3643,-3.3643,-3.3615,-3.3615,-3.3643,-3.3671,-3.3671,-3.3671,-3.368,-3.368,-3.368,-3.3671,-3.3671,-3.3577,-3.3491,-3.3509,-3.3509,-3.3509,-3.3499,-3.347,-3.3615,-3.3851,-3.3887,-3.3898,-3.4098,-3.4382,-3.4661,-3.509,-3.5648,-3.6133,-3.6315,-3.6643,-3.7348,-3.7927,-3.8091,-3.8168,-3.8089,-3.8077,-3.8135,-3.8153,-3.8186,-0.7031,-0.7568,-0.8156,-0.8784,-0.9361,-0.9718,-1.0541,-1.1769,-1.2783,-1.3542,-1.4118,-1.4937,-1.5623,-1.6219,-1.6752,-1.7325,-1.7908,-1.8553,-1.9035,-1.95,-2.0,-2.0342,-2.0662,-2.0958,-2.1183,-2.1417,-2.1645,-2.1882,-2.2124,-2.2381,-2.2685,-2.297,-2.3168,-2.3313,-2.336,-2.3567,-2.3602,-2.3784,-2.3889,-2.428,-2.4856,-2.529,-2.5787,-2.6354,-2.7082,-2.7547,-2.7812,-2.8164,-2.8557,-2.8842,-2.8943,-2.903,-2.9152,-2.9197,-2.9218,-2.9274,-2.9307,-2.9381,-2.961,-2.9706,-2.9672,-2.982,-2.9613,-2.9388,-2.9381,-2.958,-3.0093,-3.0623,-3.1311,-3.1937,-3.2636,-3.3209,-3.3788,-3.3788,-3.3788,-3.3762,-3.3734,-3.3734,-3.3807,-3.3807,-3.3788,-3.3815,-3.3842,-3.3868,-3.3868,-3.3868,-3.3842,-3.3815,-3.3726,-3.3671,-3.3671,-3.3671,-3.3679,-3.3706,-3.3943,-3.4392,-3.4731,-3.4851,-3.5316,-3.5608,-3.5889,-3.6163,-3.6644,-3.7009,-3.7186,-3.757,-3.8083,-3.8321,-3.8436,-3.8478,-3.8478,-3.8446,-3.8415,-3.8415,-3.8433,-0.7295,-0.7824,-0.8527,-0.9211,-0.9969,-1.1082,-1.1891,-1.2433,-1.3351,-1.4107,-1.4674,-1.5445,-1.6107,-1.668,-1.7256,-1.7868,-1.8447,-1.9035,-1.9515,-1.9965,-2.0379,-2.0712,-2.1023,-2.1294,-2.1542,-2.1721,-2.194,-2.2198,-2.2426,-2.2703,-2.297,-2.3217,-2.3383,-2.3499,-2.3845,-2.4253,-2.4455,-2.464,-2.4703,-2.5145,-2.5846,-2.6386,-2.6809,-2.7346,-2.8022,-2.8416,-2.8659,-2.8819,-2.9089,-2.9112,-2.9134,-2.9178,-2.9197,-2.9237,-2.9329,-3.0076,-3.0187,-3.0379,-3.0946,-3.1098,-3.1027,-3.0996,-3.107,-3.0668,-3.055,-3.058,-3.0964,-3.1293,-3.1829,-3.249,-3.2915,-3.3407,-3.3817,-3.3947,-3.3947,-3.3947,-3.3902,-3.3928,-3.3972,-3.3972,-3.3972,-3.3998,-3.4023,-3.3998,-3.3998,-3.3998,-3.4016,-3.4035,-3.3983,-3.395,-3.4044,-3.4062,-3.4163,-3.4265,-3.4669,-3.5138,-3.5533,-3.5883,-3.637,-3.6783,-3.7022,-3.7298,-3.7658,-3.7868,-3.7973,-3.8242,-3.8626,-3.8725,-3.8683,-3.8743,-3.8773,-3.8743,-3.8713,-3.8683,-3.8652,-0.7616,-0.8249,-0.889,-0.9725,-1.083,-1.2138,-1.2919,-1.3341,-1.4014,-1.4617,-1.5232,-1.5976,-1.6582,-1.7131,-1.7747,-1.8344,-1.8959,-1.942,-1.9889,-2.0311,-2.0795,-2.1087,-2.1356,-2.1617,-2.1811,-2.1998,-2.2226,-2.2463,-2.2712,-2.2995,-2.3265,-2.336,-2.3522,-2.3871,-2.4306,-2.4846,-2.5514,-2.575,-2.599,-2.619,-2.6763,-2.741,-2.773,-2.821,-2.8833,-2.8989,-2.9085,-2.9178,-2.92,-2.9222,-2.9243,-2.9246,-2.9397,-2.9567,-2.9885,-3.0578,-3.099,-3.1254,-3.1691,-3.1803,-3.1918,-3.2088,-3.2315,-3.2139,-3.1797,-3.1697,-3.1715,-3.1823,-3.247,-3.304,-3.3319,-3.361,-3.387,-3.4105,-3.4105,-3.4148,-3.413,-3.413,-3.4154,-3.4173,-3.4173,-3.4173,-3.4173,-3.4148,-3.4173,-3.4197,-3.4351,-3.4537,-3.4427,-3.4296,-3.453,-3.4715,-3.4807,-3.4944,-3.5443,-3.6036,-3.6517,-3.6989,-3.7516,-3.7876,-3.8126,-3.8208,-3.8346,-3.8549,-3.877,-3.8892,-3.8921,-3.8892,-3.8851,-3.8939,-3.8968,-3.8921,-3.8892,-3.8833,-3.8833,-0.799,-0.8732,-0.9354,-1.0438,-1.1819,-1.2832,-1.3684,-1.434,-1.4709,-1.5164,-1.5756,-1.6539,-1.7089,-1.7625,-1.8226,-1.8755,-1.9332,-1.9782,-2.0239,-2.0663,-2.1071,-2.1402,-2.1648,-2.1899,-2.2101,-2.2281,-2.2517,-2.2747,-2.2977,-2.3241,-2.343,-2.3522,-2.3865,-2.4302,-2.4932,-2.5561,-2.6322,-2.7065,-2.7116,-2.7185,-2.7606,-2.7981,-2.825,-2.8819,-2.9093,-2.9181,-2.9181,-2.9222,-2.9243,-2.9286,-2.9328,-2.9353,-2.9804,-3.0141,-3.0534,-3.119,-3.1768,-3.2219,-3.2502,-3.2614,-3.2524,-3.2655,-3.2879,-3.3141,-3.3026,-3.2776,-3.2676,-3.2695,-3.3287,-3.3492,-3.3753,-3.3957,-3.4157,-3.4269,-3.4269,-3.4269,-3.4269,-3.4269,-3.4293,-3.4293,-3.4293,-3.4311,-3.4409,-3.4428,-3.4825,-3.4666,-3.4946,-3.5245,-3.524,-3.5056,-3.5213,-3.5547,-3.5615,-3.5882,-3.6515,-3.7091,-3.7604,-3.8116,-3.8535,-3.8693,-3.8739,-3.8832,-3.8931,-3.9026,-3.9082,-3.9026,-3.9026,-3.9026,-3.9054,-3.9082,-3.911,-3.9092,-3.9064,-3.9007,-3.8989,-0.8573,-0.9309,-1.0592,-1.161,-1.2304,-1.3351,-1.4236,-1.4971,-1.5591,-1.6032,-1.6497,-1.7089,-1.7625,-1.8133,-1.8693,-1.9221,-1.9696,-2.012,-2.0597,-2.1007,-2.1402,-2.1661,-2.1899,-2.2175,-2.2398,-2.2588,-2.2799,-2.307,-2.3307,-2.3494,-2.3665,-2.3833,-2.4342,-2.5099,-2.5591,-2.6332,-2.735,-2.8064,-2.8264,-2.8279,-2.8596,-2.878,-2.9045,-2.916,-2.9225,-2.927,-2.9312,-2.9372,-2.9412,-2.9471,-2.9453,-2.979,-3.0387,-3.0632,-3.1397,-3.2353,-3.2748,-3.3181,-3.3521,-3.3655,-3.3655,-3.3789,-3.4073,-3.4183,-3.4161,-3.3926,-3.3811,-3.3848,-3.3885,-3.3997,-3.411,-3.4278,-3.4465,-3.4483,-3.4502,-3.4479,-3.4479,-3.4539,-3.4539,-3.4539,-3.4521,-3.4618,-3.4776,-3.5001,-3.5323,-3.5777,-3.6287,-3.661,-3.6633,-3.6531,-3.6522,-3.6723,-3.6571,-3.6889,-3.7567,-3.7997,-3.8402,-3.8712,-3.904,-3.92,-3.9293,-3.9239,-3.9184,-3.9266,-3.9293,-3.9239,-3.9212,-3.9266,-3.9293,-3.9266,-3.9221,-3.9221,-3.9248,-3.9248,-3.9202,-0.8988,-0.9814,-1.1309,-1.2264,-1.288,-1.3836,-1.4617,-1.5389,-1.6107,-1.6765,-1.7173,-1.7639,-1.8068,-1.8602,-1.9109,-1.9639,-2.005,-2.0462,-2.0909,-2.134,-2.1631,-2.1915,-2.2175,-2.2443,-2.2642,-2.2868,-2.3102,-2.336,-2.3674,-2.4145,-2.4382,-2.4526,-2.5245,-2.6012,-2.645,-2.7466,-2.816,-2.8598,-2.9061,-2.923,-2.9307,-2.9289,-2.9267,-2.927,-2.9332,-2.9373,-2.9414,-2.9472,-2.9492,-2.9699,-2.9867,-3.0263,-3.0938,-3.1633,-3.2403,-3.3137,-3.3644,-3.4113,-3.4473,-3.4623,-3.4645,-3.4666,-3.4666,-3.4574,-3.4593,-3.436,-3.4298,-3.4317,-3.4274,-3.4367,-3.4389,-3.452,-3.4936,-3.5105,-3.5318,-3.5431,-3.5732,-3.6036,-3.6036,-3.6054,-3.6036,-3.6036,-3.6152,-3.6189,-3.6475,-3.6494,-3.7099,-3.7551,-3.7649,-3.7785,-3.7838,-3.7872,-3.7704,-3.7962,-3.8672,-3.893,-3.907,-3.9339,-3.9476,-3.9425,-3.9354,-3.9373,-3.9391,-3.9399,-3.9399,-3.9373,-3.9391,-3.9425,-3.9418,-3.9346,-3.9346,-3.9373,-3.9399,-3.9425,-3.938,-0.9451,-1.0379,-1.1751,-1.2745,-1.3399,-1.4212,-1.4994,-1.5756,-1.6539,-1.7256,-1.7868,-1.8214,-1.8577,-1.902,-1.95,-2.0015,-2.0444,-2.0763,-2.1214,-2.1601,-2.1866,-2.2158,-2.2426,-2.2685,-2.2876,-2.3126,-2.3365,-2.3687,-2.4046,-2.4588,-2.5059,-2.5415,-2.6216,-2.7114,-2.769,-2.816,-2.8542,-2.9015,-2.9353,-2.9394,-2.9414,-2.9394,-2.9373,-2.9394,-2.9472,-2.9512,-2.9531,-2.955,-2.955,-3.0075,-3.0602,-3.1166,-3.1712,-3.254,-3.3144,-3.3823,-3.4276,-3.4559,-3.4768,-3.4768,-3.4768,-3.4788,-3.4788,-3.4788,-3.4788,-3.4768,-3.4708,-3.4687,-3.4626,-3.4604,-3.4626,-3.4929,-3.5364,-3.58,-3.6088,-3.6373,-3.6826,-3.7225,-3.7244,-3.7244,-3.7244,-3.7225,-3.7263,-3.73,-3.7473,-3.7473,-3.7737,-3.8115,-3.8455,-3.8644,-3.8776,-3.8833,-3.8769,-3.9188,-3.9588,-3.9538,-3.9467,-3.95,-3.9564,-3.9508,-3.9483,-3.9508,-3.9527,-3.9476,-3.9476,-3.9502,-3.9476,-3.9527,-3.9476,-3.9451,-3.9502,-3.9508,-3.9508,-3.9533,-3.9527,-1.0226,-1.146,-1.2335,-1.316,-1.3884,-1.4628,-1.5445,-1.6238,-1.6909,-1.7652,-1.8305,-1.8793,-1.9169,-1.9406,-1.9879,-2.0326,-2.0728,-2.1071,-2.1432,-2.184,-2.2068,-2.2392,-2.2694,-2.2952,-2.3126,-2.3407,-2.3741,-2.4183,-2.4671,-2.5124,-2.5685,-2.6334,-2.7187,-2.7809,-2.8081,-2.8569,-2.9111,-2.9434,-2.9492,-2.9531,-2.9589,-2.9551,-2.9492,-2.9512,-2.9607,-2.9645,-2.9664,-2.9719,-3.0169,-3.0809,-3.1525,-3.2203,-3.2769,-3.3297,-3.3845,-3.4261,-3.4734,-3.4772,-3.4849,-3.4849,-3.4849,-3.4849,-3.4849,-3.4849,-3.4829,-3.4829,-3.479,-3.479,-3.4769,-3.4768,-3.4862,-3.5428,-3.592,-3.6373,-3.6755,-3.7095,-3.7532,-3.7608,-3.7608,-3.7608,-3.7608,-3.7648,-3.7707,-3.7934,-3.8391,-3.8523,-3.8904,-3.9223,-3.928,-3.947,-3.9621,-3.9621,-3.9602,-3.9633,-3.9705,-3.966,-3.9632,-3.967,-3.9665,-3.9613,-3.9613,-3.9661,-3.9637,-3.9607,-3.9607,-3.9637,-3.9613,-3.9583,-3.9607,-3.9588,-3.9637,-3.9661,-3.9637,-3.9613,-3.9607]}]]